[[{"header":{"parameterUnit":"m.s-1","parameterCategory":1,"la1":31.0,"la2":29.5877,"lo1":-88.7671,"lo2":-86.6584,"dy":0.0162,"dx":0.0185,"nx":115,"ny":88,"refTime":"2026-04-11T00:00:00:Z","depth":0,"parameterNumber":2,"parameterNumberName":"U-component_of_WINDS"},"data":[0.0,0.0,0.0,0.0,0.0,0.0,0.0,0.0,0.0,0.0,0.0,0.0,0.0,0.0,0.0,0.0,0.0,0.0,0.0,0.0,0.0,0.0,0.0,0.0,0.0,0.0,0.0,0.0,0.0,0.0,0.0,0.0,0.0,0.0,0.0,0.0,0.0,0.0,0.0,0.0,0.0,0.0,0.0,0.0,0.0,0.0,0.0,0.0,0.0,0.0,0.0,0.0,0.0,0.0,0.0,0.0,0.0,0.0,0.0,0.0,0.0,0.0,0.0,0.0,0.0,0.0,0.0,0.0,0.0,0.0,0.0,0.0,0.0,0.0,0.0,0.0,0.0,0.0,0.0,0.0,0.0,0.0,0.0,0.0,0.0,0.0,0.0,0.0,0.0,0.0,0.0,0.0,0.0,0.0,0.0,0.0,0.0,0.0,0.0,0.0,0.0,0.0,0.0,0.0,0.0,0.0,0.0,0.0,0.0,0.0,0.0,0.0,0.0,0.0,0.0,0.0,0.0,0.0,0.0,0.0,0.0,0.0,0.0,0.0,0.0,0.0,0.0,0.0,0.0,0.0,0.0,0.0,0.0,0.0,0.0,0.0,0.0,0.0,0.0,0.0,0.0,0.0,0.0,0.0,0.0,0.0,0.0,0.0,0.0,0.0,0.0,0.0,0.0,0.0,0.0,0.0,0.0,0.0,0.0,0.0,0.0,0.0,0.0,0.0,0.0,0.0,0.0,0.0,0.0,0.0,0.0,0.0,0.0,0.0,0.0,0.0,0.0,0.0,0.0,0.0,0.0,0.0,0.0,0.0,0.0,0.0,0.0,0.0,0.0,0.0,0.0,0.0,0.0,0.0,0.0,0.0,0.0,0.0,0.0,0.0,0.0,0.0,0.0,0.0,0.0,0.0,0.0,0.0,0.0,0.0,0.0,0.0,0.0,0.0,0.0,0.0,0.0,0.0,0.0,0.0,0.0,0.0,0.0,0.0,0.0,0.0,0.0,0.0,0.0,0.0,0.0,0.0,0.0,0.0,0.0,0.0,0.0,0.0,0.0,0.0,0.0,0.0,0.0,0.0,0.0,0.0,0.0,0.0,0.0,0.0,0.0,0.0,0.0,0.0,0.0,0.0,0.0,0.0,0.0,0.0,0.0,0.0,0.0,0.0,0.0,0.0,0.0,0.0,0.0,0.0,0.0,0.0,0.0,0.0,0.0,0.0,0.0,0.0,0.0,0.0,0.0,0.0,0.0,0.0,0.0,0.0,0.0,0.0,0.0,0.0,0.0,0.0,0.0,0.0,0.0,0.0,0.0,0.0,0.0,0.0,0.0,0.0,0.0,0.0,0.0,0.0,0.0,0.0,0.0,0.0,0.0,0.0,0.0,0.0,0.0,0.0,0.0,0.0,0.0,0.0,0.0,0.0,0.0,0.0,0.0,0.0,0.0,0.0,0.0,0.0,0.0,0.0,0.0,0.0,0.0,0.0,0.0,0.0,0.0,0.0,0.0,0.0,0.0,0.0,0.0,0.0,0.0,0.0,0.0,0.0,0.0,0.0,0.0,0.0,0.0,0.0,0.0,0.0,0.0,0.0,0.0,0.0,0.0,0.0,0.0,0.0,0.0,0.0,0.0,0.0,0.0,0.0,0.0,0.0,0.0,0.0,0.0,0.0,0.0,0.0,0.0,0.0,0.0,0.0,0.0,0.0,0.0,0.0,0.0,0.0,0.0,0.0,0.0,0.0,0.0,0.0,0.0,0.0,0.0,0.0,0.0,0.0,0.0,0.0,0.0,0.0,0.0,0.0,0.0,0.0,0.0,0.0,0.0,0.0,0.0,0.0,0.0,0.0,0.0,0.0,0.0,0.0,0.0,0.0,0.0,0.0,0.0,0.0,0.0,0.0,0.0,0.0,0.0,0.0,0.0,0.0,0.0,0.0,0.0,0.0,0.0,0.0,0.0,0.0,0.0,0.0,0.0,0.0,0.0,0.0,0.0,0.0,0.0,0.0,0.0,0.0,0.0,0.0,0.0,0.0,0.0,0.0,0.0,0.0,0.0,0.0,0.0,0.0,0.0,0.0,0.0,0.0,0.0,0.0,0.0,0.0,0.0,0.0,0.0,0.0,0.0,0.0,0.0,0.0,0.0,0.0,0.0,0.0,0.0,0.0,0.0,0.0,0.0,0.0,0.0,0.0,0.0,0.0,0.0,0.0,0.0,0.0,0.0,0.0,0.0,0.0,0.0,0.0,0.0,0.0,0.0,0.0,0.0,0.0,0.0,0.0,0.0,0.0,0.0,0.0,0.0,0.0,0.0,0.0,0.0,0.0,0.0,0.0,0.0,0.0,0.0,0.0,0.0,0.0,0.0,0.0,0.0,0.0,0.0,0.0,0.0,0.0,0.0,0.0,0.0,0.0,0.0,0.0,0.0,0.0,0.0,0.0,0.0,0.0,0.0,0.0,0.0,0.0,0.0,0.0,0.0,0.0,0.0,0.0,0.0,0.0,0.0,0.0,0.0,0.0,0.0,0.0,0.0,0.0,0.0,0.0,0.0,0.0,0.0,0.0,0.0,0.0,0.0,0.0,0.0,0.0,0.0,0.0,0.0,0.0,0.0,0.0,0.0,0.0,0.0,0.0,0.0,0.0,0.0,0.0,0.0,0.0,0.0,0.0,0.0,0.0,0.0,0.0,0.0,0.0,0.0,0.0,0.0,0.0,0.0,0.0,0.0,0.0,0.0,0.0,0.0,0.0,0.0,0.0,0.0,0.0,0.0,0.0,0.0,0.0,0.0,0.0,0.0,0.0,0.0,0.0,0.0,0.0,0.0,0.0,0.0,0.0,0.0,0.0,0.0,0.0,0.0,0.0,0.0,0.0,0.0,0.0,0.0,0.0,0.0,0.0,0.0,0.0,0.0,0.0,0.0,0.0,0.0,0.0,0.0,0.0,0.0,0.0,0.0,0.0,0.0,0.0,0.0,0.0,0.0,0.0,0.0,0.0,0.0,0.0,0.0,0.0,0.0,0.0,0.0,0.0,0.0,0.0,0.0,0.0,0.0,0.0,0.0,0.0,0.0,0.0,0.0,0.0,0.0,0.0,0.0,0.0,0.0,0.0,0.0,0.0,0.0,0.0,0.0,0.0,0.0,0.0,0.0,0.0,0.0,0.0,0.0,0.0,0.0,0.0,0.0,0.0,0.0,0.0,0.0,0.0,0.0,0.0,0.0,0.0,0.0,0.0,0.0,0.0,0.0,0.0,0.0,0.0,0.0,0.0,0.0,0.0,0.0,0.0,0.0,0.0,0.0,0.0,0.0,0.0,0.0,0.0,0.0,0.0,0.0,0.0,0.0,0.0,0.0,0.0,0.0,0.0,0.0,0.0,0.0,0.0,0.0,0.0,0.0,0.0,0.0,0.0,0.0,0.0,0.0,0.0,0.0,0.0,0.0,0.0,0.0,0.0,0.0,0.0,0.0,0.0,0.0,0.0,0.0,0.0,0.0,0.0,0.0,0.0,0.0,0.0,0.0,0.0,0.0,0.0,0.0,0.0,0.0,0.0,0.0,0.0,0.0,0.0,0.0,0.0,0.0,0.0,0.0,0.0,0.0,0.0,0.0,0.0,0.0,0.0,0.0,0.0,0.0,0.0,0.0,0.0,0.0,0.0,0.0,0.0,0.0,0.0,0.0,0.0,0.0,0.0,0.0,0.0,0.0,0.0,0.0,0.0,0.0,0.0,0.0,0.0,0.0,0.0,0.0,0.0,0.0,0.0,0.0,0.0,0.0,0.0,0.0,0.0,0.0,0.0,0.0,0.0,0.0,0.0,0.0,0.0,0.0,0.0,0.0,0.0,0.0,0.0,0.0,0.0,0.0,0.0,0.0,0.0,0.0,0.0,0.0,0.0,0.0,0.0,0.0,0.0,0.0,0.0,0.0,0.0,0.0,0.0,0.0,0.0,0.0,0.0,0.0,0.0,0.0,0.0,0.0,0.0,0.0,0.0,0.0,0.0,0.0,0.0,0.0,0.0,0.0,0.0,0.0,0.0,0.0,0.0,0.0,0.0,0.0,0.0,0.0,0.0,0.0,0.0,0.0,0.0,0.0,0.0,0.0,0.0,0.0,0.0,0.0,0.0,0.0,0.0,0.0,0.0,0.0,0.0,0.0,0.0,0.0,0.0,0.0,0.0,0.0,0.0,0.0,0.0,0.0,0.0,0.0,0.0,0.0,0.0,0.0,0.0,0.0,0.0,0.0,0.0,0.0,0.0,0.0,0.0,-4.8202,0.0,0.0,0.0,0.0,0.0,0.0,0.0,0.0,0.0,0.0,0.0,0.0,0.0,0.0,0.0,0.0,0.0,0.0,0.0,0.0,0.0,0.0,0.0,0.0,0.0,0.0,0.0,0.0,0.0,0.0,0.0,0.0,0.0,0.0,0.0,0.0,0.0,0.0,0.0,0.0,0.0,0.0,0.0,0.0,0.0,0.0,0.0,0.0,0.0,0.0,0.0,0.0,0.0,0.0,0.0,0.0,0.0,0.0,0.0,0.0,0.0,0.0,0.0,0.0,0.0,0.0,0.0,0.0,0.0,0.0,0.0,0.0,0.0,0.0,0.0,0.0,0.0,0.0,0.0,0.0,0.0,0.0,0.0,0.0,0.0,0.0,0.0,0.0,0.0,0.0,0.0,0.0,0.0,0.0,0.0,0.0,0.0,0.0,0.0,0.0,0.0,0.0,0.0,0.0,0.0,0.0,0.0,0.0,0.0,0.0,-5.0683,-5.0683,-5.0683,-4.9904,-4.8182,0.0,0.0,0.0,0.0,0.0,0.0,0.0,0.0,0.0,0.0,0.0,0.0,0.0,0.0,0.0,0.0,0.0,0.0,0.0,0.0,0.0,0.0,0.0,0.0,0.0,0.0,0.0,0.0,0.0,0.0,0.0,0.0,0.0,0.0,0.0,0.0,0.0,0.0,0.0,0.0,0.0,0.0,0.0,0.0,0.0,0.0,0.0,0.0,0.0,0.0,0.0,0.0,0.0,0.0,0.0,0.0,0.0,0.0,0.0,0.0,0.0,0.0,0.0,0.0,0.0,0.0,0.0,0.0,0.0,0.0,0.0,0.0,0.0,0.0,0.0,0.0,0.0,0.0,0.0,0.0,0.0,0.0,0.0,0.0,0.0,0.0,0.0,0.0,0.0,0.0,0.0,0.0,0.0,0.0,0.0,0.0,0.0,0.0,0.0,0.0,0.0,0.0,0.0,0.0,0.0,0.0,0.0,0.0,0.0,0.0,0.0,0.0,-5.0683,-4.9894,-4.8163,0.0,0.0,0.0,0.0,0.0,0.0,0.0,0.0,0.0,0.0,0.0,0.0,0.0,0.0,0.0,0.0,0.0,0.0,0.0,0.0,0.0,0.0,0.0,0.0,0.0,0.0,0.0,0.0,0.0,0.0,0.0,0.0,0.0,0.0,0.0,0.0,0.0,0.0,0.0,0.0,0.0,0.0,0.0,0.0,0.0,0.0,0.0,0.0,0.0,0.0,0.0,0.0,0.0,0.0,0.0,0.0,0.0,0.0,0.0,0.0,0.0,0.0,0.0,0.0,0.0,0.0,0.0,0.0,0.0,0.0,0.0,0.0,0.0,0.0,0.0,0.0,0.0,0.0,0.0,0.0,0.0,0.0,0.0,0.0,0.0,0.0,0.0,0.0,0.0,0.0,0.0,0.0,0.0,0.0,0.0,0.0,0.0,0.0,0.0,0.0,0.0,0.0,0.0,0.0,0.0,0.0,0.0,0.0,0.0,0.0,-5.0683,-5.0683,-5.0693,0.0,-4.8202,0.0,0.0,0.0,0.0,0.0,0.0,0.0,0.0,0.0,0.0,0.0,0.0,0.0,0.0,0.0,0.0,0.0,0.0,0.0,0.0,0.0,0.0,0.0,0.0,0.0,0.0,0.0,0.0,0.0,0.0,0.0,0.0,0.0,0.0,0.0,0.0,0.0,0.0,0.0,0.0,0.0,0.0,0.0,0.0,0.0,0.0,0.0,0.0,0.0,0.0,0.0,0.0,0.0,0.0,0.0,0.0,0.0,0.0,0.0,0.0,0.0,0.0,0.0,0.0,0.0,0.0,0.0,0.0,0.0,0.0,0.0,0.0,0.0,0.0,0.0,0.0,0.0,0.0,0.0,0.0,0.0,0.0,0.0,0.0,0.0,0.0,0.0,0.0,0.0,0.0,0.0,0.0,0.0,0.0,0.0,0.0,0.0,0.0,0.0,0.0,0.0,0.0,0.0,0.0,0.0,0.0,0.0,0.0,0.0,0.0,-5.0683,-5.0683,-4.9702,-4.8836,0.0,0.0,0.0,0.0,0.0,0.0,0.0,0.0,0.0,0.0,0.0,0.0,0.0,0.0,0.0,0.0,0.0,0.0,0.0,0.0,0.0,0.0,0.0,0.0,0.0,0.0,0.0,0.0,0.0,0.0,0.0,0.0,0.0,0.0,0.0,0.0,0.0,0.0,0.0,0.0,0.0,0.0,0.0,0.0,0.0,0.0,0.0,0.0,0.0,0.0,0.0,0.0,0.0,0.0,0.0,0.0,0.0,0.0,0.0,0.0,0.0,0.0,0.0,0.0,0.0,0.0,0.0,0.0,0.0,0.0,0.0,0.0,0.0,0.0,0.0,0.0,0.0,0.0,0.0,0.0,0.0,0.0,0.0,0.0,0.0,0.0,0.0,0.0,0.0,0.0,0.0,0.0,0.0,0.0,0.0,0.0,0.0,0.0,0.0,0.0,0.0,0.0,0.0,0.0,0.0,0.0,0.0,0.0,0.0,0.0,-5.0683,-5.0683,-5.0644,-4.949,-4.8586,-4.8125,0.0,0.0,0.0,0.0,0.0,0.0,0.0,0.0,0.0,0.0,0.0,0.0,0.0,0.0,0.0,0.0,0.0,0.0,0.0,0.0,0.0,0.0,0.0,0.0,0.0,0.0,0.0,0.0,0.0,0.0,0.0,0.0,0.0,0.0,0.0,0.0,0.0,0.0,0.0,0.0,0.0,0.0,0.0,0.0,0.0,0.0,0.0,0.0,0.0,0.0,0.0,0.0,0.0,0.0,0.0,0.0,0.0,0.0,0.0,0.0,0.0,0.0,0.0,0.0,0.0,0.0,0.0,0.0,0.0,0.0,0.0,0.0,0.0,0.0,0.0,0.0,0.0,0.0,0.0,0.0,0.0,0.0,0.0,0.0,0.0,0.0,0.0,0.0,0.0,0.0,0.0,0.0,0.0,0.0,0.0,0.0,0.0,0.0,0.0,0.0,0.0,0.0,0.0,0.0,0.0,0.0,0.0,0.0,0.0,-5.0683,-5.0683,-5.0683,-5.0596,-4.9798,0.0,0.0,0.0,0.0,0.0,0.0,0.0,0.0,0.0,0.0,0.0,0.0,0.0,0.0,0.0,0.0,0.0,0.0,0.0,0.0,0.0,0.0,0.0,0.0,0.0,0.0,0.0,0.0,0.0,0.0,0.0,0.0,0.0,0.0,0.0,0.0,0.0,0.0,0.0,0.0,0.0,0.0,0.0,0.0,0.0,0.0,0.0,0.0,0.0,0.0,0.0,0.0,0.0,0.0,0.0,0.0,0.0,0.0,0.0,0.0,0.0,0.0,0.0,0.0,0.0,0.0,0.0,0.0,0.0,0.0,0.0,0.0,0.0,0.0,0.0,0.0,0.0,0.0,0.0,0.0,0.0,0.0,0.0,0.0,0.0,0.0,0.0,0.0,0.0,0.0,0.0,0.0,0.0,0.0,0.0,0.0,0.0,0.0,0.0,0.0,0.0,0.0,0.0,0.0,0.0,0.0,0.0,0.0,0.0,-5.0683,-5.0683,-5.0683,-5.0673,-4.9625,-4.8509,0.0,0.0,0.0,0.0,0.0,0.0,0.0,0.0,0.0,0.0,0.0,0.0,0.0,0.0,0.0,0.0,0.0,0.0,0.0,0.0,0.0,0.0,0.0,0.0,0.0,0.0,0.0,0.0,0.0,0.0,0.0,0.0,0.0,0.0,0.0,0.0,0.0,0.0,0.0,0.0,0.0,0.0,0.0,0.0,0.0,0.0,0.0,0.0,0.0,0.0,0.0,0.0,0.0,0.0,0.0,0.0,0.0,0.0,0.0,0.0,0.0,0.0,0.0,0.0,0.0,0.0,0.0,0.0,0.0,0.0,0.0,0.0,0.0,0.0,0.0,0.0,0.0,0.0,0.0,0.0,0.0,0.0,0.0,0.0,0.0,0.0,0.0,0.0,0.0,0.0,0.0,0.0,0.0,0.0,0.0,0.0,0.0,0.0,0.0,0.0,0.0,0.0,0.0,0.0,0.0,0.0,0.0,0.0,0.0,-5.0683,0.0,-5.0683,0.0,-4.9279,-4.8125,0.0,0.0,0.0,0.0,0.0,0.0,0.0,0.0,0.0,0.0,0.0,0.0,0.0,0.0,0.0,0.0,0.0,0.0,0.0,0.0,0.0,0.0,0.0,0.0,0.0,0.0,0.0,0.0,0.0,0.0,0.0,0.0,0.0,0.0,0.0,0.0,0.0,0.0,0.0,0.0,0.0,0.0,0.0,0.0,0.0,0.0,0.0,0.0,0.0,0.0,0.0,0.0,0.0,0.0,0.0,0.0,0.0,0.0,0.0,0.0,0.0,0.0,0.0,0.0,0.0,0.0,0.0,0.0,0.0,0.0,0.0,0.0,0.0,0.0,0.0,0.0,0.0,0.0,0.0,0.0,0.0,0.0,0.0,0.0,0.0,0.0,0.0,0.0,0.0,0.0,0.0,0.0,0.0,0.0,0.0,0.0,0.0,0.0,0.0,0.0,0.0,0.0,0.0,0.0,0.0,0.0,0.0,0.0,-5.0683,-5.0683,-5.0683,-5.0683,-5.0673,-4.9798,-4.8933,0.0,0.0,0.0,0.0,0.0,0.0,0.0,0.0,0.0,0.0,0.0,0.0,0.0,0.0,0.0,0.0,0.0,0.0,0.0,0.0,0.0,0.0,0.0,0.0,0.0,0.0,0.0,0.0,0.0,0.0,0.0,0.0,0.0,0.0,0.0,0.0,0.0,0.0,0.0,0.0,0.0,0.0,0.0,0.0,0.0,0.0,0.0,0.0,0.0,0.0,0.0,0.0,0.0,0.0,0.0,0.0,0.0,0.0,0.0,0.0,0.0,0.0,0.0,0.0,0.0,0.0,0.0,0.0,0.0,0.0,0.0,0.0,0.0,0.0,0.0,0.0,0.0,0.0,0.0,0.0,0.0,0.0,0.0,0.0,0.0,0.0,0.0,0.0,0.0,0.0,0.0,0.0,0.0,0.0,0.0,0.0,0.0,0.0,0.0,0.0,0.0,0.0,0.0,0.0,0.0,0.0,0.0,0.0,0.0,-5.0683,-5.0683,-5.0683,-5.0654,-4.9279,-4.8125,0.0,0.0,0.0,0.0,0.0,0.0,0.0,0.0,0.0,0.0,0.0,0.0,0.0,0.0,0.0,0.0,0.0,0.0,0.0,0.0,0.0,0.0,0.0,0.0,0.0,0.0,0.0,0.0,0.0,0.0,0.0,0.0,0.0,0.0,0.0,0.0,0.0,0.0,0.0,0.0,0.0,0.0,0.0,0.0,0.0,0.0,0.0,0.0,0.0,0.0,0.0,0.0,0.0,0.0,0.0,0.0,0.0,0.0,0.0,0.0,0.0,0.0,0.0,0.0,0.0,0.0,0.0,0.0,0.0,0.0,0.0,0.0,0.0,0.0,0.0,0.0,0.0,0.0,0.0,0.0,0.0,0.0,0.0,0.0,0.0,0.0,0.0,0.0,0.0,0.0,0.0,0.0,0.0,0.0,0.0,0.0,0.0,0.0,0.0,0.0,0.0,0.0,0.0,0.0,0.0,0.0,0.0,0.0,0.0,-5.0924,-5.1075,-5.1144,-5.1144,-4.9798,-4.8509,-4.7375,0.0,0.0,0.0,0.0,0.0,0.0,0.0,0.0,0.0,0.0,0.0,0.0,0.0,0.0,0.0,0.0,0.0,0.0,0.0,0.0,0.0,0.0,0.0,0.0,0.0,0.0,0.0,0.0,0.0,0.0,0.0,0.0,0.0,0.0,0.0,0.0,0.0,0.0,0.0,0.0,0.0,0.0,0.0,0.0,0.0,0.0,0.0,0.0,0.0,0.0,0.0,0.0,0.0,0.0,0.0,0.0,0.0,0.0,0.0,0.0,0.0,0.0,0.0,0.0,0.0,0.0,0.0,0.0,0.0,0.0,0.0,0.0,0.0,0.0,0.0,0.0,0.0,0.0,0.0,0.0,0.0,0.0,0.0,0.0,0.0,0.0,0.0,0.0,0.0,0.0,0.0,0.0,0.0,0.0,0.0,0.0,0.0,0.0,0.0,0.0,0.0,0.0,0.0,0.0,0.0,0.0,0.0,0.0,-5.1363,-5.1796,-5.1999,-5.1962,-5.1125,-4.9913,0.0,0.0,0.0,0.0,0.0,0.0,0.0,0.0,0.0,0.0,0.0,0.0,0.0,0.0,0.0,0.0,0.0,0.0,0.0,0.0,0.0,0.0,0.0,0.0,0.0,0.0,0.0,0.0,0.0,0.0,0.0,0.0,0.0,0.0,0.0,0.0,0.0,0.0,0.0,0.0,0.0,0.0,0.0,0.0,0.0,0.0,0.0,0.0,0.0,0.0,0.0,0.0,0.0,0.0,0.0,0.0,0.0,0.0,0.0,0.0,0.0,0.0,0.0,0.0,0.0,0.0,0.0,0.0,0.0,0.0,0.0,0.0,0.0,0.0,0.0,0.0,0.0,0.0,0.0,0.0,0.0,0.0,0.0,0.0,0.0,0.0,0.0,0.0,0.0,0.0,0.0,0.0,0.0,0.0,0.0,0.0,0.0,0.0,0.0,0.0,0.0,0.0,0.0,0.0,0.0,0.0,0.0,0.0,0.0,-5.2241,-5.2945,-5.3165,-5.2846,-5.1471,-5.0183,0.0,0.0,0.0,0.0,0.0,0.0,0.0,0.0,0.0,0.0,0.0,0.0,0.0,0.0,0.0,0.0,0.0,0.0,0.0,0.0,0.0,0.0,0.0,0.0,0.0,0.0,0.0,0.0,0.0,0.0,0.0,0.0,0.0,0.0,0.0,0.0,0.0,0.0,0.0,0.0,0.0,0.0,0.0,0.0,0.0,0.0,0.0,0.0,0.0,0.0,0.0,0.0,0.0,0.0,0.0,0.0,0.0,0.0,0.0,0.0,0.0,0.0,0.0,0.0,0.0,0.0,0.0,0.0,0.0,0.0,0.0,0.0,0.0,0.0,0.0,0.0,0.0,0.0,0.0,0.0,0.0,0.0,0.0,0.0,0.0,0.0,0.0,0.0,0.0,0.0,0.0,0.0,0.0,0.0,0.0,0.0,0.0,0.0,0.0,0.0,0.0,0.0,0.0,0.0,0.0,0.0,0.0,0.0,-5.1347,-5.2095,-5.3414,-5.4001,-5.3741,-5.2442,-5.1183,0.0,0.0,0.0,0.0,0.0,0.0,0.0,0.0,0.0,0.0,0.0,0.0,0.0,0.0,0.0,0.0,0.0,0.0,0.0,0.0,0.0,0.0,0.0,0.0,0.0,0.0,0.0,0.0,0.0,0.0,0.0,0.0,0.0,0.0,0.0,0.0,0.0,0.0,0.0,0.0,0.0,0.0,0.0,0.0,0.0,0.0,0.0,0.0,0.0,0.0,0.0,0.0,0.0,0.0,0.0,0.0,0.0,0.0,0.0,0.0,0.0,0.0,0.0,0.0,0.0,0.0,0.0,0.0,0.0,0.0,0.0,0.0,0.0,0.0,0.0,0.0,0.0,0.0,0.0,0.0,0.0,0.0,0.0,0.0,0.0,0.0,0.0,0.0,0.0,0.0,0.0,0.0,0.0,0.0,0.0,0.0,0.0,0.0,0.0,0.0,0.0,0.0,0.0,0.0,0.0,0.0,0.0,0.0,-5.1375,-5.1428,-5.3376,-5.4436,-5.4481,-5.3607,-5.2354,0.0,0.0,0.0,0.0,0.0,0.0,0.0,0.0,0.0,0.0,0.0,0.0,0.0,0.0,0.0,0.0,0.0,0.0,0.0,0.0,0.0,0.0,0.0,0.0,0.0,0.0,0.0,0.0,0.0,0.0,0.0,0.0,0.0,0.0,0.0,0.0,0.0,0.0,0.0,0.0,0.0,0.0,0.0,0.0,0.0,0.0,0.0,0.0,0.0,0.0,0.0,0.0,0.0,0.0,0.0,0.0,0.0,0.0,0.0,0.0,0.0,0.0,0.0,0.0,0.0,0.0,0.0,0.0,0.0,0.0,0.0,0.0,0.0,0.0,0.0,0.0,0.0,0.0,0.0,0.0,0.0,0.0,0.0,0.0,0.0,0.0,0.0,0.0,0.0,0.0,0.0,0.0,0.0,0.0,0.0,0.0,0.0,0.0,0.0,0.0,0.0,0.0,0.0,0.0,0.0,0.0,0.0,0.0,-5.1082,-5.1429,-5.3084,-5.4118,-5.4503,-5.3354,-5.1914,0.0,0.0,0.0,0.0,0.0,0.0,0.0,0.0,0.0,0.0,0.0,0.0,0.0,0.0,0.0,0.0,0.0,0.0,0.0,0.0,0.0,0.0,0.0,0.0,0.0,0.0,0.0,0.0,0.0,0.0,0.0,0.0,0.0,0.0,0.0,0.0,0.0,0.0,0.0,0.0,0.0,0.0,0.0,0.0,0.0,0.0,0.0,0.0,-4.9205,0.0,0.0,0.0,0.0,0.0,0.0,0.0,0.0,0.0,0.0,0.0,0.0,0.0,0.0,0.0,0.0,0.0,0.0,0.0,0.0,0.0,0.0,0.0,0.0,0.0,0.0,0.0,0.0,0.0,0.0,0.0,0.0,0.0,0.0,0.0,0.0,0.0,0.0,0.0,0.0,0.0,0.0,0.0,0.0,0.0,0.0,0.0,0.0,0.0,0.0,0.0,0.0,0.0,0.0,0.0,0.0,0.0,0.0,0.0,-5.1071,-5.1693,-5.2877,-5.3624,-5.3832,-5.3034,-5.193,0.0,0.0,0.0,0.0,0.0,0.0,0.0,0.0,0.0,0.0,0.0,0.0,0.0,0.0,0.0,0.0,0.0,0.0,0.0,0.0,0.0,0.0,0.0,0.0,0.0,0.0,0.0,0.0,0.0,0.0,0.0,0.0,0.0,0.0,0.0,0.0,0.0,0.0,0.0,0.0,0.0,0.0,0.0,0.0,0.0,0.0,0.0,0.0,0.0,0.0,0.0,0.0,0.0,0.0,0.0,0.0,0.0,0.0,0.0,0.0,0.0,0.0,0.0,0.0,0.0,0.0,0.0,0.0,0.0,0.0,0.0,0.0,0.0,0.0,0.0,0.0,0.0,0.0,0.0,0.0,0.0,0.0,0.0,0.0,0.0,0.0,0.0,0.0,0.0,0.0,0.0,0.0,0.0,0.0,0.0,0.0,0.0,0.0,0.0,0.0,0.0,0.0,0.0,0.0,0.0,0.0,0.0,-5.0251,-5.1059,-5.1977,-5.2784,-5.3185,-5.3188,-5.2562,-5.1877,-5.1131,0.0,0.0,0.0,0.0,0.0,0.0,0.0,0.0,0.0,0.0,0.0,0.0,0.0,0.0,0.0,0.0,0.0,0.0,0.0,0.0,0.0,0.0,0.0,0.0,0.0,0.0,0.0,0.0,0.0,0.0,0.0,0.0,0.0,0.0,0.0,0.0,0.0,0.0,-4.6581,-4.6689,0.0,0.0,0.0,0.0,0.0,0.0,0.0,0.0,-4.8433,0.0,0.0,0.0,0.0,0.0,0.0,0.0,0.0,0.0,0.0,0.0,0.0,0.0,0.0,0.0,0.0,0.0,0.0,0.0,0.0,0.0,0.0,0.0,0.0,0.0,0.0,0.0,0.0,0.0,0.0,0.0,0.0,0.0,0.0,0.0,0.0,0.0,0.0,0.0,0.0,0.0,0.0,0.0,0.0,0.0,0.0,0.0,0.0,0.0,0.0,0.0,0.0,0.0,0.0,0.0,0.0,-4.9574,-4.9684,-5.0435,-5.1958,-5.2784,-5.3185,-5.3167,-5.182,-5.0823,-5.0355,0.0,0.0,0.0,0.0,0.0,0.0,0.0,0.0,0.0,0.0,0.0,0.0,0.0,0.0,0.0,0.0,0.0,0.0,0.0,0.0,0.0,0.0,0.0,0.0,0.0,0.0,0.0,0.0,0.0,0.0,0.0,0.0,0.0,0.0,0.0,0.0,0.0,0.0,0.0,-4.7969,-4.8234,0.0,0.0,0.0,0.0,0.0,0.0,0.0,0.0,-4.8388,0.0,0.0,0.0,0.0,0.0,0.0,0.0,0.0,0.0,0.0,0.0,0.0,0.0,0.0,0.0,0.0,0.0,0.0,0.0,0.0,0.0,0.0,0.0,0.0,0.0,0.0,0.0,0.0,0.0,0.0,0.0,0.0,0.0,0.0,0.0,0.0,0.0,0.0,0.0,0.0,0.0,0.0,0.0,0.0,0.0,0.0,0.0,0.0,0.0,0.0,0.0,0.0,0.0,0.0,0.0,-4.9499,-4.9958,-5.0967,-5.2564,-5.3004,-5.3185,-5.3148,-5.1646,-5.0498,0.0,0.0,0.0,0.0,0.0,0.0,0.0,0.0,0.0,0.0,0.0,0.0,0.0,0.0,0.0,0.0,0.0,0.0,0.0,0.0,0.0,0.0,0.0,0.0,0.0,0.0,0.0,0.0,0.0,0.0,0.0,0.0,0.0,0.0,0.0,0.0,0.0,0.0,0.0,0.0,-4.7754,-4.801,-4.8789,0.0,0.0,0.0,0.0,0.0,0.0,-4.7864,-4.7833,0.0,0.0,0.0,0.0,0.0,0.0,0.0,0.0,0.0,0.0,0.0,0.0,0.0,0.0,0.0,0.0,0.0,0.0,0.0,0.0,0.0,0.0,0.0,0.0,0.0,0.0,0.0,0.0,0.0,0.0,0.0,0.0,0.0,0.0,0.0,0.0,0.0,0.0,0.0,0.0,0.0,0.0,0.0,0.0,0.0,0.0,0.0,0.0,0.0,0.0,0.0,0.0,0.0,0.0,0.0,-4.9125,-4.9958,-5.1206,-5.2867,-5.3124,-5.3133,-5.2949,-5.1555,-5.0343,0.0,0.0,0.0,0.0,0.0,0.0,0.0,0.0,0.0,0.0,0.0,0.0,0.0,0.0,0.0,0.0,0.0,0.0,0.0,0.0,0.0,0.0,0.0,0.0,0.0,0.0,0.0,0.0,0.0,0.0,0.0,0.0,0.0,0.0,0.0,0.0,0.0,0.0,0.0,0.0,0.0,-4.8027,-4.9561,-4.8615,0.0,0.0,0.0,0.0,-4.6944,-4.7561,0.0,0.0,0.0,0.0,0.0,0.0,0.0,0.0,0.0,0.0,0.0,0.0,0.0,0.0,0.0,0.0,0.0,0.0,0.0,0.0,0.0,0.0,0.0,0.0,0.0,0.0,0.0,0.0,0.0,0.0,0.0,0.0,0.0,0.0,0.0,0.0,0.0,0.0,0.0,0.0,0.0,0.0,0.0,0.0,0.0,0.0,0.0,0.0,0.0,0.0,0.0,0.0,0.0,0.0,0.0,0.0,-4.7832,-4.8551,-4.9951,-5.2121,-5.2835,-5.2858,-5.2142,-5.1279,-5.0068,0.0,0.0,0.0,0.0,0.0,0.0,0.0,0.0,0.0,0.0,0.0,0.0,0.0,0.0,0.0,0.0,0.0,0.0,0.0,0.0,0.0,0.0,0.0,0.0,0.0,0.0,0.0,0.0,0.0,0.0,0.0,0.0,0.0,0.0,0.0,0.0,0.0,0.0,0.0,0.0,0.0,-4.9574,-4.9192,-4.8412,-4.7645,0.0,0.0,-4.784,-4.7751,-4.8927,0.0,0.0,0.0,0.0,0.0,0.0,0.0,0.0,0.0,0.0,0.0,0.0,0.0,0.0,0.0,0.0,0.0,0.0,0.0,0.0,0.0,0.0,0.0,0.0,0.0,0.0,0.0,0.0,0.0,0.0,0.0,0.0,0.0,0.0,0.0,0.0,0.0,0.0,0.0,0.0,0.0,0.0,0.0,0.0,0.0,0.0,0.0,0.0,0.0,0.0,0.0,0.0,0.0,0.0,0.0,-4.5515,-4.695,-4.8117,-4.9436,-5.0854,-5.1555,-5.1526,-5.0765,-4.9852,-4.904,0.0,0.0,0.0,0.0,0.0,0.0,0.0,0.0,0.0,0.0,0.0,0.0,0.0,0.0,0.0,0.0,0.0,0.0,0.0,0.0,0.0,0.0,0.0,0.0,0.0,0.0,0.0,0.0,0.0,0.0,0.0,0.0,0.0,0.0,0.0,0.0,0.0,0.0,0.0,0.0,0.0,0.0,-4.9035,-4.8731,0.0,0.0,0.0,-4.7906,-4.7906,0.0,0.0,0.0,0.0,0.0,0.0,0.0,0.0,0.0,0.0,0.0,0.0,0.0,0.0,0.0,0.0,0.0,0.0,0.0,0.0,0.0,0.0,0.0,0.0,0.0,0.0,0.0,0.0,0.0,0.0,0.0,0.0,0.0,0.0,0.0,0.0,0.0,0.0,0.0,0.0,0.0,0.0,0.0,0.0,0.0,0.0,0.0,0.0,0.0,0.0,0.0,0.0,0.0,0.0,0.0,0.0,0.0,-4.5684,-4.7392,-4.8673,-4.9413,-5.0079,-5.0047,-4.9302,-4.8539,0.0,0.0,0.0,0.0,0.0,0.0,0.0,0.0,0.0,0.0,0.0,0.0,0.0,0.0,0.0,0.0,0.0,0.0,0.0,0.0,0.0,0.0,0.0,0.0,0.0,0.0,0.0,-3.706,0.0,0.0,0.0,0.0,0.0,0.0,0.0,0.0,0.0,0.0,0.0,0.0,0.0,0.0,-4.8763,-4.8354,-4.8465,-4.8759,0.0,0.0,-4.8227,-4.8443,-4.9407,-4.9441,0.0,0.0,0.0,0.0,0.0,0.0,0.0,0.0,0.0,0.0,0.0,0.0,0.0,0.0,0.0,0.0,0.0,0.0,0.0,0.0,0.0,0.0,0.0,0.0,0.0,0.0,0.0,0.0,0.0,0.0,0.0,0.0,0.0,0.0,0.0,0.0,0.0,0.0,0.0,0.0,0.0,0.0,0.0,0.0,0.0,0.0,0.0,0.0,0.0,0.0,0.0,0.0,0.0,0.0,0.0,-4.3634,-4.5734,-4.7203,-4.7933,-4.8655,-4.8649,-4.7879,-4.7767,-4.6369,0.0,0.0,0.0,0.0,0.0,0.0,0.0,0.0,0.0,0.0,0.0,0.0,0.0,0.0,0.0,0.0,0.0,0.0,0.0,0.0,0.0,0.0,0.0,0.0,0.0,0.0,0.0,0.0,0.0,0.0,0.0,0.0,0.0,0.0,0.0,0.0,0.0,0.0,0.0,0.0,0.0,-4.8094,-4.6585,-4.707,-4.81,0.0,0.0,-4.9171,-4.983,-5.1758,-5.1978,-4.8396,0.0,0.0,0.0,0.0,0.0,0.0,0.0,0.0,0.0,0.0,0.0,0.0,0.0,0.0,0.0,0.0,0.0,0.0,0.0,0.0,0.0,0.0,0.0,0.0,0.0,0.0,0.0,0.0,0.0,0.0,0.0,0.0,0.0,0.0,0.0,0.0,0.0,0.0,0.0,0.0,0.0,0.0,0.0,0.0,0.0,0.0,0.0,0.0,0.0,0.0,0.0,0.0,0.0,-4.1931,-4.3375,-4.5182,-4.6208,-4.6526,-4.715,-4.7114,-4.6355,-4.6716,-4.5675,0.0,0.0,0.0,0.0,0.0,0.0,0.0,0.0,0.0,0.0,0.0,0.0,0.0,0.0,0.0,0.0,0.0,0.0,0.0,0.0,0.0,0.0,0.0,0.0,0.0,0.0,0.0,0.0,-3.8036,-3.7935,-3.8428,0.0,0.0,0.0,0.0,0.0,0.0,0.0,0.0,0.0,0.0,-4.7026,-4.6813,-4.7412,0.0,0.0,-4.8868,-4.8413,-4.8353,-4.9555,-4.9543,-4.686,-4.6277,0.0,0.0,0.0,0.0,0.0,0.0,0.0,0.0,0.0,0.0,0.0,0.0,0.0,0.0,0.0,0.0,0.0,0.0,0.0,0.0,0.0,0.0,0.0,0.0,0.0,0.0,0.0,0.0,0.0,0.0,0.0,0.0,0.0,0.0,0.0,0.0,0.0,0.0,0.0,0.0,0.0,0.0,0.0,0.0,0.0,0.0,0.0,0.0,0.0,0.0,0.0,0.0,-4.1813,-4.3081,-4.4604,-4.5365,-4.5365,-4.5785,-4.5765,-4.5266,-4.5648,-4.4799,0.0,0.0,0.0,0.0,0.0,0.0,0.0,0.0,0.0,0.0,0.0,0.0,0.0,0.0,0.0,0.0,0.0,0.0,0.0,0.0,0.0,0.0,0.0,0.0,0.0,0.0,0.0,0.0,-3.7988,-3.7482,-3.7836,0.0,0.0,0.0,0.0,0.0,0.0,0.0,0.0,0.0,0.0,-4.595,-4.5803,-4.6518,-4.733,-4.8155,-4.7521,-4.7017,-4.7285,-4.785,-4.7598,-4.5701,0.0,0.0,0.0,0.0,0.0,0.0,0.0,0.0,0.0,0.0,0.0,0.0,0.0,0.0,0.0,0.0,0.0,0.0,0.0,0.0,0.0,0.0,0.0,0.0,0.0,0.0,0.0,0.0,0.0,0.0,-4.1147,0.0,0.0,0.0,0.0,0.0,0.0,0.0,0.0,0.0,0.0,0.0,0.0,0.0,0.0,0.0,0.0,0.0,0.0,0.0,0.0,0.0,0.0,-4.1516,-4.2337,-4.3781,-4.4559,-4.4575,-4.4632,-4.4615,-4.4626,-4.4609,-4.3542,-4.1298,0.0,0.0,0.0,0.0,0.0,0.0,0.0,0.0,0.0,0.0,0.0,0.0,0.0,0.0,0.0,0.0,0.0,0.0,0.0,0.0,0.0,0.0,0.0,0.0,0.0,0.0,-3.8782,-3.7492,-3.6337,0.0,0.0,0.0,0.0,0.0,0.0,0.0,0.0,0.0,0.0,-4.3488,-4.4834,-4.2853,-4.377,-4.5084,-4.5903,-4.5049,-4.501,-4.7032,-4.7377,-4.6927,0.0,0.0,0.0,0.0,0.0,0.0,0.0,0.0,0.0,0.0,0.0,0.0,0.0,0.0,0.0,0.0,0.0,0.0,0.0,0.0,0.0,0.0,0.0,0.0,0.0,0.0,0.0,-4.2064,-4.1349,0.0,0.0,0.0,0.0,0.0,0.0,0.0,0.0,0.0,0.0,0.0,-3.9763,-3.9586,0.0,0.0,0.0,0.0,0.0,0.0,0.0,0.0,0.0,0.0,0.0,0.0,-3.9744,-4.1377,-4.1937,-4.2419,-4.2876,-4.3426,-4.371,-4.3756,-4.3794,-4.2523,-3.9817,0.0,0.0,0.0,0.0,0.0,0.0,0.0,0.0,0.0,0.0,0.0,0.0,0.0,0.0,0.0,0.0,0.0,0.0,0.0,0.0,0.0,0.0,0.0,0.0,0.0,-3.8434,0.0,0.0,0.0,0.0,0.0,0.0,0.0,0.0,0.0,0.0,0.0,-3.9833,-4.0425,-4.1805,-4.2727,-4.2434,-4.3545,-4.4648,0.0,0.0,0.0,0.0,0.0,0.0,0.0,0.0,0.0,0.0,0.0,0.0,0.0,0.0,-4.4255,-4.3604,-4.2693,-4.22,-4.2663,0.0,0.0,0.0,0.0,0.0,0.0,0.0,0.0,0.0,0.0,0.0,0.0,0.0,0.0,-4.1198,0.0,-4.0079,0.0,0.0,0.0,0.0,0.0,0.0,0.0,0.0,-3.9389,-3.9685,-3.9652,-3.9418,-3.931,0.0,-3.8388,-3.7482,0.0,0.0,0.0,0.0,0.0,0.0,0.0,0.0,-3.8888,-4.0196,-4.051,-4.086,-4.1292,-4.1868,-4.2141,-4.2141,-4.1939,-4.0801,-3.8664,-3.741,-3.6298,0.0,0.0,0.0,0.0,0.0,0.0,0.0,0.0,0.0,0.0,0.0,0.0,0.0,0.0,0.0,0.0,0.0,0.0,0.0,0.0,0.0,0.0,0.0,-3.7501,0.0,0.0,0.0,0.0,0.0,0.0,0.0,0.0,0.0,-3.8626,-3.8945,-3.9574,-4.0905,-4.1654,-4.2058,-4.2051,0.0,0.0,0.0,0.0,0.0,0.0,0.0,-4.341,-4.2967,-4.315,-4.3517,-4.4144,-4.4463,-4.4571,-4.4362,0.0,0.0,-4.4487,-4.3754,-4.3329,-4.3588,-4.3483,-4.341,-4.3628,-4.3696,-4.3519,0.0,0.0,0.0,0.0,0.0,0.0,0.0,0.0,-4.0944,-4.0546,0.0,-3.9815,0.0,0.0,0.0,0.0,0.0,-3.7927,0.0,0.0,-3.9056,-3.9394,-3.9385,-3.8756,-3.8457,-3.8422,-3.8382,-3.7708,-3.6595,-3.6638,0.0,0.0,0.0,0.0,0.0,0.0,-3.8827,-3.8907,-3.9502,-3.9868,-3.9916,-3.9977,-3.9991,-3.9973,-3.9317,-3.8598,-3.779,-3.707,-3.6066,-3.4707,-3.4638,0.0,0.0,0.0,0.0,0.0,0.0,0.0,0.0,0.0,0.0,0.0,0.0,0.0,0.0,0.0,0.0,0.0,0.0,0.0,0.0,-3.7804,0.0,0.0,0.0,0.0,0.0,0.0,0.0,0.0,0.0,0.0,-3.909,-3.9801,-4.0756,-4.2126,0.0,0.0,0.0,0.0,-4.207,-4.1556,-4.0928,-4.1047,-4.241,-4.3,-4.3374,-4.3389,0.0,0.0,-4.5424,-4.5334,-4.5185,-4.4556,-4.5529,-4.6142,-4.548,-4.4858,-4.4233,-4.3693,-4.3142,-4.2359,-4.1752,-4.2047,-4.1896,-4.2267,0.0,0.0,0.0,0.0,-4.1082,-4.129,-4.1925,-4.1452,-4.0858,-4.0217,-3.973,0.0,0.0,0.0,0.0,0.0,0.0,-3.7989,-3.8377,-3.8601,-3.8945,-3.9409,-3.9215,-3.9125,-3.908,-3.8138,-3.7509,-3.7124,-3.6258,-3.5876,-3.5917,0.0,0.0,0.0,0.0,-3.6951,-3.7872,-3.7664,-3.7711,-3.8137,-3.8742,-3.9108,-3.9209,-3.9031,-3.8299,-3.7073,-3.6789,-3.6278,-3.5345,-3.4856,0.0,0.0,0.0,0.0,0.0,0.0,0.0,0.0,0.0,0.0,0.0,0.0,0.0,0.0,0.0,0.0,0.0,0.0,0.0,-3.639,-3.6595,-3.6432,0.0,0.0,0.0,0.0,0.0,0.0,0.0,0.0,0.0,-3.8286,-3.783,-3.8299,0.0,0.0,-3.84,-3.8777,-3.9433,-4.0328,-4.1532,-4.2158,0.0,0.0,-4.4541,-4.4197,-4.4646,-4.5633,-4.6204,-4.6052,-4.6411,-4.6666,-4.6441,-4.6756,-4.6965,-4.6741,-4.6202,-4.5636,-4.5469,-4.493,-4.4421,-4.4227,-4.4167,-4.4137,-4.2257,-4.143,-4.1009,-4.1025,-4.1377,-4.0965,-4.11,-4.1564,-4.116,-4.0382,-3.9342,-3.8944,-3.7974,-3.6541,-3.6294,0.0,0.0,0.0,-3.6939,-3.752,-3.7535,-3.7738,-3.8101,-3.792,-3.7818,-3.776,-3.6758,-3.6154,-3.5907,-3.5116,-3.4493,-3.4085,0.0,0.0,-3.6235,-3.5784,-3.5919,-3.6699,-3.6321,-3.6282,-3.6656,-3.7175,-3.7462,-3.7545,-3.756,-3.7123,-3.6267,-3.6236,-3.5895,-3.5196,-3.4774,-3.4506,0.0,0.0,0.0,0.0,0.0,0.0,0.0,0.0,0.0,0.0,0.0,-3.5447,-3.4682,0.0,0.0,0.0,-3.5729,-3.6148,-3.5923,-3.6333,0.0,0.0,0.0,0.0,0.0,0.0,0.0,-3.6999,-3.6613,-3.6688,-3.7813,-3.6616,-3.6729,-3.9787,-3.8517,-3.7505,-3.8122,0.0,-3.9297,-4.0449,-4.1171,-4.2138,-4.3487,-4.3296,-4.3136,-4.3818,-4.4254,-4.4704,-4.5224,-4.5783,-4.6281,-4.6478,-4.6726,-4.683,-4.6561,-4.6187,-4.5918,-4.5903,-4.5379,-4.4855,-4.4571,-4.4511,-4.4586,-4.2397,-4.1373,-4.1234,-4.1201,-4.1201,-4.1156,-4.0784,-4.0248,-4.0234,-3.9295,-3.7787,-3.7749,-3.6844,-3.5344,-3.473,0.0,-3.5372,-3.5386,-3.5659,-3.6129,-3.6129,-3.6101,-3.6032,-3.556,-3.5363,-3.5335,-3.4792,-3.4233,-3.3664,-3.3573,-3.2905,-3.1785,-3.4084,-3.5231,-3.5172,-3.5216,-3.5279,-3.5246,-3.5261,-3.5294,-3.5374,-3.5392,-3.5439,-3.5519,-3.5489,-3.5489,-3.5489,-3.5489,-3.522,-3.4623,-3.4533,-3.3918,-3.2721,0.0,0.0,0.0,0.0,0.0,0.0,0.0,0.0,0.0,0.0,0.0,0.0,0.0,0.0,0.0,-3.6406,0.0,-3.6395,-3.6488,0.0,0.0,0.0,-3.4114,-3.36,-3.4934,-3.5948,-3.603,0.0,0.0,-3.7573,-3.6004,-3.5987,-3.9179,-3.9018,-3.8579,-3.8664,-3.8634,-3.873,-3.8927,-3.8982,-3.9286,-4.0477,-4.0882,-4.1371,-4.1917,-4.1789,-4.234,-4.3298,-4.3933,-4.4502,-4.4894,-4.5503,-4.5699,-4.5144,-4.4857,-4.4935,-4.4992,-4.4654,-4.4167,-4.3663,-4.3529,-4.3723,-4.0294,-3.962,-3.9577,-3.9575,-3.9547,-3.904,-3.8758,-3.8712,-3.8752,-3.8199,-3.7344,-3.733,-3.6823,-3.5991,-3.5813,-3.5827,-3.6004,-3.5991,-3.5839,-3.5601,-3.5601,-3.5391,-3.4986,-3.4847,-3.4778,-3.4736,-3.4141,-3.3767,-3.3586,-3.3071,-3.2676,-3.24,-3.2975,-3.3016,-3.2545,-3.305,-3.329,-3.329,-3.329,-3.3636,-3.4327,-3.4361,-3.4725,-3.5457,-3.5489,-3.5489,-3.5489,-3.5489,-3.5429,-3.5265,-3.4788,-3.4354,-3.4008,-3.3066,0.0,0.0,0.0,0.0,0.0,0.0,0.0,0.0,0.0,-3.4322,-3.205,0.0,-3.4692,0.0,-3.4323,-3.4983,-3.4843,-3.4859,0.0,0.0,-3.4689,-3.4647,-3.5416,-3.4805,-3.4632,-3.5552,-3.496,-3.4876,-3.5962,-3.5649,-3.5777,-3.7047,-3.6347,-3.6002,-3.6777,-3.6992,-3.7345,-3.8264,-3.9072,-4.0062,-4.0948,-4.147,-4.1536,-4.1747,-4.1775,-4.1879,-4.215,-4.2365,-4.2511,-4.2594,-4.2754,-4.281,-4.2699,-4.2229,-4.228,-4.3066,-4.3773,-4.4272,-4.4067,-4.4022,-4.4122,-3.9006,-3.8204,-3.7989,-3.7432,-3.6804,-3.77,-3.7938,-3.7771,-3.7771,-3.7153,-3.6062,-3.5583,-3.5161,-3.4788,-3.4551,-3.4418,-3.4418,-3.4166,-3.3887,-3.3635,-3.3621,-3.3462,-3.3182,-3.2942,-3.2823,-3.2809,-3.2224,-3.1894,-3.1867,-3.1538,-3.1341,-3.1328,-3.1341,-3.1182,-3.0891,-3.1978,-3.2593,-3.2593,-3.2593,-3.2841,-3.3345,-3.338,-3.3636,-3.4158,-3.4192,-3.4192,-3.4192,-3.4192,-3.4409,-3.4791,-3.4486,-3.4147,-3.3868,-3.3174,-3.2428,0.0,0.0,0.0,0.0,0.0,0.0,0.0,0.0,0.0,0.0,0.0,-3.3807,-3.2963,-3.3991,-3.473,-3.473,-3.4592,-3.4616,-3.4967,-3.4286,-3.4032,-3.4735,-3.4197,-3.4169,-3.5033,-3.4851,-3.4964,-3.5793,-3.5918,-3.6019,-3.6367,-3.5843,-3.5658,-3.6218,-3.6387,-3.6662,-3.7348,-3.7945,-3.8522,-3.9336,-3.9382,-3.9428,-3.9382,-3.9368,-3.9553,-4.0055,-4.0409,-4.0686,-4.0904,-4.1176,-4.1245,-4.101,-4.0661,-4.0632,-4.1254,-4.1923,-4.2665,-4.3611,-4.3434,-4.3275,-3.7876,-3.6823,-3.6367,-3.5249,-3.3985,-3.6483,-3.7236,-3.6675,-3.6675,-3.5858,-3.4415,-3.3437,-3.2968,-3.293,-3.2365,-3.2102,-3.2077,-3.1612,-3.1348,-3.1298,-3.1286,-3.126,-3.1173,-3.0733,-3.0507,-3.0482,-3.0018,-2.9779,-2.9779,-2.9779,-2.9779,-2.9779,-2.9779,-2.9779,-2.9856,-3.1439,-3.2249,-3.2249,-3.2249,-3.2272,-3.2429,-3.2415,-3.2486,-3.2607,-3.2593,-3.2593,-3.2593,-3.2593,-3.2996,-3.3774,-3.3822,-3.3565,-3.3064,-3.2963,-3.2249,0.0,-3.065,0.0,0.0,0.0,0.0,0.0,0.0,0.0,0.0,-3.2109,-3.2704,-3.3295,-3.4344,-3.4998,-3.4998,-3.4686,-3.4511,-3.447,-3.3683,-3.3124,-3.3136,-3.3508,-3.4035,-3.465,-3.5107,-3.5621,-3.6279,-3.6417,-3.6405,-3.6405,-3.6367,-3.6304,-3.638,-3.6427,-3.6452,-3.6417,-3.6417,-3.672,-3.6742,-3.6597,-3.6609,-3.6537,-3.6669,-3.6756,-3.7835,-3.8372,-3.8885,-3.9342,-3.9765,-3.9973,-3.9639,-3.9469,-3.9516,-3.9771,-3.9862,-4.046,-4.2143,-4.2061,-4.1955,-3.5519,-3.4553,-3.4426,-3.394,-3.3287,-3.3824,-3.4012,-3.3866,-3.3866,-3.37,-3.336,-3.2651,-3.2378,-3.2328,-3.1788,-3.1549,-3.1537,-3.1436,-3.116,-3.0758,-3.0758,-3.052,-3.0105,-2.9993,-2.9955,-2.9942,-2.9842,-2.9779,-2.9779,-2.9779,-2.9779,-2.9779,-2.9779,-2.9779,-2.983,0.0,0.0,0.0,-3.0317,-3.0696,-3.1439,-3.1462,-3.1815,-3.2558,-3.2593,0.0,-3.2593,-3.2593,-3.2678,-3.2855,-3.2855,0.0,0.0,0.0,0.0,0.0,0.0,0.0,0.0,0.0,0.0,0.0,-3.0242,-3.0337,-3.1048,-3.1811,-3.2649,-3.3516,-3.355,-3.3517,-3.3517,-3.345,-3.3398,-3.3398,-3.3197,-3.3124,-3.3124,-3.3181,-3.3608,-3.46,-3.4826,-3.5265,-3.6241,-3.6417,-3.6417,-3.6417,-3.6417,-3.6417,-3.6417,-3.6417,-3.6417,-3.6417,-3.6417,-3.6417,-3.6417,-3.6417,-3.6417,-3.6417,-3.6417,-3.6499,-3.6734,-3.6819,-3.6968,-3.7163,-3.7147,-3.7458,-3.7694,-3.7356,-3.7603,-3.8793,-3.8743,-3.8872,-4.0232,-4.0375,-4.0317,-3.4399,0.0,-3.3596,-3.3332,0.0,-3.3124,-3.3124,-3.3124,-3.3124,-3.3124,-3.3043,-3.2466,-3.2202,-3.2164,-3.1373,-3.1009,-3.0997,-3.0721,-3.047,-3.0218,-3.0218,-3.0068,-2.9779,-2.9779,-2.9779,-2.9779,-2.9779,-2.9779,-2.9779,-2.9779,-2.9779,-2.9779,-2.9779,-2.9779,-2.9779,-2.9779,-2.9779,-2.9779,-2.9779,-3.0037,-3.0482,-3.052,-3.0733,-3.1206,0.0,0.0,0.0,0.0,0.0,0.0,0.0,0.0,0.0,0.0,0.0,-3.0721,-3.0385,-3.0178,-3.0204,-3.0062,-3.0098,-3.0393,-3.0771,-3.116,-3.156,-3.1959,-3.2537,-3.3306,-3.3191,-3.3124,-3.3124,-3.3124,-3.3124,-3.3124,-3.3124,-3.3124,-3.3149,-3.3363,-3.3809,-3.4562,-3.4919,-3.5454,-3.6304,-3.6417,-3.6417,-3.6417,-3.6417,-3.6417,-3.6417,-3.6417,-3.6417,-3.6417,-3.6417,-3.6417,-3.6417,-3.6417,-3.6417,-3.6417,-3.6417,-3.6417,-3.6417,-3.6417,-3.6417,-3.6417,-3.6417,-3.6531,-3.6719,-3.6581,-3.6669,-3.7437,-3.7436,-3.7428,-3.8088,-3.8617,-3.9227,-3.3847,-3.3709,-3.3257,-3.3124,-3.3124,-3.3124,-3.3124,-3.3124,0.0,0.0,0.0,-3.2365,-3.2077,-3.2001,-3.0947,-3.0482,-3.0444,-2.9993,-2.9779,-2.9779,-2.9779,-2.9779,-2.9779,-2.9779,-2.9779,-2.9792,-2.9585,-2.9495,-2.9495,-2.9287,-2.9209,-2.9209,-2.9221,-2.9209,-2.9209,-2.9209,-2.9209,-2.926,-2.9598,-2.9779,-2.9779,-2.9779,-2.9779,-2.9779,-2.9779,-2.9779,-2.9779,-2.9779,-3.0139,-3.0895,-3.0932,-3.0932,-3.0932,-3.0932,-3.0595,-2.9856,-2.9779,-2.9779,-2.9804,-3.0294,-3.0708,-3.0844,-3.1712,-3.2202,-3.2202,-3.2303,-3.2566,-3.3074,-3.3124,-3.3124,-3.3124,-3.3124,-3.3124,-3.3124,-3.3124,-3.3124,-3.3149,-3.3558,-3.4085,-3.465,-3.5144,-3.5742,-3.6317,-3.6417,-3.6417,-3.6417,-3.6417,-3.6417,-3.6417,-3.6417,-3.6417,-3.6417,-3.6417,-3.6417,-3.6417,-3.6417,-3.6417,-3.6417,-3.6417,-3.6417,-3.6417,-3.6417,-3.6417,-3.6417,-3.6417,-3.6468,-3.6531,-3.6505,-3.6455,-3.6543,-3.6468,-3.6417,-3.6499,-3.715,-3.8075,-3.3621,-3.3237,-3.3149,-3.3124,-3.3124,-3.3124,-3.3124,-3.3124,-3.3124,-3.3124,-3.3048,-3.1964,-3.1512,-3.1449,-3.0382,-2.9917,-2.9905,-2.9842,-2.9779,-2.9779,-2.9779,-2.9779,-2.9779,-2.9779,-2.9779,-2.9702,-2.8806,-2.8347,-2.8227,-2.7412,-2.6976,-2.6976,-2.6976,-2.6976,-2.6976,-2.6976,-2.6976,-2.7017,-2.8831,-2.9779,-2.9779,-2.9779,-2.9779,-2.9779,-2.9779,-2.9779,-2.9779,-2.9779,-2.9869,-2.9972,-2.9998,-3.0011,-2.9998,-2.9998,-2.9934,-2.9792,-2.9779,-2.9779,-2.9792,-3.0319,-3.0969,-3.1888,-3.2127,-3.2202,-3.2227,-3.2667,-3.3036,-3.3081,-3.3124,-3.3124,-3.3124,-3.3124,-3.3124,-3.3124,-3.3124,-3.3124,-3.3162,-3.3596,-3.4148,-3.4655,-3.5157,-3.5721,-3.6304,-3.6417,-3.6417,-3.6417,-3.6417,-3.6417,-3.6417,-3.6417,-3.6417,-3.6417,-3.6417,-3.6417,-3.6417,-3.6417,-3.6417,-3.6417,-3.6417,-3.6417,-3.6417,-3.6417,-3.6417,-3.6417,-3.6417,-3.6568,-3.6933,-3.6719,-3.6631,-3.6822,-3.6681,-3.643,-3.6417,-3.6628,-3.6803,-3.3307,-3.3136,-3.3124,-3.3124,-3.3124,-3.3124,-3.3124,-3.3038,-3.237,-3.2253,-3.2528,-3.1738,-3.1235,-3.0869,-2.9502,-2.9236,-2.9779,-2.9157,-2.9236,-2.9753,-2.9145,-2.8858,-2.8819,-2.8291,-2.7999,-2.7959,-2.7504,-2.7238,-2.7209,-2.6719,-2.6483,-2.6483,-2.6483,-2.6483,-2.6483,-2.6483,-2.639,-2.6172,-2.7365,-2.8011,-2.7999,-2.8011,-2.8291,-2.8858,-2.8897,-2.9184,-2.9779,-2.9779,-2.9779,-2.9779,-2.9779,-2.9779,-2.9779,-2.9779,-2.9779,-2.9779,-2.9779,-2.9779,-2.9779,-3.057,-3.1512,-3.2566,-3.2679,-3.2679,-3.2692,-3.2918,-3.3124,-3.3124,-3.3124,-3.3124,-3.3124,-3.3124,-3.3124,-3.3124,-3.3124,-3.3206,-3.352,-3.401,-3.455,-3.5069,-3.5642,-3.6069,-3.6367,-3.6417,-3.6417,-3.6417,-3.6417,-3.6417,-3.6417,-3.6417,-3.6417,-3.6417,-3.6417,-3.6417,-3.6417,-3.6417,-3.6417,-3.6417,-3.6417,-3.6417,-3.6417,-3.6417,-3.6417,-3.6417,-3.6417,-3.6505,-3.6769,-3.6606,-3.6568,-3.6644,-3.6619,-3.643,-3.6417,-3.6417,-3.6417,-3.3124,-3.3124,-3.3124,-3.3124,-3.3068,-3.2785,-3.2667,-3.2544,-3.1248,-3.089,-3.1167,-3.1042,-3.0585,-2.9772,-2.8627,-2.8438,-2.8882,-2.8148,-2.8239,-2.8922,-2.8148,-2.7735,-2.7643,-2.6883,-2.6483,-2.6442,-2.6265,-2.6141,-2.6088,-2.585,-2.5724,-2.5735,-2.5724,-2.5681,-2.5614,-2.5614,-2.5374,-2.4989,-2.5254,-2.5697,-2.6199,-2.6176,-2.6639,-2.7507,-2.7587,-2.8028,-2.8988,-2.9052,-2.917,-2.9417,-2.9404,-2.9534,-2.9792,-2.9779,-2.9779,-2.9779,-2.9779,-2.9905,-3.0181,-3.0909,-3.1917,-3.3023,-3.3124,-3.3124,-3.3124,-3.3124,-3.3124,-3.3124,-3.3124,-3.3124,-3.3124,-3.3124,-3.3124,-3.3124,-3.3124,-3.3294,-3.3834,-3.4387,-3.4893,-3.5433,-3.6019,-3.6405,-3.6417,-3.6417,-3.6417,-3.6417,-3.6417,-3.6417,-3.6417,-3.6417,-3.6417,-3.6417,-3.6417,-3.6417,-3.6417,-3.6417,-3.6417,-3.6417,-3.6417,-3.6417,-3.6417,-3.6417,-3.6417,-3.6417,-3.6417,-3.643,-3.6417,-3.6417,-3.6417,-3.6468,-3.643,-3.6417,-3.6417,-3.6417,-3.6417,-3.3124,-3.3124,-3.3124,-3.3124,-3.2939,-3.1865,-3.14,-3.1163,-2.9709,-2.8743,-2.8519,-2.9327,-2.8925,-2.7767,-2.7906,-2.7602,-2.6935,-2.6719,-2.6719,-2.6853,-2.673,-2.6637,-2.6637,-2.6513,-2.6483,-2.6307,-2.542,-2.4957,-2.4925,-2.3963,-2.3464,-2.343,-2.3387,-2.3308,-2.2938,-2.2931,-2.2732,-2.2274,-2.2294,-2.3307,-2.5189,-2.5306,-2.556,-2.5978,-2.6,-2.6255,-2.6867,-2.6812,-2.725,-2.8136,-2.8255,-2.8727,-2.9585,-2.9753,-2.9779,-2.974,-2.9753,-3.0193,-3.111,-3.1336,-3.1793,-3.2973,-3.3025,-3.3081,-3.3124,-3.3124,-3.3124,-3.3038,-3.3081,-3.3124,-3.3124,-3.3124,-3.3124,-3.3124,-3.3124,-3.3294,-3.3872,-3.4387,-3.4893,-3.5433,-3.6056,-3.6417,-3.6417,-3.6417,-3.6417,-3.6417,-3.6417,-3.6417,-3.6417,-3.6417,-3.6417,-3.6417,-3.6417,-3.6417,-3.6417,-3.6417,-3.6417,-3.6417,-3.6417,-3.6417,-3.6417,-3.6417,-3.6417,-3.6417,-3.6417,-3.6417,-3.6417,-3.6417,-3.6417,-3.6417,-3.6417,-3.6417,-3.6417,-3.6417,-3.6417,-3.3124,-3.3124,-3.3124,-3.2655,-3.1909,-3.14,-3.0765,-2.9988,-2.8394,-2.7428,-2.6996,-2.7118,-2.6967,-2.6774,-2.6373,-2.6232,-2.6442,-2.5797,-2.588,-2.6389,-2.585,-2.5493,-2.542,-2.4766,-2.4478,-2.4467,-2.4006,-2.379,-2.3714,-2.3309,-2.2974,-2.2793,-2.2773,-2.2559,-2.2178,-2.2139,-2.1934,-2.1473,-2.1504,-2.183,-2.2457,-2.2972,-2.3659,-2.4381,-2.4692,-2.5245,-2.6006,-2.6345,-2.6719,-2.7116,-2.7168,-2.7371,-2.7799,-2.7839,-2.7839,-2.7851,-2.7839,-2.8583,-3.0233,-2.9695,-3.0105,-3.1836,-3.2008,-3.2239,-3.3038,-3.3124,-3.284,-3.2183,-3.2655,-3.3124,-3.3081,-3.3124,-3.3124,-3.3124,-3.3124,-3.342,-3.4299,-3.4587,-3.4994,-3.5868,-3.6267,-3.6417,-3.6417,-3.6417,-3.6417,-3.6417,-3.6417,-3.6417,-3.6417,-3.6417,-3.6417,-3.6417,-3.6417,-3.6417,-3.6417,-3.6417,-3.6417,-3.6417,-3.6417,-3.6417,-3.6417,-3.6417,-3.6417,-3.6417,-3.6417,-3.6417,-3.6417,-3.6417,-3.6417,-3.6417,-3.6417,-3.6417,-3.6417,-3.6417,-3.6417,-3.3124,-3.3038,-3.2742,-3.2052,-3.111,-3.0345,-2.9523,-2.8523,-2.6806,-2.5867,-2.5571,-2.5039,-2.5047,-2.5463,-2.4999,-2.5126,-2.5431,-2.4713,-2.4755,-2.5431,-2.4713,-2.4339,-2.4253,-2.3507,-2.3101,-2.3101,-2.3135,-2.3135,-2.3101,-2.3101,-2.2886,-2.2578,-2.2627,-2.2353,-2.1777,-2.1807,-2.1602,-2.1103,-2.1015,-2.0879,-2.0732,-2.1231,-2.1959,-2.2836,-2.3329,-2.3948,-2.4681,-2.5285,-2.5659,-2.5859,-2.5981,-2.6182,-2.6483,-2.6483,-2.6483,-2.6483,-2.6483,-2.7285,-2.9021,-2.8362,-2.8706,-3.0435,-3.0721,-3.1089,-3.1821,-3.2064,-3.1689,-3.0944,-3.1557,-3.2108,-3.2568,-3.2896,-3.3124,-3.3124,-3.3224,-3.3709,-3.4575,-3.4781,-3.5316,-3.6229,-3.6392,-3.6417,-3.6417,-3.6417,-3.6417,-3.6417,-3.6417,-3.6417,-3.6417,-3.6417,-3.6417,-3.6417,-3.6417,-3.6417,-3.6417,-3.6417,-3.6417,-3.6417,-3.6417,-3.6417,-3.6417,-3.6417,-3.6417,-3.6417,-3.6417,-3.6417,-3.6417,-3.6417,-3.6417,-3.6417,-3.6417,-3.6417,-3.6417,-3.6417,-3.6417,-3.3124,-3.2884,-3.1777,-3.1187,-3.0953,-2.836,-2.7147,-2.69,-2.4902,-2.3983,-2.3969,-2.3511,-2.3242,-2.342,-2.4296,-2.4211,-2.3387,-2.3299,-2.3343,-2.3474,-2.3299,-2.3178,-2.3178,-2.3091,-2.3101,-2.3101,-2.3101,-2.3101,-2.3101,-2.3091,-2.2877,-2.2549,-2.2832,-2.2409,-2.1473,-2.1641,-2.1445,-2.0772,-2.0683,-2.0644,-2.0615,-2.0664,-2.0918,-2.141,-2.1812,-2.2182,-2.2282,-2.2867,-2.3619,-2.4292,-2.4693,-2.5336,-2.6265,-2.64,-2.6359,-2.6442,-2.6389,-2.6856,-2.7803,-2.7798,-2.8265,-2.9262,-2.9487,-2.9544,-2.9852,-2.9909,-2.9772,-2.951,-2.9818,-3.0373,-3.1235,-3.2239,-3.2982,-3.3106,-3.3545,-3.4073,-3.4605,-3.5107,-3.5717,-3.6279,-3.6417,-3.6417,-3.6417,-3.6417,-3.6417,-3.6417,-3.6417,-3.6417,-3.6417,-3.6417,-3.6417,-3.6417,-3.6417,-3.6417,-3.6417,-3.6417,-3.6417,-3.6417,-3.6417,-3.6417,-3.6417,-3.6417,-3.6417,-3.6417,-3.6417,-3.6417,-3.6417,-3.6417,-3.6417,-3.6417,-3.6417,-3.6417,-3.6417,-3.6417,-3.6417,-3.2612,-3.184,-3.1097,-2.9931,-2.8338,-2.7033,-2.6082,-2.5217,-2.426,-2.3789,-2.3711,-2.333,-2.3101,-2.3091,-2.3507,-2.3474,-2.3135,-2.3101,-2.3101,-2.3101,-2.3101,-2.3101,-2.3101,-2.3101,-2.3101,-2.3101,-2.3101,-2.3101,-2.3101,-2.3101,-2.2886,-2.2539,-2.2383,-2.1943,-2.1298,-2.1103,-2.0899,-2.0644,-2.0615,-2.0615,-2.0615,-2.0615,-2.0683,-2.083,-2.1514,-2.1748,-2.1475,-2.2496,-2.3103,-2.3135,-2.3493,-2.3887,-2.4274,-2.4307,-2.4691,-2.5252,-2.4723,-2.5044,-2.6381,-2.6038,-2.6445,-2.8039,-2.8226,-2.8588,-2.9223,-2.935,-2.9085,-2.8669,-2.9761,-3.0496,-3.0271,-3.1134,-3.2239,-3.3002,-3.3583,-3.4135,-3.463,-3.5169,-3.5755,-3.6279,-3.6417,-3.6417,-3.6417,-3.6417,-3.6417,-3.6417,-3.6417,-3.6417,-3.6417,-3.6417,-3.6417,-3.6417,-3.6417,-3.6417,-3.6417,-3.6417,-3.6417,-3.6417,-3.6417,-3.6417,-3.6417,-3.6417,-3.6417,-3.6417,-3.6417,-3.6417,-3.6417,-3.6417,-3.6417,-3.6417,-3.6417,-3.6417,-3.6417,-3.6417,-3.6417,-3.1523,-3.0437,-2.9936,-2.8565,-2.6694,-2.5802,-2.4997,-2.417,-2.376,-2.3574,-2.3525,-2.3218,-2.3101,-2.3101,-2.3101,-2.3101,-2.3101,-2.3101,-2.3101,-2.3101,-2.3101,-2.3101,-2.3101,-2.3101,-2.3101,-2.3101,-2.3101,-2.3101,-2.3101,-2.3101,-2.2867,-2.251,-2.2217,-2.1797,-2.1239,-2.0928,-2.0732,-2.0644,-2.0615,-2.0615,-2.0615,-2.0615,-2.0615,-2.0732,-2.1426,-2.1611,-2.1084,-2.234,-2.2828,-2.2471,-2.2789,-2.3101,-2.3101,-2.3101,-2.342,-2.4049,-2.356,-2.3816,-2.5148,-2.4808,-2.5159,-2.6785,-2.6982,-2.74,-2.8121,-2.8204,-2.7767,-2.7626,-2.8716,-2.9715,-2.9852,-3.0704,-3.1986,-3.3134,-3.3847,-3.4374,-3.4893,-3.5433,-3.5943,-3.6317,-3.6417,-3.6417,-3.6417,-3.6417,-3.6417,-3.6417,-3.6417,-3.6417,-3.6417,-3.6417,-3.6417,-3.6417,-3.6417,-3.6417,-3.6417,-3.6417,-3.6417,-3.6417,-3.6417,-3.6417,-3.6417,-3.6417,-3.6417,-3.6417,-3.6417,-3.6417,-3.6417,-3.6417,-3.6417,-3.6417,-3.6417,-3.6417,-3.6417,-3.6417,-3.6417,-2.9785,-2.8834,-2.8141,-2.7228,-2.5975,-2.4566,-2.3869,-2.3711,-2.3359,-2.3169,-2.3169,-2.3101,-2.3101,-2.3101,-2.3101,-2.3101,-2.3101,-2.3101,-2.3101,-2.3101,-2.3101,-2.3101,-2.3101,-2.3101,-2.3101,-2.3101,-2.3101,-2.3101,-2.3101,-2.3081,-2.2886,-2.2588,-2.2399,-2.1973,-2.12,-2.1103,-2.0947,-2.0693,-2.0615,-2.0615,-2.0615,-2.0615,-2.0615,-2.0693,-2.1426,-2.1504,-2.0742,-2.2256,-2.274,-2.2168,-2.2715,-2.3081,-2.3101,-2.3101,-2.3135,-2.3232,-2.3154,-2.3584,-2.4323,-2.4499,-2.4863,-2.574,-2.5781,-2.5965,-2.6149,-2.61,-2.6062,-2.639,-2.7305,-2.8319,-2.9623,-3.1154,-3.2604,-3.3714,-3.4349,-3.4939,-3.5395,-3.6006,-3.6405,-3.6417,-3.6417,-3.6417,-3.6417,-3.6417,-3.6417,-3.6417,-3.6417,-3.6417,-3.6417,-3.6417,-3.6417,-3.6417,-3.6417,-3.6417,-3.6417,-3.6417,-3.6417,-3.6417,-3.6417,-3.6417,-3.6417,-3.6417,-3.6417,-3.6417,-3.6417,-3.6417,-3.6417,-3.6417,-3.6417,-3.6417,-3.6417,-3.6417,-3.6417,-3.6417,-3.6417,-2.8842,-2.802,-2.6846,-2.5656,-2.4536,-2.3649,-2.334,-2.333,-2.314,-2.3101,-2.3101,-2.3101,-2.3101,-2.3101,-2.3101,-2.3101,-2.3101,-2.3101,-2.3101,-2.3101,-2.3101,-2.3101,-2.3101,-2.3101,-2.3101,-2.3101,-2.3101,-2.3101,-2.3101,-2.3101,-2.2877,-2.2549,-2.2227,-2.1797,-2.121,-2.0937,-2.0713,-2.0635,-2.0615,-2.0615,-2.0615,-2.0615,-2.0615,-2.0703,-2.1466,-2.1602,-2.1143,-2.235,-2.2789,-2.2334,-2.2799,-2.3101,-2.3101,-2.3101,-2.3101,-2.312,-2.3437,-2.3809,-2.4346,-2.4707,-2.5098,-2.5547,-2.5684,-2.5684,-2.5684,-2.5732,-2.611,-2.6897,-2.8132,-2.9315,-3.0634,-3.2261,-3.3442,-3.3865,-3.4726,-3.527,-3.5545,-3.6031,-3.6367,-3.6417,-3.6417,-3.6417,-3.6417,-3.6417,-3.6417,-3.6417,-3.6417,-3.6417,-3.6417,-3.6417,-3.6417,-3.6417,-3.6417,-3.6417,-3.6417,-3.6417,-3.6417,-3.6417,-3.6417,-3.6417,-3.6417,-3.6417,-3.6417,-3.6417,-3.6417,-3.6417,-3.6417,-3.6417,-3.6417,-3.6417,-3.6417,-3.6417,-3.6417,-3.6417,-3.6417,-2.747,-2.6309,-2.558,-2.463,-2.357,-2.3198,-2.3101,-2.3101,-2.3101,-2.3101,-2.3101,-2.3101,-2.3101,-2.3101,-2.3101,-2.3101,-2.3101,-2.3101,-2.3101,-2.3101,-2.3101,-2.3101,-2.3101,-2.3101,-2.3101,-2.3101,-2.3101,-2.3101,-2.3101,-2.3081,-2.2886,-2.251,-2.21,-2.167,-2.119,-2.0801,-2.0615,-2.0615,-2.0615,-2.0615,-2.0615,-2.0615,-2.0683,-2.0889,-2.1514,-2.1797,-2.1736,-2.2613,-2.2906,-2.2666,-2.2877,-2.3081,-2.3101,-2.3101,-2.3101,-2.3179,-2.3545,-2.3975,-2.4385,-2.4814,-2.5264,-2.5635,-2.5684,-2.5684,-2.5781,-2.6024,-2.6849,-2.7579,-2.9085,-3.0499,-3.1556,-3.3125,-3.4159,-3.4512,-3.5056,-3.5558,-3.5818,-3.6144,-3.6392,-3.6417,-3.6417,-3.6417,-3.6417,-3.6417,-3.6417,-3.6417,-3.6417,-3.6417,-3.6417,-3.6417,-3.6417,-3.6417,-3.6417,-3.6417,-3.6417,-3.6417,-3.6417,-3.6417,-3.6417,-3.6417,-3.6417,-3.6417,-3.6417,-3.6417,-3.6417,-3.6417,-3.6417,-3.6417,-3.6417,-3.6417,-3.6417,-3.6417,-3.6417,-3.6417,-3.6417,-2.5784,-2.4049,-2.4481,-2.4079,-2.3174,-2.3101,-2.3101,-2.3101,-2.3101,-2.3101,-2.3101,-2.3101,-2.3101,-2.3101,-2.3101,-2.3101,-2.3101,-2.3101,-2.3101,-2.3101,-2.3101,-2.3101,-2.3101,-2.3101,-2.3101,-2.3101,-2.3101,-2.3101,-2.3101,-2.3091,-2.2867,-2.2432,-2.2051,-2.167,-2.121,-2.0801,-2.0654,-2.0674,-2.0683,-2.0683,-2.0635,-2.0674,-2.0791,-2.1161,-2.1689,-2.21,-2.2412,-2.2818,-2.2925,-2.2666,-2.2906,-2.3101,-2.3101,-2.3101,-2.3101,-2.312,-2.3564,-2.4004,-2.4414,-2.4912,-2.5322,-2.5635,-2.5684,-2.5684,-2.583,-2.6486,-2.7258,-2.7908,-2.9692,-3.1305,-3.2244,-3.3757,-3.4848,-3.542,-3.5583,-3.5868,-3.6317,-3.6392,-3.6405,-3.6417,-3.6417,-3.6417,-3.6417,-3.6417,-3.6417,-3.6417,-3.6417,-3.6417,-3.6417,-3.6417,-3.6417,-3.6417,-3.6417,-3.6417,-3.6417,-3.6417,-3.6417,-3.6417,-3.6417,-3.6417,-3.6417,-3.6417,-3.6417,-3.6417,-3.6417,-3.6417,-3.6417,-3.6417,-3.6417,-3.6417,-3.6417,-3.6417,-3.6417,-3.6417,-3.6417,-2.5334,-2.4504,-2.3841,-2.3387,-2.3091,-2.3101,-2.3101,-2.3101,-2.3101,-2.3101,-2.3101,-2.3101,-2.3101,-2.3101,-2.3101,-2.3101,-2.3101,-2.3101,-2.3101,-2.3101,-2.3101,-2.3101,-2.3101,-2.3101,-2.3101,-2.3101,-2.3101,-2.3101,-2.3101,-2.3101,-2.273,-2.207,-2.1963,-2.166,-2.122,-2.1034,-2.1034,-2.1064,-2.1055,-2.0879,-2.0723,-2.0918,-2.1064,-2.1229,-2.1953,-2.2373,-2.2549,-2.2877,-2.3062,-2.2955,-2.3023,-2.3101,-2.3101,-2.311,-2.314,-2.3237,-2.3848,-2.4287,-2.4531,-2.5079,-2.5538,-2.5654,-2.5684,-2.5684,-2.5684,-2.6014,-2.7078,-2.8466,-2.9975,-3.1398,-3.3126,-3.4537,-3.547,-3.6031,-3.6094,-3.6157,-3.6367,-3.6417,-3.6417,-3.6417,-3.6417,-3.6417,-3.6417,-3.6417,-3.6417,-3.6417,-3.6417,-3.6417,-3.6417,-3.6417,-3.6417,-3.6417,-3.6417,-3.6417,-3.6417,-3.6417,-3.6417,-3.6417,-3.6417,-3.6417,-3.6417,-3.6417,-3.6417,-3.6417,-3.6417,-3.6417,-3.6417,-3.6417,-3.6417,-3.6417,-3.6417,-3.6417,-3.6417,-3.6417,-3.6417,-2.5167,-2.4049,-2.3343,-2.3101,-2.3101,-2.3101,-2.3101,-2.3101,-2.3101,-2.3101,-2.3101,-2.3101,-2.3101,-2.3101,-2.3101,-2.3101,-2.3101,-2.3101,-2.3101,-2.3101,-2.3101,-2.3101,-2.3101,-2.3101,-2.3101,-2.3101,-2.3101,-2.3101,-2.3101,-2.3101,-2.2676,-2.2051,-2.1936,-2.1572,-2.0957,-2.0957,-2.1064,-2.1151,-2.12,-2.1152,-2.1152,-2.1367,-2.1611,-2.1746,-2.2295,-2.2568,-2.2773,-2.2974,-2.3101,-2.3091,-2.3091,-2.3101,-2.311,-2.332,-2.3364,-2.3457,-2.4209,-2.4687,-2.4805,-2.5352,-2.5654,-2.5684,-2.5684,-2.5684,-2.5965,-2.6524,-2.8154,-2.9464,-3.0882,-3.2587,-3.4161,-3.5391,-3.5956,-3.6317,-3.6417,-3.6417,-3.6417,-3.6417,-3.6417,-3.6417,-3.6417,-3.6417,-3.6417,-3.6417,-3.6417,-3.6417,-3.6417,-3.6417,-3.6417,-3.6417,-3.6417,-3.6417,-3.6417,-3.6417,-3.6417,-3.6417,-3.6417,-3.6417,-3.6417,-3.6417,-3.6417,-3.6417,-3.6417,-3.6417,-3.6417,-3.6417,-3.6417,-3.6417,-3.6417,-3.6417,-3.6417,-3.6417,-3.6417,-3.6417,-3.6417,-2.5062,-2.3101,-2.3101,-2.3101,-2.3101,-2.3101,-2.3101,-2.3101,-2.3101,-2.3101,-2.3101,-2.3101,-2.3101,-2.3101,-2.3101,-2.3101,-2.3101,-2.3101,-2.3101,-2.3101,-2.3101,-2.3101,-2.3101,-2.3101,-2.3101,-2.3101,-2.3101,-2.3101,-2.3101,-2.3101,-2.2725,-2.2187,-2.2002,-2.1584,-2.1163,-2.0938,-2.0996,-2.1309,-2.1444,-2.1572,-2.1728,-2.1865,-2.208,-2.2334,-2.2496,-2.275,-2.2964,-2.3101,-2.3101,-2.3101,-2.3101,-2.313,-2.3188,-2.3603,-2.3789,-2.3955,-2.4541,-2.501,-2.5107,-2.5449,-2.5684,-2.5684,-2.5684,-2.5732,-2.6161,-2.7593,-2.9195,-3.018,-3.2481,-3.3979,-3.5299,-3.6069,-3.6317,-3.6417,-3.6417,-3.6417,-3.6417,-3.6417,-3.6417,-3.6417,-3.6417,-3.6417,-3.6417,-3.6417,-3.6417,-3.6417,-3.6417,-3.6417,-3.6417,-3.6417,-3.6417,-3.6417,-3.6417,-3.6417,-3.6417,-3.6417,-3.6417,-3.6417,-3.6417,-3.6417,-3.6417,-3.6417,-3.6417,-3.6417,-3.6417,-3.6417,-3.6417,-3.6417,-3.6417,-3.6417,-3.6417,-3.6417,-3.6417,-3.6417,-3.6417,-2.4339,-2.3101,-2.3101,-2.3101,-2.3101,-2.3101,-2.3101,-2.3101,-2.3101,-2.3101,-2.3101,-2.3101,-2.3101,-2.3101,-2.3101,-2.3101,-2.3101,-2.3101,-2.3101,-2.3101,-2.3101,-2.3101,-2.3101,-2.3101,-2.3101,-2.3101,-2.3101,-2.3101,-2.3101,-2.3052,-2.2881,-2.2432,-2.2285,-2.2119,-2.166,-2.1738,-2.1934,-2.1865,-2.2041,-2.206,-2.2012,-2.2246,-2.2422,-2.2578,-2.2822,-2.2974,-2.3062,-2.3101,-2.3101,-2.3101,-2.3149,-2.3325,-2.3574,-2.376,-2.3994,-2.4336,-2.4746,-2.5135,-2.5146,-2.5478,-2.5684,-2.5684,-2.5732,-2.583,-2.6329,-2.7797,-2.9335,-3.0673,-3.2571,-3.446,-3.5865,-3.6317,-3.6405,-3.6417,-3.6417,-3.6417,-3.6417,-3.6417,-3.6417,-3.6417,-3.6417,-3.6417,-3.6417,-3.6417,-3.6417,-3.6417,-3.6417,-3.6417,-3.6417,-3.6417,-3.6417,-3.6417,-3.6417,-3.6417,-3.6417,-3.6417,-3.6417,-3.6417,-3.6417,-3.6417,-3.6417,-3.6417,-3.6417,-3.6417,-3.6417,-3.6417,-3.6417,-3.6417,-3.6417,-3.6417,-3.6417,-3.6417,-3.6417,-3.6417,-3.6518,-2.4125,-2.3135,-2.3101,-2.3101,-2.3101,-2.3101,-2.3101,-2.3101,-2.3101,-2.3101,-2.3101,-2.3101,-2.3101,-2.3101,-2.3101,-2.3101,-2.3101,-2.3101,-2.3101,-2.3101,-2.3101,-2.3101,-2.3101,-2.3101,-2.3101,-2.3101,-2.3101,-2.3101,-2.3101,-2.3062,-2.2877,-2.2496,-2.2519,-2.2256,-2.1953,-2.2139,-2.2168,-2.2217,-2.2383,-2.2471,-2.2529,-2.2676,-2.276,-2.2779,-2.2974,-2.3101,-2.3101,-2.335,-2.3383,-2.3442,-2.3578,-2.3721,-2.3867,-2.417,-2.4538,-2.4727,-2.5137,-2.5361,-2.5469,-2.5528,-2.5684,-2.5693,-2.5859,-2.6556,-2.7386,-2.8682,-3.0356,-3.2011,-3.3636,-3.5122,-3.6235,-3.6417,-3.6417,-3.6417,-3.6417,-3.6417,-3.6417,-3.6417,-3.6417,-3.6417,-3.6417,-3.6417,-3.6417,-3.6417,-3.6443,-3.6455,-3.6417,-3.6417,-3.6417,-3.6417,-3.6417,-3.6417,-3.6417,-3.6417,-3.6417,-3.6417,-3.6417,-3.6417,-3.6417,-3.6417,-3.6417,-3.6417,-3.6417,-3.6417,-3.6417,-3.6417,-3.6417,-3.6417,-3.6417,-3.6417,-3.6417,-3.6417,-3.643,-3.6443,-3.6644,-2.3963,-2.3101,-2.3101,-2.3101,-2.3101,-2.3101,-2.3101,-2.3101,-2.3101,-2.3101,-2.3101,-2.3101,-2.3101,-2.3101,-2.3101,-2.3101,-2.3101,-2.3101,-2.3101,-2.3101,-2.3101,-2.3101,-2.3101,-2.3101,-2.3101,-2.3101,-2.3101,-2.3101,-2.3101,-2.3081,-2.2935,-2.2666,-2.2627,-2.2451,-2.2109,-2.209,-2.2275,-2.2451,-2.2598,-2.273,-2.2945,-2.3033,-2.3042,-2.3052,-2.3062,-2.3101,-2.3179,-2.3486,-2.376,-2.3818,-2.4258,-2.4277,-2.4277,-2.458,-2.5184,-2.5146,-2.5508,-2.5625,-2.5596,-2.5664,-2.5684,-2.5713,-2.6133,-2.7071,-2.8362,-2.9932,-3.1658,-3.3303,-3.4792,-3.5765,-3.6355,-3.6417,-3.6417,-3.6417,-3.6417,-3.6417,-3.6417,-3.6417,-3.6417,-3.6417,-3.6417,-3.6417,-3.6417,-3.6417,-3.6455,-3.648,-3.6443,-3.6443,-3.6455,-3.6417,-3.6417,-3.6417,-3.6417,-3.6417,-3.6417,-3.6417,-3.6417,-3.6417,-3.6417,-3.6417,-3.6417,-3.6417,-3.6417,-3.6417,-3.6417,-3.6417,-3.6417,-3.6417,-3.6417,-3.6417,-3.6417,-3.6417,-3.6443,-3.648,-3.6782,-2.3266,-2.3101,-2.3101,-2.3101,-2.3101,-2.3101,-2.3101,-2.3101,-2.3101,-2.3101,-2.3101,-2.3101,-2.3101,-2.3101,-2.3101,-2.3101,-2.3101,-2.3101,-2.3101,-2.3101,-2.3101,-2.3101,-2.3101,-2.3101,-2.3101,-2.3101,-2.3101,-2.3101,-2.3101,-2.3081,-2.3023,-2.2984,-2.2955,-2.2783,-2.2607,-2.2652,-2.2685,-2.2646,-2.2822,-2.2994,-2.3062,-2.3101,-2.3101,-2.3101,-2.3101,-2.312,-2.3218,-2.3555,-2.3789,-2.3867,-2.4551,-2.4881,-2.491,-2.501,-2.5254,-2.5518,-2.5606,-2.5684,-2.5684,-2.5684,-2.5684,-2.5781,-2.6182,-2.7312,-2.8877,-3.0564,-3.2368,-3.4041,-3.5362,-3.6197,-3.6392,-3.6417,-3.6417,-3.6417,-3.6417,-3.6417,-3.6417,-3.6417,-3.6417,-3.6417,-3.6417,-3.6417,-3.6417,-3.6443,-3.6505,-3.6531,-3.6493,-3.6593,-3.6719,-3.6568,-3.6417,-3.6417,-3.6417,-3.6417,-3.6417,-3.6417,-3.6417,-3.6417,-3.6417,-3.6417,-3.6417,-3.6417,-3.6417,-3.6417,-3.6417,-3.6417,-3.6417,-3.6417,-3.6417,-3.6417,-3.6417,-3.6417,-3.6493,-3.6593,-3.6948,-2.3101,-2.3101,-2.3101,-2.3101,-2.3101,-2.3101,-2.3101,-2.3101,-2.3101,-2.3101,-2.3101,-2.3101,-2.3101,-2.3101,-2.3101,-2.3101,-2.3101,-2.3101,-2.3101,-2.3101,-2.3101,-2.3101,-2.3101,-2.3101,-2.3101,-2.3101,-2.3101,-2.3101,-2.3101,-2.3101,-2.3101,-2.3091,-2.3101,-2.2984,-2.2857,-2.2945,-2.2974,-2.2857,-2.2984,-2.3101,-2.3101,-2.3101,-2.3101,-2.3101,-2.313,-2.3208,-2.3535,-2.3887,-2.4228,-2.4531,-2.5068,-2.5342,-2.54,-2.543,-2.5498,-2.5635,-2.5684,-2.5684,-2.5684,-2.5693,-2.5781,-2.6103,-2.6465,-2.7954,-2.9807,-3.1544,-3.3016,-3.4715,-3.4981,-3.5667,-3.631,-3.6417,-3.6417,-3.6417,-3.6417,-3.6417,-3.6417,-3.6417,-3.6417,-3.6417,-3.6417,-3.6417,-3.6417,-3.6468,-3.6556,-3.6568,-3.6556,-3.6694,-3.6895,-3.6669,-3.6417,-3.6417,-3.6417,-3.6417,-3.6417,-3.6417,-3.6417,-3.6417,-3.6417,-3.6417,-3.6417,-3.6417,-3.6417,-3.6417,-3.6417,-3.6417,-3.6417,-3.6417,-3.6417,-3.6417,-3.6417,-3.6443,-3.6556,-3.6769,-3.7186,-2.3101,-2.3101,-2.3101,-2.3101,-2.3101,-2.3101,-2.3101,-2.3101,-2.3101,-2.3101,-2.3101,-2.3101,-2.3101,-2.3101,-2.3101,-2.3101,-2.3101,-2.3101,-2.3101,-2.3101,-2.3101,-2.3101,-2.3101,-2.3101,-2.3101,-2.3101,-2.3101,-2.3101,-2.3101,-2.3101,-2.3101,-2.3101,-2.3101,-2.3101,-2.3081,-2.3071,-2.3091,-2.3101,-2.3101,-2.3101,-2.3101,-2.3101,-2.3149,-2.3218,-2.3271,-2.3442,-2.3906,-2.4316,-2.4668,-2.501,-2.541,-2.5664,-2.5674,-2.5684,-2.5684,-2.5684,-2.5684,-2.5684,-2.5703,-2.5889,-2.6055,-2.6299,-2.714,-2.8885,-3.0556,-3.2027,-3.3616,-3.5307,-3.5619,-3.5367,-3.6263,-3.6417,-3.6417,-3.6417,-3.6417,-3.6417,-3.6417,-3.6417,-3.6417,-3.6417,-3.6417,-3.6417,-3.6417,-3.6468,-3.6556,-3.6659,-3.6694,-3.6707,-3.6845,-3.6606,-3.6417,-3.6417,-3.6417,-3.6417,-3.6417,-3.6417,-3.6417,-3.6417,-3.6417,-3.6417,-3.6417,-3.6417,-3.6417,-3.6417,-3.6417,-3.6417,-3.6417,-3.6417,-3.6417,-3.6417,-3.6417,-3.6543,-3.6782,-3.7136,-3.7626,-2.3101,-2.3101,-2.3101,-2.3101,-2.3101,-2.3101,-2.3101,-2.3101,-2.3101,-2.3101,-2.3101,-2.3101,-2.3101,-2.3101,-2.3101,-2.3101,-2.3101,-2.3101,-2.3101,-2.3101,-2.3101,-2.3101,-2.3101,-2.3101,-2.3101,-2.3101,-2.3101,-2.3101,-2.3101,-2.3101,-2.3101,-2.3101,-2.3101,-2.3101,-2.3101,-2.3101,-2.3101,-2.3101,-2.311,-2.314,-2.3169,-2.3179,-2.3408,-2.3613,-2.374,-2.3906,-2.4316,-2.4707,-2.5,-2.5127,-2.5508,-2.5664,-2.5684,-2.5684,-2.5684,-2.5684,-2.5684,-2.5684,-2.583,-2.6055,-2.6348,-2.6862,-2.7955,-2.9307,-3.0594,-3.2411,-3.392,-3.4422,-3.5319,-3.5966,-3.6263,-3.6417,-3.6417,-3.6417,-3.6417,-3.6417,-3.6417,-3.6417,-3.6417,-3.6417,-3.6417,-3.6417,-3.6417,-3.648,-3.6556,-3.6719,-3.6784,-3.682,-3.6757,-3.6531,-3.6417,-3.6417,-3.6417,-3.6417,-3.6417,-3.6417,-3.6417,-3.6417,-3.6417,-3.6417,-3.6417,-3.6417,-3.6417,-3.6417,-3.6443,-3.6518,-3.6581,-3.6568,-3.6468,-3.6505,-3.6619,-3.6797,-3.7048,-3.7538,-3.809,-2.3101,-2.3101,-2.3101,-2.3101,-2.3101,-2.3101,-2.3101,-2.3101,-2.3101,-2.3101,-2.3101,-2.3101,-2.3101,-2.3101,-2.3101,-2.3101,-2.3101,-2.3101,-2.3101,-2.3101,-2.3101,-2.3101,-2.3101,-2.3101,-2.3101,-2.3101,-2.3101,-2.3101,-2.3101,-2.3101,-2.3101,-2.3101,-2.3101,-2.3101,-2.3101,-2.3101,-2.3101,-2.3169,-2.3335,-2.3623,-2.3799,-2.3867,-2.39,-2.4141,-2.4141,-2.4385,-2.4727,-2.4922,-2.5225,-2.5381,-2.5635,-2.5674,-2.5684,-2.5684,-2.5684,-2.5713,-2.5996,-2.6113,-2.6152,-2.6309,-2.6621,-2.7082,-2.8103,-2.888,-3.0125,-3.1884,-3.3662,-3.4385,-3.4872,-3.5571,-3.625,-3.6417,-3.6417,-3.643,-3.6493,-3.648,-3.6468,-3.6417,-3.6417,-3.6417,-3.6417,-3.6417,-3.6417,-3.6443,-3.648,-3.6543,-3.6619,-3.6606,-3.6581,-3.648,-3.6417,-3.6417,-3.6417,-3.6417,-3.6417,-3.6417,-3.6417,-3.6417,-3.6455,-3.6443,-3.6417,-3.6417,-3.6581,-3.6669,-3.6769,-3.6807,-3.682,-3.6744,-3.6669,-3.6769,-3.6883,-3.7174,-3.755,-3.8103,-3.8642,-2.3101,-2.3101,-2.3101,-2.3101,-2.3101,-2.3101,-2.3101,-2.3101,-2.3101,-2.3101,-2.3101,-2.3101,-2.3101,-2.3101,-2.3101,-2.3101,-2.3101,-2.3101,-2.3101,-2.3101,-2.3101,-2.3101,-2.3101,-2.3101,-2.3101,-2.3101,-2.3101,-2.3101,-2.3101,-2.3101,-2.3101,-2.3101,-2.3101,-2.3101,-2.3101,-2.311,-2.314,-2.3344,-2.375,-2.4062,-2.4287,-2.4355,-2.4453,-2.4541,-2.4629,-2.4785,-2.5156,-2.5254,-2.5469,-2.5577,-2.5664,-2.5684,-2.5684,-2.5879,-2.5947,-2.6045,-2.6318,-2.6631,-2.6709,-2.6865,-2.709,-2.7451,-2.796,-2.8695,-3.015,-3.152,-3.2532,-3.3674,-3.4872,-3.5511,-3.6108,-3.6417,-3.6543,-3.6606,-3.6681,-3.6631,-3.6606,-3.6656,-3.6556,-3.6417,-3.6417,-3.6417,-3.6417,-3.6417,-3.6417,-3.6417,-3.6417,-3.6417,-3.643,-3.6443,-3.6455,-3.6468,-3.648,-3.648,-3.6455,-3.6455,-3.6443,-3.6531,-3.6568,-3.6631,-3.6719,-3.6895,-3.7061,-3.7111,-3.7136,-3.7249,-3.7374,-3.7111,-3.6885,-3.7161,-3.745,-3.7726,-3.8115,-3.8668,-3.9069,-2.3101,-2.3101,-2.3101,-2.3101,-2.3101,-2.3101,-2.3101,-2.3101,-2.3101,-2.3101,-2.3101,-2.3101,-2.3101,-2.3101,-2.3101,-2.3101,-2.3101,-2.3101,-2.3101,-2.3101,-2.3101,-2.3101,-2.3101,-2.3101,-2.3101,-2.3101,-2.3101,-2.3101,-2.312,-2.3188,-2.314,-2.3101,-2.313,-2.311,-2.313,-2.3179,-2.3461,-2.3799,-2.4209,-2.4404,-2.4521,-2.458,-2.4697,-2.4961,-2.5106,-2.5234,-2.5596,-2.5586,-2.5586,-2.5684,-2.5684,-2.5684,-2.5732,-2.6064,-2.6211,-2.6318,-2.6719,-2.707,-2.7285,-2.7434,-2.7559,-2.7754,-2.8127,-2.8747,-3.0203,-3.152,-3.2331,-3.3044,-3.4763,-3.5968,-3.6395,-3.6468,-3.6732,-3.6985,-3.7098,-3.7071,-3.6998,-3.6973,-3.6883,-3.6543,-3.6417,-3.6417,-3.6417,-3.6417,-3.6417,-3.6417,-3.6417,-3.6417,-3.648,-3.6505,-3.6518,-3.6543,-3.6568,-3.6556,-3.6531,-3.6606,-3.687,-3.696,-3.701,-3.7121,-3.7197,-3.7362,-3.7525,-3.7676,-3.7726,-3.7852,-3.799,-3.7939,-3.7914,-3.7914,-3.8065,-3.8278,-3.8617,-3.9107,-3.9383,-2.3101,-2.3101,-2.3101,-2.3101,-2.3101,-2.3101,-2.3101,-2.3101,-2.3101,-2.3101,-2.3101,-2.3101,-2.3101,-2.3101,-2.3101,-2.3101,-2.3101,-2.3101,-2.3101,-2.3101,-2.3101,-2.3101,-2.3101,-2.3101,-2.3101,-2.3101,-2.3101,-2.3101,-2.311,-2.3315,-2.3516,-2.3486,-2.3276,-2.312,-2.314,-2.3452,-2.3926,-2.4414,-2.4736,-2.4912,-2.5167,-2.5177,-2.5255,-2.5439,-2.5478,-2.5499,-2.5654,-2.5674,-2.5684,-2.5684,-2.5693,-2.5723,-2.581,-2.6221,-2.6435,-2.6543,-2.706,-2.7523,-2.7679,-2.7767,-2.7826,-2.8047,-2.831,-2.8857,-3.0162,-3.1531,-3.2694,-3.3859,-3.5247,-3.6448,-3.6883,-3.6897,-3.7086,-3.7487,-3.7613,-3.7475,-3.7362,-3.7287,-3.6935,-3.6531,-3.643,-3.6417,-3.6417,-3.6417,-3.6417,-3.6417,-3.6417,-3.6468,-3.6631,-3.6769,-3.6857,-3.6923,-3.6985,-3.7172,-3.7123,-3.7236,-3.7337,-3.74,-3.7487,-3.7613,-3.7701,-3.7713,-3.7889,-3.809,-3.8329,-3.8467,-3.8642,-3.8868,-3.8856,-3.863,-3.863,-3.8781,-3.9157,-3.9521,-3.9622,-2.3101,-2.3101,-2.3101,-2.3101,-2.3101,-2.3101,-2.3101,-2.3101,-2.3101,-2.3101,-2.3101,-2.3101,-2.3101,-2.3101,-2.3101,-2.3101,-2.3101,-2.3101,-2.3101,-2.3101,-2.3101,-2.3101,-2.3101,-2.3101,-2.3101,-2.3101,-2.3101,-2.3101,-2.312,-2.3574,-2.3701,-2.3682,-2.3633,-2.3549,-2.3627,-2.3965,-2.4482,-2.4969,-2.5254,-2.5371,-2.5654,-2.5645,-2.5635,-2.5654,-2.5645,-2.5645,-2.5674,-2.5684,-2.5684,-2.5742,-2.581,-2.5888,-2.6133,-2.6377,-2.6699,-2.7002,-2.7363,-2.7875,-2.7851,-2.7881,-2.7978,-2.8203,-2.8262,-2.8996,-3.0214,-3.1542,-3.2839,-3.4487,-3.5793,-3.682,-3.7224,-3.7299,-3.7462,-3.7826,-3.7864,-3.7751,-3.7538,-3.7387,-3.691,-3.6493,-3.6468,-3.643,-3.6568,-3.6619,-3.682,-3.682,-3.6807,-3.6958,-3.7186,-3.7312,-3.74,-3.7513,-3.7613,-3.7789,-3.7952,-3.7839,-3.7739,-3.7801,-3.7927,-3.8178,-3.8266,-3.8291,-3.8454,-3.8781,-3.8994,-3.9094,-3.9182,-3.9295,-3.927,-3.917,-3.9195,-3.9207,-3.9346,-3.9634,-3.9647,-2.3101,-2.3101,-2.3101,-2.3101,-2.3101,-2.3101,-2.3101,-2.3101,-2.3101,-2.3101,-2.3101,-2.3101,-2.3101,-2.3101,-2.3101,-2.3101,-2.3101,-2.3101,-2.3101,-2.3101,-2.3101,-2.3101,-2.3101,-2.3101,-2.3101,-2.3101,-2.3101,-2.3101,-2.3101,-2.3574,-2.376,-2.4014,-2.4189,-2.4355,-2.4424,-2.4805,-2.5086,-2.5137,-2.5518,-2.5615,-2.5674,-2.5684,-2.5684,-2.5684,-2.5684,-2.5684,-2.5684,-2.5791,-2.582,-2.5849,-2.6221,-2.6357,-2.6435,-2.708,-2.7474,-2.7601,-2.7949,-2.8213,-2.8262,-2.8262,-2.8262,-2.8281,-2.8291,-2.9049,-3.0266,-3.1637,-3.3311,-3.5243,-3.6492,-3.71,-3.74,-3.7613,-3.7852,-3.7965,-3.799,-3.7852,-3.7613,-3.74,-3.6923,-3.6606,-3.6505,-3.648,-3.6669,-3.6822,-3.7184,-3.7285,-3.7186,-3.7374,-3.7688,-3.7902,-3.799,-3.8128,-3.8253,-3.8429,-3.8517,-3.8253,-3.8153,-3.8216,-3.8404,-3.8705,-3.8931,-3.9044,-3.9245,-3.9484,-3.9471,-3.9408,-3.9521,-3.9659,-3.9546,-3.9446,-3.9546,-3.9584,-3.9685,-3.9697,-3.9697,-2.3101,-2.3101,-2.3101,-2.3101,-2.3101,-2.3101,-2.3101,-2.3101,-2.3101,-2.3101,-2.3101,-2.3101,-2.3101,-2.3101,-2.3101,-2.3101,-2.3101,-2.3101,-2.3101,-2.3101,-2.3101,-2.3101,-2.3101,-2.3101,-2.311,-2.3101,-2.3101,-2.313,-2.3101,-2.3672,-2.3994,-2.4258,-2.4814,-2.5088,-2.4951,-2.5106,-2.5213,-2.5469,-2.5615,-2.5684,-2.5684,-2.5684,-2.5693,-2.5693,-2.5703,-2.5693,-2.5742,-2.5977,-2.6103,-2.6182,-2.6543,-2.6797,-2.6875,-2.7451,-2.7676,-2.7773,-2.8057,-2.8281,-2.8301,-2.8281,-2.8291,-2.8301,-2.8398,-2.9303,-3.1338,-3.2332,-3.4121,-3.589,-3.7109,-3.7626,-3.7826,-3.7864,-3.799,-3.799,-3.7939,-3.7713,-3.7487,-3.7312,-3.701,-3.6782,-3.6606,-3.7086,-3.7387,-3.7513,-3.7764,-3.799,-3.8002,-3.7864,-3.8065,-3.8404,-3.8592,-3.8755,-3.8906,-3.9069,-3.9094,-3.8856,-3.8818,-3.8944,-3.9107,-3.9346,-3.9546,-3.9572,-3.9597,-3.9597,-3.9647,-3.9697,-3.9697,-3.9697,-3.9697,-3.9685,-3.9697,-3.9697,-3.9697,-3.9697,-3.9697,-2.3101,-2.3101,-2.3101,-2.3101,-2.3101,-2.3101,-2.3101,-2.3101,-2.3101,-2.3101,-2.3101,-2.3101,-2.3101,-2.3101,-2.3101,-2.3101,-2.3101,-2.3101,-2.3101,-2.3101,-2.3101,-2.3101,-2.3101,-2.312,-2.3227,-2.3237,-2.3379,-2.3428,-2.3637,-2.4053,-2.4492,-2.4971,-2.5362,-2.5411,-2.5361,-2.5371,-2.5439,-2.5606,-2.5684,-2.5684,-2.5684,-2.5703,-2.583,-2.5879,-2.5879,-2.5801,-2.5996,-2.6201,-2.6406,-2.6553,-2.6865,-2.7217,-2.7363,-2.7588,-2.7851,-2.7998,-2.8096,-2.8291,-2.8301,-2.8301,-2.8301,-2.8301,-2.8301,-2.9752,-3.1903,-3.2891,-3.4957,-3.6687,-3.7779,-3.7952,-3.799,-3.8002,-3.7889,-3.7877,-3.7626,-3.7387,-3.7387,-3.7211,-3.7186,-3.6958,-3.7149,-3.7688,-3.8178,-3.8316,-3.8467,-3.8668,-3.8843,-3.8655,-3.8492,-3.8806,-3.9082,-3.9195,-3.9308,-3.9396,-3.9484,-3.9484,-3.9509,-3.9659,-3.9697,-3.9697,-3.9685,-3.9647,-3.9672,-3.9697,-3.9697,-3.9697,-3.9697,-3.9697,-3.9697,-3.9697,-3.9697,-3.9697,-3.9697,-3.9697,-3.9697,-2.3101,-2.3101,-2.3101,-2.3101,-2.3101,-2.3101,-2.3101,-2.3101,-2.3101,-2.3101,-2.3101,-2.3101,-2.3101,-2.3101,-2.3101,-2.3101,-2.3101,-2.3101,-2.3101,-2.3101,-2.3101,-2.3101,-2.3101,-2.311,-2.3296,-2.3613,-2.376,-2.3838,-2.4365,-2.4648,-2.5098,-2.5469,-2.5557,-2.5606,-2.5644,-2.5635,-2.5615,-2.5664,-2.5684,-2.5684,-2.5684,-2.5684,-2.5947,-2.6055,-2.6055,-2.6113,-2.6309,-2.6553,-2.6572,-2.6807,-2.7236,-2.7539,-2.7855,-2.8066,-2.8213,-2.8281,-2.8281,-2.8291,-2.8301,-2.8301,-2.8301,-2.8354,-2.8617,-3.0307,-3.208,-3.3434,-3.5329,-3.7202,-3.8379,-3.8153,-3.8027,-3.7839,-3.7651,-3.745,-3.7186,-3.7136,-3.7211,-3.7211,-3.7249,-3.7349,-3.7751,-3.8241,-3.873,-3.8956,-3.8981,-3.9157,-3.9295,-3.9308,-3.9195,-3.9258,-3.9471,-3.9496,-3.9584,-3.9634,-3.9697,-3.9697,-3.9697,-3.9697,-3.9697,-3.9697,-3.9697,-3.9697,-3.9697,-3.9697,-3.9697,-3.9697,-3.9697,-3.9697,-3.9697,-3.9697,-3.9697,-3.9697,-3.9697,-3.9697,-3.9697,-2.3101,-2.3101,-2.3101,-2.3101,-2.3101,-2.3101,-2.3101,-2.3101,-2.3101,-2.3101,-2.3101,-2.3101,-2.3101,-2.3101,-2.3101,-2.3101,-2.3101,-2.3101,-2.3101,-2.3101,-2.3101,-2.3101,-2.3101,-2.313,-2.3418,-2.3672,-2.3867,-2.4082,-2.4453,-2.4893,-2.5117,-2.5234,-2.5567,-2.5654,-2.5684,-2.5684,-2.5684,-2.5684,-2.5684,-2.5684,-2.5703,-2.5723,-2.6055,-2.624,-2.6309,-2.6435,-2.6748,-2.709,-2.7178,-2.7434,-2.7803,-2.8096,-2.8144,-2.8232,-2.8291,-2.8291,-2.8291,-2.8301,-2.8301,-2.8301,-2.8301,-2.8627,-2.9363,-3.1074,-3.276,-3.3985,-3.5491,-3.7227,-3.8153,-3.778,-3.753,-3.7391,-3.7019,-3.6646,-3.663,-3.7033,-3.7123,-3.7437,-3.7513,-3.8002,-3.8404,-3.873,-3.9233,-3.9358,-3.9396,-3.9597,-3.9697,-3.9697,-3.9697,-3.9697,-3.9697,-3.9697,-3.9697,-3.9697,-3.9697,-3.9697,-3.9697,-3.9697,-3.9697,-3.9697,-3.9697,-3.9697,-3.9697,-3.9697,-3.9697,-3.9697,-3.9697,-3.9697,-3.9697,-3.9697,-3.9697,-3.9697,-3.9697,-3.9697,-3.9697,-2.3101,-2.3101,-2.3101,-2.3101,-2.3101,-2.3101,-2.3101,-2.3101,-2.3101,-2.3101,-2.3101,-2.3101,-2.3101,-2.3101,-2.3101,-2.3101,-2.3101,-2.3101,-2.3101,-2.3101,-2.3101,-2.3101,-2.3101,-2.3149,-2.3545,-2.3809,-2.4131,-2.4424,-2.4805,-2.5117,-2.5361,-2.541,-2.5606,-2.5645,-2.5684,-2.5684,-2.5684,-2.5684,-2.5684,-2.5684,-2.5723,-2.5889,-2.625,-2.6523,-2.6602,-2.6865,-2.7217,-2.7598,-2.7708,-2.7787,-2.8076,-2.8281,-2.8291,-2.8291,-2.8301,-2.8301,-2.8301,-2.8301,-2.8301,-2.8301,-2.8301,-2.8753,-3.0017,-3.1201,-3.2354,-3.3432,-3.5376,-3.7142,-3.7223,-3.7195,-3.7011,-3.6786,-3.6256,-3.5681,-3.6287,-3.686,-3.7224,-3.7638,-3.8103,-3.863,-3.8994,-3.9295,-3.9534,-3.9647,-3.9697,-3.9697,-3.9697,-3.9697,-3.9697,-3.9697,-3.9697,-3.9697,-3.9697,-3.9697,-3.9697,-3.9697,-3.9697,-3.9697,-3.9697,-3.9697,-3.9697,-3.9697,-3.9697,-3.9697,-3.9697,-3.9697,-3.9697,-3.9697,-3.9697,-3.9697,-3.9697,-3.9697,-3.9697,-3.9697,-3.9697,-2.3101,-2.3101,-2.3101,-2.3101,-2.3101,-2.3101,-2.3101,-2.3101,-2.3101,-2.3101,-2.3101,-2.3101,-2.3101,-2.3101,-2.3101,-2.3101,-2.3101,-2.3101,-2.3101,-2.3101,-2.3101,-2.3101,-2.3101,-2.314,-2.3535,-2.4072,-2.4492,-2.4687,-2.5382,-2.5606,-2.5625,-2.5684,-2.5674,-2.5684,-2.5684,-2.5684,-2.5684,-2.5684,-2.5684,-2.5684,-2.5781,-2.6113,-2.6553,-2.6894,-2.7031,-2.7197,-2.7568,-2.7777,-2.7767,-2.7861,-2.8027,-2.8281,-2.8301,-2.8301,-2.8301,-2.8301,-2.8301,-2.8301,-2.8301,-2.8301,-2.8301,-2.889,-3.0071,-3.0778,-3.1721,-3.3093,-3.5068,-3.6292,-3.6502,-3.6277,-3.6013,-3.6331,-3.6152,-3.5901,-3.6245,-3.7055,-3.7764,-3.8241,-3.8806,-3.9207,-3.9333,-3.9597,-3.9609,-3.9697,-3.9697,-3.9697,-3.9697,-3.9697,-3.9697,-3.9697,-3.9697,-3.9697,-3.9697,-3.9697,-3.9697,-3.9697,-3.9697,-3.9697,-3.9697,-3.9697,-3.9697,-3.9697,-3.9697,-3.9697,-3.9697,-3.9697,-3.9697,-3.971,-3.971,-3.9697,-3.9697,-3.9697,-3.971,-3.976,-3.9697,-2.3101,-2.3101,-2.3101,-2.3101,-2.3101,-2.3101,-2.3101,-2.3101,-2.3101,-2.3101,-2.3101,-2.3101,-2.3101,-2.3101,-2.3101,-2.3101,-2.3101,-2.3101,-2.3101,-2.3101,-2.3101,-2.3101,-2.3101,-2.312,-2.3442,-2.3877,-2.4326,-2.4893,-2.5499,-2.5684,-2.5684,-2.5684,-2.5684,-2.5684,-2.5684,-2.5684,-2.5684,-2.5684,-2.5762,-2.5762,-2.581,-2.5879,-2.6132,-2.6748,-2.709,-2.748,-2.7842,-2.8115,-2.8125,-2.8203,-2.8223,-2.8291,-2.8301,-2.8301,-2.8301,-2.8301,-2.8301,-2.8301,-2.8301,-2.8291,-2.8398,-2.9275,-3.0274,-3.0364,-3.12,-3.2849,-3.4162,-3.5151,-3.5497,-3.5115,-3.5129,-3.5563,-3.6007,-3.5989,-3.6321,-3.7307,-3.8291,-3.8894,-3.9484,-3.9597,-3.9685,-3.9697,-3.9697,-3.9697,-3.9697,-3.9697,-3.9697,-3.9697,-3.9697,-3.9697,-3.9697,-3.9697,-3.9697,-3.9697,-3.9697,-3.9697,-3.9697,-3.9697,-3.9697,-3.9697,-3.9722,-3.9923,-4.0074,-3.9798,-3.9697,-3.991,-3.9973,-3.9747,-3.9747,-3.9898,-3.9961,-4.0074,-3.9961,-3.9961,-3.981,-2.3101,-2.3101,-2.3101,-2.3101,-2.3101,-2.3101,-2.3101,-2.3101,-2.3101,-2.3101,-2.3101,-2.3101,-2.3101,-2.3101,-2.3101,-2.3101,-2.3101,-2.3101,-2.3101,-2.3101,-2.3101,-2.3101,-2.3101,-2.313,-2.3403,-2.3818,-2.4463,-2.5078,-2.5586,-2.5684,-2.5684,-2.5684,-2.5684,-2.5684,-2.5684,-2.5684,-2.5684,-2.5693,-2.5889,-2.5996,-2.6045,-2.623,-2.6445,-2.6973,-2.7422,-2.7812,-2.8018,-2.8301,-2.8291,-2.8291,-2.8291,-2.8291,-2.8301,-2.8301,-2.8301,-2.8301,-2.8301,-2.8301,-2.8301,-2.8344,-2.8548,-2.9635,-3.0339,-3.039,-3.059,-3.2019,-3.2529,-3.3355,-3.2793,-3.2452,-3.3101,-3.3621,-3.4351,-3.4622,-3.6356,-3.7966,-3.8705,-3.9346,-3.9622,-3.9647,-3.9697,-3.9697,-3.9697,-3.9697,-3.9697,-3.9697,-3.9697,-3.9697,-3.9697,-3.9697,-3.9697,-3.9697,-3.9697,-3.9697,-3.9697,-3.9697,-3.9697,-3.9697,-3.9785,-3.9923,-4.0099,-4.035,-4.045,-4.0337,-4.0337,-4.0526,-4.0488,-4.0275,-4.0375,-4.0651,-4.0614,-4.0538,-4.0388,-4.03,-4.0388,-2.3101,-2.3101,-2.3101,-2.3101,-2.3101,-2.3101,-2.3101,-2.3101,-2.3101,-2.3101,-2.3101,-2.3101,-2.3101,-2.3101,-2.3101,-2.3101,-2.3101,-2.3101,-2.3101,-2.3101,-2.3101,-2.3101,-2.313,-2.3198,-2.3643,-2.4121,-2.4717,-2.5215,-2.5664,-2.5684,-2.5684,-2.5684,-2.5684,-2.5684,-2.5684,-2.5684,-2.5684,-2.5801,-2.6025,-2.6299,-2.6533,-2.6797,-2.6973,-2.7334,-2.7754,-2.8193,-2.8262,-2.8301,-2.8301,-2.8301,-2.8301,-2.8301,-2.8301,-2.8301,-2.8301,-2.8301,-2.8301,-2.8301,-2.8301,-2.8291,-2.89,-2.9628,-3.0068,-3.0328,-3.0505,-3.0859,-3.1363,-3.1082,-3.0537,-3.0877,-3.1575,-3.2634,-3.3361,-3.4305,-3.6519,-3.8467,-3.9132,-3.9672,-3.9685,-3.9697,-3.9697,-3.9697,-3.9697,-3.9697,-3.9697,-3.9697,-3.9697,-3.9697,-3.9697,-3.9697,-3.9697,-3.9697,-3.9697,-3.9697,-3.9697,-3.986,-3.9923,-4.0061,-4.0199,-4.0312,-4.0475,-4.0739,-4.0899,-4.105,-4.11,-4.1103,-4.1062,-4.0978,-4.1112,-4.1279,-4.1025,-4.0862,-4.0899,-4.0927,-4.1178,-2.3101,-2.3101,-2.3101,-2.3101,-2.3101,-2.3101,-2.3101,-2.3101,-2.3101,-2.3101,-2.3101,-2.3101,-2.3101,-2.3101,-2.3101,-2.3101,-2.3101,-2.3101,-2.3101,-2.3101,-2.3101,-2.3101,-2.3237,-2.3564,-2.4141,-2.46,-2.498,-2.5293,-2.5625,-2.5684,-2.5684,-2.5684,-2.5684,-2.5684,-2.5684,-2.5684,-2.5723,-2.5879,-2.6201,-2.6475,-2.6602,-2.6865,-2.7217,-2.748,-2.7738,-2.7998,-2.8174,-2.8281,-2.8301,-2.8301,-2.8301,-2.8301,-2.8301,-2.8301,-2.8301,-2.8301,-2.8301,-2.8301,-2.8301,-2.8301,-2.8847,-2.9154,-2.9513,-2.9713,-2.9922,-3.0182,-3.0297,-2.9783,-2.9733,-3.0722,-3.1691,-3.3417,-3.4497,-3.5455,-3.7136,-3.8536,-3.9572,-3.9685,-3.9697,-3.9697,-3.9697,-3.9697,-3.9697,-3.9697,-3.9697,-3.9697,-3.9697,-3.9697,-3.971,-3.971,-3.9747,-3.9798,-3.9823,-3.9697,-3.971,-4.0162,-4.0312,-4.0463,-4.0676,-4.0915,-4.1091,-4.11,-4.13,-4.1656,-4.1501,-4.1363,-4.1388,-4.1681,-4.1501,-4.158,-4.1326,-4.1213,-4.1326,-4.1489,-4.1781]},{"header":{"parameterUnit":"m.s-1","parameterCategory":1,"la1":31.0,"la2":29.5877,"lo1":-88.7671,"lo2":-86.6584,"dy":0.0162,"dx":0.0185,"nx":115,"ny":88,"refTime":"2026-04-11T00:00:00:Z","depth":0,"parameterNumber":3,"parameterNumberName":"V-component_of_WINDS"},"data":[0.0,0.0,0.0,0.0,0.0,0.0,0.0,0.0,0.0,0.0,0.0,0.0,0.0,0.0,0.0,0.0,0.0,0.0,0.0,0.0,0.0,0.0,0.0,0.0,0.0,0.0,0.0,0.0,0.0,0.0,0.0,0.0,0.0,0.0,0.0,0.0,0.0,0.0,0.0,0.0,0.0,0.0,0.0,0.0,0.0,0.0,0.0,0.0,0.0,0.0,0.0,0.0,0.0,0.0,0.0,0.0,0.0,0.0,0.0,0.0,0.0,0.0,0.0,0.0,0.0,0.0,0.0,0.0,0.0,0.0,0.0,0.0,0.0,0.0,0.0,0.0,0.0,0.0,0.0,0.0,0.0,0.0,0.0,0.0,0.0,0.0,0.0,0.0,0.0,0.0,0.0,0.0,0.0,0.0,0.0,0.0,0.0,0.0,0.0,0.0,0.0,0.0,0.0,0.0,0.0,0.0,0.0,0.0,0.0,0.0,0.0,0.0,0.0,0.0,0.0,0.0,0.0,0.0,0.0,0.0,0.0,0.0,0.0,0.0,0.0,0.0,0.0,0.0,0.0,0.0,0.0,0.0,0.0,0.0,0.0,0.0,0.0,0.0,0.0,0.0,0.0,0.0,0.0,0.0,0.0,0.0,0.0,0.0,0.0,0.0,0.0,0.0,0.0,0.0,0.0,0.0,0.0,0.0,0.0,0.0,0.0,0.0,0.0,0.0,0.0,0.0,0.0,0.0,0.0,0.0,0.0,0.0,0.0,0.0,0.0,0.0,0.0,0.0,0.0,0.0,0.0,0.0,0.0,0.0,0.0,0.0,0.0,0.0,0.0,0.0,0.0,0.0,0.0,0.0,0.0,0.0,0.0,0.0,0.0,0.0,0.0,0.0,0.0,0.0,0.0,0.0,0.0,0.0,0.0,0.0,0.0,0.0,0.0,0.0,0.0,0.0,0.0,0.0,0.0,0.0,0.0,0.0,0.0,0.0,0.0,0.0,0.0,0.0,0.0,0.0,0.0,0.0,0.0,0.0,0.0,0.0,0.0,0.0,0.0,0.0,0.0,0.0,0.0,0.0,0.0,0.0,0.0,0.0,0.0,0.0,0.0,0.0,0.0,0.0,0.0,0.0,0.0,0.0,0.0,0.0,0.0,0.0,0.0,0.0,0.0,0.0,0.0,0.0,0.0,0.0,0.0,0.0,0.0,0.0,0.0,0.0,0.0,0.0,0.0,0.0,0.0,0.0,0.0,0.0,0.0,0.0,0.0,0.0,0.0,0.0,0.0,0.0,0.0,0.0,0.0,0.0,0.0,0.0,0.0,0.0,0.0,0.0,0.0,0.0,0.0,0.0,0.0,0.0,0.0,0.0,0.0,0.0,0.0,0.0,0.0,0.0,0.0,0.0,0.0,0.0,0.0,0.0,0.0,0.0,0.0,0.0,0.0,0.0,0.0,0.0,0.0,0.0,0.0,0.0,0.0,0.0,0.0,0.0,0.0,0.0,0.0,0.0,0.0,0.0,0.0,0.0,0.0,0.0,0.0,0.0,0.0,0.0,0.0,0.0,0.0,0.0,0.0,0.0,0.0,0.0,0.0,0.0,0.0,0.0,0.0,0.0,0.0,0.0,0.0,0.0,0.0,0.0,0.0,0.0,0.0,0.0,0.0,0.0,0.0,0.0,0.0,0.0,0.0,0.0,0.0,0.0,0.0,0.0,0.0,0.0,0.0,0.0,0.0,0.0,0.0,0.0,0.0,0.0,0.0,0.0,0.0,0.0,0.0,0.0,0.0,0.0,0.0,0.0,0.0,0.0,0.0,0.0,0.0,0.0,0.0,0.0,0.0,0.0,0.0,0.0,0.0,0.0,0.0,0.0,0.0,0.0,0.0,0.0,0.0,0.0,0.0,0.0,0.0,0.0,0.0,0.0,0.0,0.0,0.0,0.0,0.0,0.0,0.0,0.0,0.0,0.0,0.0,0.0,0.0,0.0,0.0,0.0,0.0,0.0,0.0,0.0,0.0,0.0,0.0,0.0,0.0,0.0,0.0,0.0,0.0,0.0,0.0,0.0,0.0,0.0,0.0,0.0,0.0,0.0,0.0,0.0,0.0,0.0,0.0,0.0,0.0,0.0,0.0,0.0,0.0,0.0,0.0,0.0,0.0,0.0,0.0,0.0,0.0,0.0,0.0,0.0,0.0,0.0,0.0,0.0,0.0,0.0,0.0,0.0,0.0,0.0,0.0,0.0,0.0,0.0,0.0,0.0,0.0,0.0,0.0,0.0,0.0,0.0,0.0,0.0,0.0,0.0,0.0,0.0,0.0,0.0,0.0,0.0,0.0,0.0,0.0,0.0,0.0,0.0,0.0,0.0,0.0,0.0,0.0,0.0,0.0,0.0,0.0,0.0,0.0,0.0,0.0,0.0,0.0,0.0,0.0,0.0,0.0,0.0,0.0,0.0,0.0,0.0,0.0,0.0,0.0,0.0,0.0,0.0,0.0,0.0,0.0,0.0,0.0,0.0,0.0,0.0,0.0,0.0,0.0,0.0,0.0,0.0,0.0,0.0,0.0,0.0,0.0,0.0,0.0,0.0,0.0,0.0,0.0,0.0,0.0,0.0,0.0,0.0,0.0,0.0,0.0,0.0,0.0,0.0,0.0,0.0,0.0,0.0,0.0,0.0,0.0,0.0,0.0,0.0,0.0,0.0,0.0,0.0,0.0,0.0,0.0,0.0,0.0,0.0,0.0,0.0,0.0,0.0,0.0,0.0,0.0,0.0,0.0,0.0,0.0,0.0,0.0,0.0,0.0,0.0,0.0,0.0,0.0,0.0,0.0,0.0,0.0,0.0,0.0,0.0,0.0,0.0,0.0,0.0,0.0,0.0,0.0,0.0,0.0,0.0,0.0,0.0,0.0,0.0,0.0,0.0,0.0,0.0,0.0,0.0,0.0,0.0,0.0,0.0,0.0,0.0,0.0,0.0,0.0,0.0,0.0,0.0,0.0,0.0,0.0,0.0,0.0,0.0,0.0,0.0,0.0,0.0,0.0,0.0,0.0,0.0,0.0,0.0,0.0,0.0,0.0,0.0,0.0,0.0,0.0,0.0,0.0,0.0,0.0,0.0,0.0,0.0,0.0,0.0,0.0,0.0,0.0,0.0,0.0,0.0,0.0,0.0,0.0,0.0,0.0,0.0,0.0,0.0,0.0,0.0,0.0,0.0,0.0,0.0,0.0,0.0,0.0,0.0,0.0,0.0,0.0,0.0,0.0,0.0,0.0,0.0,0.0,0.0,0.0,0.0,0.0,0.0,0.0,0.0,0.0,0.0,0.0,0.0,0.0,0.0,0.0,0.0,0.0,0.0,0.0,0.0,0.0,0.0,0.0,0.0,0.0,0.0,0.0,0.0,0.0,0.0,0.0,0.0,0.0,0.0,0.0,0.0,0.0,0.0,0.0,0.0,0.0,0.0,0.0,0.0,0.0,0.0,0.0,0.0,0.0,0.0,0.0,0.0,0.0,0.0,0.0,0.0,0.0,0.0,0.0,0.0,0.0,0.0,0.0,0.0,0.0,0.0,0.0,0.0,0.0,0.0,0.0,0.0,0.0,0.0,0.0,0.0,0.0,0.0,0.0,0.0,0.0,0.0,0.0,0.0,0.0,0.0,0.0,0.0,0.0,0.0,0.0,0.0,0.0,0.0,0.0,0.0,0.0,0.0,0.0,0.0,0.0,0.0,0.0,0.0,0.0,0.0,0.0,0.0,0.0,0.0,0.0,0.0,0.0,0.0,0.0,0.0,0.0,0.0,0.0,0.0,0.0,0.0,0.0,0.0,0.0,0.0,0.0,0.0,0.0,0.0,0.0,0.0,0.0,0.0,0.0,0.0,0.0,0.0,0.0,0.0,0.0,0.0,0.0,0.0,0.0,0.0,0.0,0.0,0.0,0.0,0.0,0.0,0.0,0.0,0.0,0.0,0.0,0.0,0.0,0.0,0.0,0.0,0.0,0.0,0.0,0.0,0.0,0.0,0.0,0.0,0.0,0.0,0.0,0.0,0.0,0.0,0.0,0.0,0.0,0.0,0.0,0.0,0.0,0.0,0.0,0.0,0.0,0.0,0.0,0.0,0.0,0.0,0.0,0.0,0.0,0.0,0.0,0.0,0.0,0.0,0.0,0.0,0.0,0.0,0.0,0.0,0.0,0.0,0.0,0.0,0.0,0.0,0.0,0.0,0.0,0.0,0.0,0.0,0.0,0.0,0.0,0.0,0.0,0.0,0.8499,0.0,0.0,0.0,0.0,0.0,0.0,0.0,0.0,0.0,0.0,0.0,0.0,0.0,0.0,0.0,0.0,0.0,0.0,0.0,0.0,0.0,0.0,0.0,0.0,0.0,0.0,0.0,0.0,0.0,0.0,0.0,0.0,0.0,0.0,0.0,0.0,0.0,0.0,0.0,0.0,0.0,0.0,0.0,0.0,0.0,0.0,0.0,0.0,0.0,0.0,0.0,0.0,0.0,0.0,0.0,0.0,0.0,0.0,0.0,0.0,0.0,0.0,0.0,0.0,0.0,0.0,0.0,0.0,0.0,0.0,0.0,0.0,0.0,0.0,0.0,0.0,0.0,0.0,0.0,0.0,0.0,0.0,0.0,0.0,0.0,0.0,0.0,0.0,0.0,0.0,0.0,0.0,0.0,0.0,0.0,0.0,0.0,0.0,0.0,0.0,0.0,0.0,0.0,0.0,0.0,0.0,0.0,0.0,0.0,0.0,0.8937,0.8937,0.8937,0.8743,0.8496,0.0,0.0,0.0,0.0,0.0,0.0,0.0,0.0,0.0,0.0,0.0,0.0,0.0,0.0,0.0,0.0,0.0,0.0,0.0,0.0,0.0,0.0,0.0,0.0,0.0,0.0,0.0,0.0,0.0,0.0,0.0,0.0,0.0,0.0,0.0,0.0,0.0,0.0,0.0,0.0,0.0,0.0,0.0,0.0,0.0,0.0,0.0,0.0,0.0,0.0,0.0,0.0,0.0,0.0,0.0,0.0,0.0,0.0,0.0,0.0,0.0,0.0,0.0,0.0,0.0,0.0,0.0,0.0,0.0,0.0,0.0,0.0,0.0,0.0,0.0,0.0,0.0,0.0,0.0,0.0,0.0,0.0,0.0,0.0,0.0,0.0,0.0,0.0,0.0,0.0,0.0,0.0,0.0,0.0,0.0,0.0,0.0,0.0,0.0,0.0,0.0,0.0,0.0,0.0,0.0,0.0,0.0,0.0,0.0,0.0,0.0,0.0,0.8937,0.8798,0.8492,0.0,0.0,0.0,0.0,0.0,0.0,0.0,0.0,0.0,0.0,0.0,0.0,0.0,0.0,0.0,0.0,0.0,0.0,0.0,0.0,0.0,0.0,0.0,0.0,0.0,0.0,0.0,0.0,0.0,0.0,0.0,0.0,0.0,0.0,0.0,0.0,0.0,0.0,0.0,0.0,0.0,0.0,0.0,0.0,0.0,0.0,0.0,0.0,0.0,0.0,0.0,0.0,0.0,0.0,0.0,0.0,0.0,0.0,0.0,0.0,0.0,0.0,0.0,0.0,0.0,0.0,0.0,0.0,0.0,0.0,0.0,0.0,0.0,0.0,0.0,0.0,0.0,0.0,0.0,0.0,0.0,0.0,0.0,0.0,0.0,0.0,0.0,0.0,0.0,0.0,0.0,0.0,0.0,0.0,0.0,0.0,0.0,0.0,0.0,0.0,0.0,0.0,0.0,0.0,0.0,0.0,0.0,0.0,0.0,0.0,0.8937,0.8937,0.8881,0.0,0.8499,0.0,0.0,0.0,0.0,0.0,0.0,0.0,0.0,0.0,0.0,0.0,0.0,0.0,0.0,0.0,0.0,0.0,0.0,0.0,0.0,0.0,0.0,0.0,0.0,0.0,0.0,0.0,0.0,0.0,0.0,0.0,0.0,0.0,0.0,0.0,0.0,0.0,0.0,0.0,0.0,0.0,0.0,0.0,0.0,0.0,0.0,0.0,0.0,0.0,0.0,0.0,0.0,0.0,0.0,0.0,0.0,0.0,0.0,0.0,0.0,0.0,0.0,0.0,0.0,0.0,0.0,0.0,0.0,0.0,0.0,0.0,0.0,0.0,0.0,0.0,0.0,0.0,0.0,0.0,0.0,0.0,0.0,0.0,0.0,0.0,0.0,0.0,0.0,0.0,0.0,0.0,0.0,0.0,0.0,0.0,0.0,0.0,0.0,0.0,0.0,0.0,0.0,0.0,0.0,0.0,0.0,0.0,0.0,0.0,0.0,0.8937,0.8937,0.8764,0.8611,0.0,0.0,0.0,0.0,0.0,0.0,0.0,0.0,0.0,0.0,0.0,0.0,0.0,0.0,0.0,0.0,0.0,0.0,0.0,0.0,0.0,0.0,0.0,0.0,0.0,0.0,0.0,0.0,0.0,0.0,0.0,0.0,0.0,0.0,0.0,0.0,0.0,0.0,0.0,0.0,0.0,0.0,0.0,0.0,0.0,0.0,0.0,0.0,0.0,0.0,0.0,0.0,0.0,0.0,0.0,0.0,0.0,0.0,0.0,0.0,0.0,0.0,0.0,0.0,0.0,0.0,0.0,0.0,0.0,0.0,0.0,0.0,0.0,0.0,0.0,0.0,0.0,0.0,0.0,0.0,0.0,0.0,0.0,0.0,0.0,0.0,0.0,0.0,0.0,0.0,0.0,0.0,0.0,0.0,0.0,0.0,0.0,0.0,0.0,0.0,0.0,0.0,0.0,0.0,0.0,0.0,0.0,0.0,0.0,0.0,0.8937,0.8937,0.893,0.8726,0.8567,0.8486,0.0,0.0,0.0,0.0,0.0,0.0,0.0,0.0,0.0,0.0,0.0,0.0,0.0,0.0,0.0,0.0,0.0,0.0,0.0,0.0,0.0,0.0,0.0,0.0,0.0,0.0,0.0,0.0,0.0,0.0,0.0,0.0,0.0,0.0,0.0,0.0,0.0,0.0,0.0,0.0,0.0,0.0,0.0,0.0,0.0,0.0,0.0,0.0,0.0,0.0,0.0,0.0,0.0,0.0,0.0,0.0,0.0,0.0,0.0,0.0,0.0,0.0,0.0,0.0,0.0,0.0,0.0,0.0,0.0,0.0,0.0,0.0,0.0,0.0,0.0,0.0,0.0,0.0,0.0,0.0,0.0,0.0,0.0,0.0,0.0,0.0,0.0,0.0,0.0,0.0,0.0,0.0,0.0,0.0,0.0,0.0,0.0,0.0,0.0,0.0,0.0,0.0,0.0,0.0,0.0,0.0,0.0,0.0,0.0,0.8937,0.8937,0.8937,0.8865,0.8781,0.0,0.0,0.0,0.0,0.0,0.0,0.0,0.0,0.0,0.0,0.0,0.0,0.0,0.0,0.0,0.0,0.0,0.0,0.0,0.0,0.0,0.0,0.0,0.0,0.0,0.0,0.0,0.0,0.0,0.0,0.0,0.0,0.0,0.0,0.0,0.0,0.0,0.0,0.0,0.0,0.0,0.0,0.0,0.0,0.0,0.0,0.0,0.0,0.0,0.0,0.0,0.0,0.0,0.0,0.0,0.0,0.0,0.0,0.0,0.0,0.0,0.0,0.0,0.0,0.0,0.0,0.0,0.0,0.0,0.0,0.0,0.0,0.0,0.0,0.0,0.0,0.0,0.0,0.0,0.0,0.0,0.0,0.0,0.0,0.0,0.0,0.0,0.0,0.0,0.0,0.0,0.0,0.0,0.0,0.0,0.0,0.0,0.0,0.0,0.0,0.0,0.0,0.0,0.0,0.0,0.0,0.0,0.0,0.0,0.8937,0.8937,0.8937,0.8878,0.875,0.8554,0.0,0.0,0.0,0.0,0.0,0.0,0.0,0.0,0.0,0.0,0.0,0.0,0.0,0.0,0.0,0.0,0.0,0.0,0.0,0.0,0.0,0.0,0.0,0.0,0.0,0.0,0.0,0.0,0.0,0.0,0.0,0.0,0.0,0.0,0.0,0.0,0.0,0.0,0.0,0.0,0.0,0.0,0.0,0.0,0.0,0.0,0.0,0.0,0.0,0.0,0.0,0.0,0.0,0.0,0.0,0.0,0.0,0.0,0.0,0.0,0.0,0.0,0.0,0.0,0.0,0.0,0.0,0.0,0.0,0.0,0.0,0.0,0.0,0.0,0.0,0.0,0.0,0.0,0.0,0.0,0.0,0.0,0.0,0.0,0.0,0.0,0.0,0.0,0.0,0.0,0.0,0.0,0.0,0.0,0.0,0.0,0.0,0.0,0.0,0.0,0.0,0.0,0.0,0.0,0.0,0.0,0.0,0.0,0.0,0.8937,0.0,0.8937,0.0,0.8689,0.8486,0.0,0.0,0.0,0.0,0.0,0.0,0.0,0.0,0.0,0.0,0.0,0.0,0.0,0.0,0.0,0.0,0.0,0.0,0.0,0.0,0.0,0.0,0.0,0.0,0.0,0.0,0.0,0.0,0.0,0.0,0.0,0.0,0.0,0.0,0.0,0.0,0.0,0.0,0.0,0.0,0.0,0.0,0.0,0.0,0.0,0.0,0.0,0.0,0.0,0.0,0.0,0.0,0.0,0.0,0.0,0.0,0.0,0.0,0.0,0.0,0.0,0.0,0.0,0.0,0.0,0.0,0.0,0.0,0.0,0.0,0.0,0.0,0.0,0.0,0.0,0.0,0.0,0.0,0.0,0.0,0.0,0.0,0.0,0.0,0.0,0.0,0.0,0.0,0.0,0.0,0.0,0.0,0.0,0.0,0.0,0.0,0.0,0.0,0.0,0.0,0.0,0.0,0.0,0.0,0.0,0.0,0.0,0.0,0.8937,0.8937,0.8937,0.8937,0.8878,0.8781,0.8628,0.0,0.0,0.0,0.0,0.0,0.0,0.0,0.0,0.0,0.0,0.0,0.0,0.0,0.0,0.0,0.0,0.0,0.0,0.0,0.0,0.0,0.0,0.0,0.0,0.0,0.0,0.0,0.0,0.0,0.0,0.0,0.0,0.0,0.0,0.0,0.0,0.0,0.0,0.0,0.0,0.0,0.0,0.0,0.0,0.0,0.0,0.0,0.0,0.0,0.0,0.0,0.0,0.0,0.0,0.0,0.0,0.0,0.0,0.0,0.0,0.0,0.0,0.0,0.0,0.0,0.0,0.0,0.0,0.0,0.0,0.0,0.0,0.0,0.0,0.0,0.0,0.0,0.0,0.0,0.0,0.0,0.0,0.0,0.0,0.0,0.0,0.0,0.0,0.0,0.0,0.0,0.0,0.0,0.0,0.0,0.0,0.0,0.0,0.0,0.0,0.0,0.0,0.0,0.0,0.0,0.0,0.0,0.0,0.0,0.8937,0.8937,0.8937,0.8875,0.8689,0.8486,0.0,0.0,0.0,0.0,0.0,0.0,0.0,0.0,0.0,0.0,0.0,0.0,0.0,0.0,0.0,0.0,0.0,0.0,0.0,0.0,0.0,0.0,0.0,0.0,0.0,0.0,0.0,0.0,0.0,0.0,0.0,0.0,0.0,0.0,0.0,0.0,0.0,0.0,0.0,0.0,0.0,0.0,0.0,0.0,0.0,0.0,0.0,0.0,0.0,0.0,0.0,0.0,0.0,0.0,0.0,0.0,0.0,0.0,0.0,0.0,0.0,0.0,0.0,0.0,0.0,0.0,0.0,0.0,0.0,0.0,0.0,0.0,0.0,0.0,0.0,0.0,0.0,0.0,0.0,0.0,0.0,0.0,0.0,0.0,0.0,0.0,0.0,0.0,0.0,0.0,0.0,0.0,0.0,0.0,0.0,0.0,0.0,0.0,0.0,0.0,0.0,0.0,0.0,0.0,0.0,0.0,0.0,0.0,0.0,0.9783,0.9293,0.9018,0.9018,0.8781,0.8554,0.8353,0.0,0.0,0.0,0.0,0.0,0.0,0.0,0.0,0.0,0.0,0.0,0.0,0.0,0.0,0.0,0.0,0.0,0.0,0.0,0.0,0.0,0.0,0.0,0.0,0.0,0.0,0.0,0.0,0.0,0.0,0.0,0.0,0.0,0.0,0.0,0.0,0.0,0.0,0.0,0.0,0.0,0.0,0.0,0.0,0.0,0.0,0.0,0.0,0.0,0.0,0.0,0.0,0.0,0.0,0.0,0.0,0.0,0.0,0.0,0.0,0.0,0.0,0.0,0.0,0.0,0.0,0.0,0.0,0.0,0.0,0.0,0.0,0.0,0.0,0.0,0.0,0.0,0.0,0.0,0.0,0.0,0.0,0.0,0.0,0.0,0.0,0.0,0.0,0.0,0.0,0.0,0.0,0.0,0.0,0.0,0.0,0.0,0.0,0.0,0.0,0.0,0.0,0.0,0.0,0.0,0.0,0.0,0.0,1.1328,1.0009,0.9344,0.9221,0.9015,0.8801,0.0,0.0,0.0,0.0,0.0,0.0,0.0,0.0,0.0,0.0,0.0,0.0,0.0,0.0,0.0,0.0,0.0,0.0,0.0,0.0,0.0,0.0,0.0,0.0,0.0,0.0,0.0,0.0,0.0,0.0,0.0,0.0,0.0,0.0,0.0,0.0,0.0,0.0,0.0,0.0,0.0,0.0,0.0,0.0,0.0,0.0,0.0,0.0,0.0,0.0,0.0,0.0,0.0,0.0,0.0,0.0,0.0,0.0,0.0,0.0,0.0,0.0,0.0,0.0,0.0,0.0,0.0,0.0,0.0,0.0,0.0,0.0,0.0,0.0,0.0,0.0,0.0,0.0,0.0,0.0,0.0,0.0,0.0,0.0,0.0,0.0,0.0,0.0,0.0,0.0,0.0,0.0,0.0,0.0,0.0,0.0,0.0,0.0,0.0,0.0,0.0,0.0,0.0,0.0,0.0,0.0,0.0,0.0,0.0,1.1522,1.1314,1.0636,0.9378,0.9076,0.8849,0.0,0.0,0.0,0.0,0.0,0.0,0.0,0.0,0.0,0.0,0.0,0.0,0.0,0.0,0.0,0.0,0.0,0.0,0.0,0.0,0.0,0.0,0.0,0.0,0.0,0.0,0.0,0.0,0.0,0.0,0.0,0.0,0.0,0.0,0.0,0.0,0.0,0.0,0.0,0.0,0.0,0.0,0.0,0.0,0.0,0.0,0.0,0.0,0.0,0.0,0.0,0.0,0.0,0.0,0.0,0.0,0.0,0.0,0.0,0.0,0.0,0.0,0.0,0.0,0.0,0.0,0.0,0.0,0.0,0.0,0.0,0.0,0.0,0.0,0.0,0.0,0.0,0.0,0.0,0.0,0.0,0.0,0.0,0.0,0.0,0.0,0.0,0.0,0.0,0.0,0.0,0.0,0.0,0.0,0.0,0.0,0.0,0.0,0.0,0.0,0.0,0.0,0.0,0.0,0.0,0.0,0.0,0.0,1.43,1.3473,1.3194,1.2591,1.1607,0.9956,0.9025,0.0,0.0,0.0,0.0,0.0,0.0,0.0,0.0,0.0,0.0,0.0,0.0,0.0,0.0,0.0,0.0,0.0,0.0,0.0,0.0,0.0,0.0,0.0,0.0,0.0,0.0,0.0,0.0,0.0,0.0,0.0,0.0,0.0,0.0,0.0,0.0,0.0,0.0,0.0,0.0,0.0,0.0,0.0,0.0,0.0,0.0,0.0,0.0,0.0,0.0,0.0,0.0,0.0,0.0,0.0,0.0,0.0,0.0,0.0,0.0,0.0,0.0,0.0,0.0,0.0,0.0,0.0,0.0,0.0,0.0,0.0,0.0,0.0,0.0,0.0,0.0,0.0,0.0,0.0,0.0,0.0,0.0,0.0,0.0,0.0,0.0,0.0,0.0,0.0,0.0,0.0,0.0,0.0,0.0,0.0,0.0,0.0,0.0,0.0,0.0,0.0,0.0,0.0,0.0,0.0,0.0,0.0,0.0,1.626,1.6092,1.5305,1.4777,1.4535,1.1395,0.9467,0.0,0.0,0.0,0.0,0.0,0.0,0.0,0.0,0.0,0.0,0.0,0.0,0.0,0.0,0.0,0.0,0.0,0.0,0.0,0.0,0.0,0.0,0.0,0.0,0.0,0.0,0.0,0.0,0.0,0.0,0.0,0.0,0.0,0.0,0.0,0.0,0.0,0.0,0.0,0.0,0.0,0.0,0.0,0.0,0.0,0.0,0.0,0.0,0.0,0.0,0.0,0.0,0.0,0.0,0.0,0.0,0.0,0.0,0.0,0.0,0.0,0.0,0.0,0.0,0.0,0.0,0.0,0.0,0.0,0.0,0.0,0.0,0.0,0.0,0.0,0.0,0.0,0.0,0.0,0.0,0.0,0.0,0.0,0.0,0.0,0.0,0.0,0.0,0.0,0.0,0.0,0.0,0.0,0.0,0.0,0.0,0.0,0.0,0.0,0.0,0.0,0.0,0.0,0.0,0.0,0.0,0.0,0.0,1.734,1.6154,1.6356,1.5902,1.4604,1.244,1.1094,0.0,0.0,0.0,0.0,0.0,0.0,0.0,0.0,0.0,0.0,0.0,0.0,0.0,0.0,0.0,0.0,0.0,0.0,0.0,0.0,0.0,0.0,0.0,0.0,0.0,0.0,0.0,0.0,0.0,0.0,0.0,0.0,0.0,0.0,0.0,0.0,0.0,0.0,0.0,0.0,0.0,0.0,0.0,0.0,0.0,0.0,0.0,0.0,1.7909,0.0,0.0,0.0,0.0,0.0,0.0,0.0,0.0,0.0,0.0,0.0,0.0,0.0,0.0,0.0,0.0,0.0,0.0,0.0,0.0,0.0,0.0,0.0,0.0,0.0,0.0,0.0,0.0,0.0,0.0,0.0,0.0,0.0,0.0,0.0,0.0,0.0,0.0,0.0,0.0,0.0,0.0,0.0,0.0,0.0,0.0,0.0,0.0,0.0,0.0,0.0,0.0,0.0,0.0,0.0,0.0,0.0,0.0,0.0,1.8148,1.7485,1.7885,1.7747,1.6844,1.5082,1.3249,0.0,0.0,0.0,0.0,0.0,0.0,0.0,0.0,0.0,0.0,0.0,0.0,0.0,0.0,0.0,0.0,0.0,0.0,0.0,0.0,0.0,0.0,0.0,0.0,0.0,0.0,0.0,0.0,0.0,0.0,0.0,0.0,0.0,0.0,0.0,0.0,0.0,0.0,0.0,0.0,0.0,0.0,0.0,0.0,0.0,0.0,0.0,0.0,0.0,0.0,0.0,0.0,0.0,0.0,0.0,0.0,0.0,0.0,0.0,0.0,0.0,0.0,0.0,0.0,0.0,0.0,0.0,0.0,0.0,0.0,0.0,0.0,0.0,0.0,0.0,0.0,0.0,0.0,0.0,0.0,0.0,0.0,0.0,0.0,0.0,0.0,0.0,0.0,0.0,0.0,0.0,0.0,0.0,0.0,0.0,0.0,0.0,0.0,0.0,0.0,0.0,0.0,0.0,0.0,0.0,0.0,0.0,1.829,1.8584,1.8918,1.9212,1.9424,1.9359,1.7842,1.549,1.2334,0.0,0.0,0.0,0.0,0.0,0.0,0.0,0.0,0.0,0.0,0.0,0.0,0.0,0.0,0.0,0.0,0.0,0.0,0.0,0.0,0.0,0.0,0.0,0.0,0.0,0.0,0.0,0.0,0.0,0.0,0.0,0.0,0.0,0.0,0.0,0.0,0.0,0.0,2.2156,2.202,0.0,0.0,0.0,0.0,0.0,0.0,0.0,0.0,1.9384,0.0,0.0,0.0,0.0,0.0,0.0,0.0,0.0,0.0,0.0,0.0,0.0,0.0,0.0,0.0,0.0,0.0,0.0,0.0,0.0,0.0,0.0,0.0,0.0,0.0,0.0,0.0,0.0,0.0,0.0,0.0,0.0,0.0,0.0,0.0,0.0,0.0,0.0,0.0,0.0,0.0,0.0,0.0,0.0,0.0,0.0,0.0,0.0,0.0,0.0,0.0,0.0,0.0,0.0,0.0,0.0,1.7982,1.8022,1.8357,1.8911,1.9212,1.9424,1.9417,1.8605,1.7314,1.5395,0.0,0.0,0.0,0.0,0.0,0.0,0.0,0.0,0.0,0.0,0.0,0.0,0.0,0.0,0.0,0.0,0.0,0.0,0.0,0.0,0.0,0.0,0.0,0.0,0.0,0.0,0.0,0.0,0.0,0.0,0.0,0.0,0.0,0.0,0.0,0.0,0.0,0.0,0.0,2.3461,2.3136,0.0,0.0,0.0,0.0,0.0,0.0,0.0,0.0,2.1354,0.0,0.0,0.0,0.0,0.0,0.0,0.0,0.0,0.0,0.0,0.0,0.0,0.0,0.0,0.0,0.0,0.0,0.0,0.0,0.0,0.0,0.0,0.0,0.0,0.0,0.0,0.0,0.0,0.0,0.0,0.0,0.0,0.0,0.0,0.0,0.0,0.0,0.0,0.0,0.0,0.0,0.0,0.0,0.0,0.0,0.0,0.0,0.0,0.0,0.0,0.0,0.0,0.0,0.0,0.0,1.8016,1.8183,1.8551,1.9132,1.9292,1.9424,1.941,1.8798,1.8068,0.0,0.0,0.0,0.0,0.0,0.0,0.0,0.0,0.0,0.0,0.0,0.0,0.0,0.0,0.0,0.0,0.0,0.0,0.0,0.0,0.0,0.0,0.0,0.0,0.0,0.0,0.0,0.0,0.0,0.0,0.0,0.0,0.0,0.0,0.0,0.0,0.0,0.0,0.0,0.0,2.5592,2.5193,2.5601,0.0,0.0,0.0,0.0,0.0,0.0,2.2959,2.2432,0.0,0.0,0.0,0.0,0.0,0.0,0.0,0.0,0.0,0.0,0.0,0.0,0.0,0.0,0.0,0.0,0.0,0.0,0.0,0.0,0.0,0.0,0.0,0.0,0.0,0.0,0.0,0.0,0.0,0.0,0.0,0.0,0.0,0.0,0.0,0.0,0.0,0.0,0.0,0.0,0.0,0.0,0.0,0.0,0.0,0.0,0.0,0.0,0.0,0.0,0.0,0.0,0.0,0.0,0.0,1.8796,1.8803,1.9145,1.9832,1.9533,1.9339,1.9272,1.8764,1.8323,0.0,0.0,0.0,0.0,0.0,0.0,0.0,0.0,0.0,0.0,0.0,0.0,0.0,0.0,0.0,0.0,0.0,0.0,0.0,0.0,0.0,0.0,0.0,0.0,0.0,0.0,0.0,0.0,0.0,0.0,0.0,0.0,0.0,0.0,0.0,0.0,0.0,0.0,0.0,0.0,0.0,2.7241,2.6769,2.6053,0.0,0.0,0.0,0.0,2.4829,2.4233,0.0,0.0,0.0,0.0,0.0,0.0,0.0,0.0,0.0,0.0,0.0,0.0,0.0,0.0,0.0,0.0,0.0,0.0,0.0,0.0,0.0,0.0,0.0,0.0,0.0,0.0,0.0,0.0,0.0,0.0,0.0,0.0,0.0,0.0,0.0,0.0,0.0,0.0,0.0,0.0,0.0,0.0,0.0,0.0,0.0,0.0,0.0,0.0,0.0,0.0,0.0,0.0,0.0,0.0,0.0,0.0,2.1547,2.0484,2.0372,2.1257,2.0083,1.9239,1.8978,1.8664,1.8223,0.0,0.0,0.0,0.0,0.0,0.0,0.0,0.0,0.0,0.0,0.0,0.0,0.0,0.0,0.0,0.0,0.0,0.0,0.0,0.0,0.0,0.0,0.0,0.0,0.0,0.0,0.0,0.0,0.0,0.0,0.0,0.0,0.0,0.0,0.0,0.0,0.0,0.0,0.0,0.0,0.0,2.8549,2.8116,2.767,2.7162,0.0,0.0,2.7135,2.7292,2.7752,0.0,0.0,0.0,0.0,0.0,0.0,0.0,0.0,0.0,0.0,0.0,0.0,0.0,0.0,0.0,0.0,0.0,0.0,0.0,0.0,0.0,0.0,0.0,0.0,0.0,0.0,0.0,0.0,0.0,0.0,0.0,0.0,0.0,0.0,0.0,0.0,0.0,0.0,0.0,0.0,0.0,0.0,0.0,0.0,0.0,0.0,0.0,0.0,0.0,0.0,0.0,0.0,0.0,0.0,0.0,2.1164,2.1831,2.1675,2.1881,2.2442,2.1092,2.0167,1.9805,1.8639,1.7849,0.0,0.0,0.0,0.0,0.0,0.0,0.0,0.0,0.0,0.0,0.0,0.0,0.0,0.0,0.0,0.0,0.0,0.0,0.0,0.0,0.0,0.0,0.0,0.0,0.0,0.0,0.0,0.0,0.0,0.0,0.0,0.0,0.0,0.0,0.0,0.0,0.0,0.0,0.0,0.0,0.0,0.0,2.831,2.8135,0.0,0.0,0.0,2.7728,2.7728,0.0,0.0,0.0,0.0,0.0,0.0,0.0,0.0,0.0,0.0,0.0,0.0,0.0,0.0,0.0,0.0,0.0,0.0,0.0,0.0,0.0,0.0,0.0,0.0,0.0,0.0,0.0,0.0,0.0,0.0,0.0,0.0,0.0,0.0,0.0,0.0,0.0,0.0,0.0,0.0,0.0,0.0,0.0,0.0,0.0,0.0,0.0,0.0,0.0,0.0,0.0,0.0,0.0,0.0,0.0,0.0,0.0,2.2529,2.2859,2.3216,2.3569,2.2166,2.1308,2.0864,1.9488,0.0,0.0,0.0,0.0,0.0,0.0,0.0,0.0,0.0,0.0,0.0,0.0,0.0,0.0,0.0,0.0,0.0,0.0,0.0,0.0,0.0,0.0,0.0,0.0,0.0,0.0,0.0,2.1396,0.0,0.0,0.0,0.0,0.0,0.0,0.0,0.0,0.0,0.0,0.0,0.0,0.0,0.0,2.9083,2.927,2.9049,2.8937,0.0,0.0,2.7914,2.7969,2.8525,2.8545,0.0,0.0,0.0,0.0,0.0,0.0,0.0,0.0,0.0,0.0,0.0,0.0,0.0,0.0,0.0,0.0,0.0,0.0,0.0,0.0,0.0,0.0,0.0,0.0,0.0,0.0,0.0,0.0,0.0,0.0,0.0,0.0,0.0,0.0,0.0,0.0,0.0,0.0,0.0,0.0,0.0,0.0,0.0,0.0,0.0,0.0,0.0,0.0,0.0,0.0,0.0,0.0,0.0,0.0,0.0,2.4813,2.4317,2.4246,2.4621,2.3207,2.2299,2.2009,2.1832,2.1131,0.0,0.0,0.0,0.0,0.0,0.0,0.0,0.0,0.0,0.0,0.0,0.0,0.0,0.0,0.0,0.0,0.0,0.0,0.0,0.0,0.0,0.0,0.0,0.0,0.0,0.0,0.0,0.0,0.0,0.0,0.0,0.0,0.0,0.0,0.0,0.0,0.0,0.0,0.0,0.0,0.0,3.1158,3.1942,3.1081,3.0643,0.0,0.0,2.8389,2.8769,2.9883,3.001,2.8012,0.0,0.0,0.0,0.0,0.0,0.0,0.0,0.0,0.0,0.0,0.0,0.0,0.0,0.0,0.0,0.0,0.0,0.0,0.0,0.0,0.0,0.0,0.0,0.0,0.0,0.0,0.0,0.0,0.0,0.0,0.0,0.0,0.0,0.0,0.0,0.0,0.0,0.0,0.0,0.0,0.0,0.0,0.0,0.0,0.0,0.0,0.0,0.0,0.0,0.0,0.0,0.0,0.0,2.4209,2.5106,2.5368,2.5613,2.5724,2.4349,2.3426,2.3112,2.2282,2.1238,0.0,0.0,0.0,0.0,0.0,0.0,0.0,0.0,0.0,0.0,0.0,0.0,0.0,0.0,0.0,0.0,0.0,0.0,0.0,0.0,0.0,0.0,0.0,0.0,0.0,0.0,0.0,0.0,2.4878,2.5768,2.5981,0.0,0.0,0.0,0.0,0.0,0.0,0.0,0.0,0.0,0.0,3.2094,3.2779,3.2738,0.0,0.0,3.2576,3.1741,3.1476,3.1192,3.0434,2.8645,2.8289,0.0,0.0,0.0,0.0,0.0,0.0,0.0,0.0,0.0,0.0,0.0,0.0,0.0,0.0,0.0,0.0,0.0,0.0,0.0,0.0,0.0,0.0,0.0,0.0,0.0,0.0,0.0,0.0,0.0,0.0,0.0,0.0,0.0,0.0,0.0,0.0,0.0,0.0,0.0,0.0,0.0,0.0,0.0,0.0,0.0,0.0,0.0,0.0,0.0,0.0,0.0,0.0,2.4141,2.4873,2.5752,2.6191,2.6191,2.5248,2.459,2.4322,2.3384,2.2336,0.0,0.0,0.0,0.0,0.0,0.0,0.0,0.0,0.0,0.0,0.0,0.0,0.0,0.0,0.0,0.0,0.0,0.0,0.0,0.0,0.0,0.0,0.0,0.0,0.0,0.0,0.0,0.0,2.6415,2.7295,2.7869,0.0,0.0,0.0,0.0,0.0,0.0,0.0,0.0,0.0,0.0,3.3384,3.3815,3.403,3.4308,3.4667,3.374,3.2998,3.2956,3.22,3.1132,2.9821,0.0,0.0,0.0,0.0,0.0,0.0,0.0,0.0,0.0,0.0,0.0,0.0,0.0,0.0,0.0,0.0,0.0,0.0,0.0,0.0,0.0,0.0,0.0,0.0,0.0,0.0,0.0,0.0,0.0,0.0,2.5962,0.0,0.0,0.0,0.0,0.0,0.0,0.0,0.0,0.0,0.0,0.0,0.0,0.0,0.0,0.0,0.0,0.0,0.0,0.0,0.0,0.0,0.0,2.403,2.4443,2.5341,2.5791,2.5801,2.5703,2.5693,2.5635,2.5625,2.5012,2.3664,0.0,0.0,0.0,0.0,0.0,0.0,0.0,0.0,0.0,0.0,0.0,0.0,0.0,0.0,0.0,0.0,0.0,0.0,0.0,0.0,0.0,0.0,0.0,0.0,0.0,0.0,2.7155,2.7743,2.8518,0.0,0.0,0.0,0.0,0.0,0.0,0.0,0.0,0.0,0.0,3.3672,3.5344,3.5404,3.4894,3.4672,3.4984,3.273,3.137,3.2704,3.279,3.2479,0.0,0.0,0.0,0.0,0.0,0.0,0.0,0.0,0.0,0.0,0.0,0.0,0.0,0.0,0.0,0.0,0.0,0.0,0.0,0.0,0.0,0.0,0.0,0.0,0.0,0.0,0.0,2.771,2.7304,0.0,0.0,0.0,0.0,0.0,0.0,0.0,0.0,0.0,0.0,0.0,2.8102,2.7912,0.0,0.0,0.0,0.0,0.0,0.0,0.0,0.0,0.0,0.0,0.0,0.0,2.4594,2.5667,2.6975,2.7811,2.8111,2.74,2.6982,2.6945,2.5861,2.4551,2.2988,0.0,0.0,0.0,0.0,0.0,0.0,0.0,0.0,0.0,0.0,0.0,0.0,0.0,0.0,0.0,0.0,0.0,0.0,0.0,0.0,0.0,0.0,0.0,0.0,0.0,2.844,0.0,0.0,0.0,0.0,0.0,0.0,0.0,0.0,0.0,0.0,0.0,3.1685,3.2882,3.4156,3.5065,3.5449,3.5976,3.6479,0.0,0.0,0.0,0.0,0.0,0.0,0.0,0.0,0.0,0.0,0.0,0.0,0.0,0.0,3.4498,3.1462,3.0453,3.0101,3.0361,0.0,0.0,0.0,0.0,0.0,0.0,0.0,0.0,0.0,0.0,0.0,0.0,0.0,0.0,2.8982,0.0,2.8129,0.0,0.0,0.0,0.0,0.0,0.0,0.0,0.0,2.948,2.9769,2.9812,2.9636,2.9488,0.0,2.8862,2.8181,0.0,0.0,0.0,0.0,0.0,0.0,0.0,0.0,2.5679,2.6605,2.7712,2.8478,2.8779,2.8041,2.7629,2.7629,2.6462,2.5187,2.3926,2.3207,2.2517,0.0,0.0,0.0,0.0,0.0,0.0,0.0,0.0,0.0,0.0,0.0,0.0,0.0,0.0,0.0,0.0,0.0,0.0,0.0,0.0,0.0,0.0,0.0,3.0098,0.0,0.0,0.0,0.0,0.0,0.0,0.0,0.0,0.0,3.2483,3.2679,3.3206,3.4324,3.4951,3.529,3.5207,0.0,0.0,0.0,0.0,0.0,0.0,0.0,3.453,3.4177,3.4323,3.4615,3.5114,3.649,3.74,3.7224,0.0,0.0,3.4136,3.3196,3.2948,3.2995,3.2842,3.2712,3.2876,3.2852,3.2794,0.0,0.0,0.0,0.0,0.0,0.0,0.0,0.0,2.9071,2.8855,0.0,2.84,0.0,0.0,0.0,0.0,0.0,3.0034,0.0,0.0,3.2699,3.3056,3.2975,3.2449,3.2198,3.224,3.2135,3.1571,3.0436,2.7484,0.0,0.0,0.0,0.0,0.0,0.0,2.7124,2.718,2.7659,2.7851,2.7885,2.7798,2.7743,2.7666,2.7275,2.6839,2.6461,2.5957,2.5313,2.4359,2.4254,0.0,0.0,0.0,0.0,0.0,0.0,0.0,0.0,0.0,0.0,0.0,0.0,0.0,0.0,0.0,0.0,0.0,0.0,0.0,0.0,3.075,0.0,0.0,0.0,0.0,0.0,0.0,0.0,0.0,0.0,0.0,3.3386,3.3694,3.435,3.527,0.0,0.0,0.0,0.0,3.5458,3.4947,3.4419,3.4519,3.5508,3.6081,3.6395,3.6408,0.0,0.0,3.8115,3.804,3.7914,3.7387,3.8203,3.8718,3.8078,3.7391,3.6952,3.6501,3.5881,3.5386,3.4956,3.4815,3.4844,3.3771,0.0,0.0,0.0,0.0,3.2751,3.2991,3.3573,3.3195,3.2719,3.2206,3.1815,0.0,0.0,0.0,0.0,0.0,0.0,3.1386,3.2202,3.239,3.2679,3.3068,3.2905,3.283,3.2792,3.2001,3.1474,3.1082,2.9492,2.8029,2.6882,0.0,0.0,0.0,0.0,2.7718,2.841,2.9294,2.9929,3.0335,2.9527,2.8479,2.7327,2.714,2.6755,2.6019,2.588,2.552,2.498,2.452,0.0,0.0,0.0,0.0,0.0,0.0,0.0,0.0,0.0,0.0,0.0,0.0,0.0,0.0,0.0,0.0,0.0,0.0,0.0,2.9732,3.0436,3.057,0.0,0.0,0.0,0.0,0.0,0.0,0.0,0.0,0.0,3.6491,3.5978,3.5249,0.0,0.0,3.5887,3.4839,3.6611,3.7771,3.715,3.771,0.0,0.0,3.7374,3.7086,3.7462,3.8291,3.8856,3.8642,3.8944,3.9157,3.8969,3.9233,3.9408,3.922,3.8768,3.8378,3.8153,3.7701,3.7274,3.7111,3.7061,3.7036,3.5932,3.5935,3.4716,3.4424,3.4643,3.4374,3.4487,3.4876,3.4537,3.4338,3.42,3.3854,3.3449,3.2974,3.2751,0.0,0.0,0.0,3.326,3.3783,3.3796,3.3979,3.4306,3.4069,3.3977,3.3925,3.3024,3.2411,3.2189,3.1549,3.0517,2.9111,0.0,0.0,2.7305,2.802,2.8699,2.9257,2.994,3.0444,3.0758,3.0036,2.9203,2.8228,2.8175,2.7911,2.7392,2.7368,2.7172,2.6703,2.6323,2.6061,0.0,0.0,0.0,0.0,0.0,0.0,0.0,0.0,0.0,0.0,0.0,2.8133,2.7525,0.0,0.0,0.0,2.998,3.0331,3.0143,3.1169,0.0,0.0,0.0,0.0,0.0,0.0,0.0,3.5265,3.6693,3.7744,3.8062,3.8166,3.7786,3.6458,3.6872,3.7099,3.6493,0.0,3.887,3.8468,3.9069,3.9467,3.9328,3.8898,3.8755,3.9281,3.9672,3.9725,3.9312,3.9711,3.9791,3.9259,3.9207,3.9295,3.9069,3.8755,3.853,3.8517,3.8078,3.7638,3.74,3.7349,3.7412,3.7263,3.7994,3.5923,3.5034,3.5034,3.4996,3.4679,3.4224,3.4211,3.4461,3.4853,3.4895,3.5117,3.5421,3.4958,0.0,3.5449,3.5463,3.5659,3.6129,3.6129,3.6101,3.6032,3.5482,3.5209,3.5182,3.4565,3.3936,3.3372,3.3354,3.2833,3.1854,3.0623,3.0024,2.9973,3.0011,2.9998,3.0037,3.0049,3.0011,2.9946,2.9895,2.9869,2.9804,2.9779,2.9779,2.9779,2.9779,2.9553,2.8988,2.8913,2.8461,2.7517,0.0,0.0,0.0,0.0,0.0,0.0,0.0,0.0,0.0,0.0,0.0,0.0,0.0,0.0,0.0,3.1025,0.0,3.0947,3.271,0.0,0.0,0.0,3.4413,3.4043,3.5471,3.6501,3.6584,0.0,0.0,3.8654,4.0251,4.1126,4.0307,3.9618,3.9173,3.9088,3.9228,3.9326,3.9268,3.9324,3.9544,4.0038,4.035,4.0744,4.1192,4.1516,4.1066,4.0199,4.0346,3.9982,3.8768,3.8778,3.903,3.8386,3.8481,3.8209,3.8173,3.7635,3.7061,3.6719,3.6606,3.6769,3.8912,3.8681,3.8136,3.7885,3.7858,3.7454,3.7184,3.6978,3.6936,3.6808,3.6538,3.6525,3.6344,3.5991,3.5892,3.5905,3.6004,3.5991,3.5839,3.5524,3.5524,3.5237,3.4758,3.462,3.4551,3.451,3.3918,3.3546,3.3367,3.2999,3.2676,3.24,3.2123,3.1744,3.136,3.1708,3.1938,3.1938,3.1938,3.1573,3.0908,3.0871,3.052,2.9818,2.9779,2.9779,2.9779,2.9779,2.9729,2.9591,2.9126,2.8762,2.8536,2.7745,0.0,0.0,0.0,0.0,0.0,0.0,0.0,0.0,0.0,2.9314,2.8795,0.0,3.029,0.0,3.3145,3.3783,3.3647,3.4107,0.0,0.0,3.4613,3.4875,3.5571,3.6358,3.722,3.8125,3.9428,4.0565,4.1278,4.1831,4.2261,4.2431,4.1538,4.0514,3.9785,4.1175,4.1934,4.1123,4.1625,4.2032,4.1307,4.12,4.1355,4.1475,4.1503,4.1425,4.115,4.1181,4.1142,4.0775,4.0749,4.0803,4.0608,4.0337,3.9686,3.8862,3.7884,3.7149,3.7059,3.7021,3.7023,3.952,3.9647,3.9339,3.9359,3.9467,3.8448,3.7855,3.7524,3.7524,3.7479,3.7425,3.7908,3.7954,3.7634,3.7295,3.7152,3.7152,3.688,3.6579,3.6227,3.6213,3.6041,3.5661,3.5404,3.5275,3.5261,3.4632,3.4352,3.4323,3.4043,3.3905,3.3891,3.3905,3.3733,3.3417,3.2898,3.2593,3.2593,3.2593,3.2343,3.1852,3.1815,3.1573,3.1095,3.1057,3.1057,3.1057,3.1057,3.0846,3.0444,3.011,2.9815,2.9571,2.9029,2.8753,0.0,0.0,0.0,0.0,0.0,0.0,0.0,0.0,0.0,0.0,0.0,3.1733,3.3107,3.4289,3.4958,3.4958,3.5587,3.616,3.6447,3.6607,3.6977,3.7577,3.8146,3.8876,3.9859,4.0715,4.1669,4.2656,4.2806,4.2925,4.3245,4.2716,4.2028,4.1573,4.251,4.3021,4.24,4.2889,4.316,4.2367,4.2324,4.2281,4.2324,4.231,4.2138,4.166,4.1753,4.1675,4.0993,4.0997,4.1066,4.0832,4.0573,4.0103,3.9492,3.8838,3.808,3.7083,3.726,3.7535,3.9826,4.0538,3.9949,3.9929,4.0144,3.8698,3.7809,3.7402,3.7402,3.7621,3.8055,3.8891,3.929,3.9245,3.8571,3.8257,3.8227,3.7674,3.736,3.73,3.7285,3.7255,3.715,3.6626,3.6357,3.6327,3.5774,3.5489,3.5489,3.5489,3.5489,3.5489,3.5489,3.5489,3.5424,3.3788,3.2961,3.2961,3.2961,3.2912,3.2784,3.277,3.27,3.2607,3.2593,3.2593,3.2593,3.2593,3.2213,3.1426,3.1402,3.1163,3.0698,3.0605,3.0737,0.0,3.1054,0.0,0.0,0.0,0.0,0.0,0.0,0.0,0.0,3.2961,3.3718,3.4178,3.5255,3.5927,3.5927,3.7196,3.7994,3.8032,3.8833,3.9388,3.9403,3.9933,4.0561,4.1294,4.1931,4.2545,4.314,4.3305,4.329,4.329,4.3245,4.317,4.326,4.322,4.325,4.3305,4.3305,4.3279,4.3209,4.323,4.3245,4.3255,4.322,4.2941,4.202,4.2244,4.2066,4.0829,4.0909,4.1033,4.0513,4.0516,4.0388,4.0383,4.0211,3.9414,3.7697,3.7789,3.8109,4.1222,4.0456,4.0307,4.0003,3.9582,3.9254,3.904,3.8959,3.8959,3.9025,3.906,3.874,3.8586,3.8527,3.7883,3.7599,3.7584,3.7464,3.7135,3.6656,3.6656,3.6372,3.5878,3.5744,3.5699,3.5684,3.5564,3.5489,3.5489,3.5489,3.5489,3.5489,3.5489,3.5489,3.5472,0.0,0.0,0.0,3.4953,3.4543,3.3788,3.3739,3.338,3.2629,3.2593,0.0,3.2593,3.2593,3.2536,3.2357,3.2357,0.0,0.0,0.0,0.0,0.0,0.0,0.0,0.0,0.0,0.0,0.0,3.4032,3.4365,3.3883,3.5956,3.7066,3.6496,3.7755,3.8642,3.8642,3.8906,3.9104,3.9104,3.9301,3.9388,3.9388,3.9544,4.0053,4.1235,4.1504,4.2028,4.3095,4.3305,4.3305,4.3305,4.3305,4.3305,4.3305,4.3305,4.3305,4.3305,4.3305,4.3305,4.3305,4.3305,4.3305,4.3305,4.3305,4.321,4.301,4.3015,4.3093,4.2563,4.2732,4.2901,4.3266,4.3068,4.2409,4.215,4.1638,4.0873,3.9536,3.9417,3.9533,4.0995,0.0,4.0038,3.9723,0.0,3.9388,3.9388,3.9388,3.9388,3.9388,3.9379,3.8691,3.8377,3.8332,3.7389,3.6956,3.6941,3.6611,3.6312,3.6013,3.6013,3.5833,3.5489,3.5489,3.5489,3.5489,3.5489,3.5489,3.5489,3.5489,3.5489,3.5489,3.5489,3.5489,3.5489,3.5489,3.5489,3.5489,3.5489,3.5246,3.4758,3.4725,3.4509,3.4056,0.0,0.0,0.0,0.0,0.0,0.0,0.0,0.0,0.0,0.0,0.0,3.36,3.3378,3.3223,3.3252,3.3904,3.4471,3.481,3.6108,3.6726,3.6306,3.7585,3.835,3.823,3.8948,3.9388,3.9388,3.9388,3.9388,3.9388,3.9388,3.9388,3.9418,3.9672,4.0292,4.119,4.1707,4.2252,4.317,4.3305,4.3305,4.3305,4.3305,4.3305,4.3305,4.3305,4.3305,4.3305,4.3305,4.3305,4.3305,4.3305,4.3305,4.3305,4.3305,4.3305,4.3305,4.3305,4.3305,4.3305,4.3305,4.3439,4.3663,4.3499,4.322,4.2972,4.2687,4.2304,4.1657,4.1141,4.0532,4.0337,4.0172,3.9634,3.9388,3.9388,3.9388,3.9388,3.9388,0.0,0.0,0.0,3.8571,3.8227,3.8138,3.6881,3.6327,3.6282,3.5744,3.5489,3.5489,3.5489,3.5489,3.5489,3.5489,3.5489,3.5504,3.5651,3.5701,3.5701,3.5846,3.591,3.591,3.5925,3.591,3.591,3.591,3.591,3.5893,3.5666,3.5489,3.5489,3.5489,3.5489,3.5489,3.5489,3.5489,3.5489,3.5489,3.5133,3.4312,3.4279,3.4279,3.4279,3.4279,3.4658,3.5424,3.5489,3.5489,3.5519,3.6103,3.6596,3.684,3.7793,3.8377,3.8377,3.8497,3.8811,3.9328,3.9388,3.9388,3.9388,3.9388,3.9388,3.9388,3.9388,3.9388,3.9418,3.9993,4.0621,4.1294,4.1976,4.2596,4.3185,4.3305,4.3305,4.3305,4.3305,4.3305,4.3305,4.3305,4.3305,4.3305,4.3305,4.3305,4.3305,4.3305,4.3305,4.3305,4.3305,4.3305,4.3305,4.3305,4.3305,4.3305,4.3305,4.3364,4.3439,4.3409,4.3349,4.3454,4.3364,4.3305,4.321,4.2548,4.1643,4.0068,3.9523,3.9418,3.9388,3.9388,3.9388,3.9388,3.9388,3.9388,3.9388,3.9298,3.8093,3.7554,3.7479,3.6207,3.5654,3.5639,3.5564,3.5489,3.5489,3.5489,3.5489,3.5489,3.5489,3.5489,3.5554,3.6134,3.6446,3.6538,3.713,3.7472,3.7472,3.7472,3.7472,3.7472,3.7472,3.7472,3.7442,3.6164,3.5489,3.5489,3.5489,3.5489,3.5489,3.5489,3.5489,3.5489,3.5489,3.5439,3.5326,3.5279,3.5294,3.5279,3.5279,3.5359,3.5504,3.5489,3.5489,3.5504,3.6133,3.6989,3.8003,3.8287,3.8377,3.8407,3.8931,3.9284,3.9424,3.9388,3.9388,3.9388,3.9388,3.9388,3.9388,3.9388,3.9388,3.9433,4.0038,4.0696,4.1392,4.1991,4.2665,4.317,4.3305,4.3305,4.3305,4.3305,4.3305,4.3305,4.3305,4.3305,4.3305,4.3305,4.3305,4.3305,4.3305,4.3305,4.3305,4.3305,4.3305,4.3305,4.3305,4.3305,4.3305,4.3305,4.3484,4.3917,4.3663,4.3559,4.3883,4.3618,4.3319,4.3305,4.3076,4.29,3.9694,3.9403,3.9388,3.9388,3.9388,3.9388,3.9388,3.946,3.9884,3.9652,3.8766,3.7823,3.7225,3.687,3.6351,3.5863,3.5489,3.5926,3.5863,3.5537,3.5911,3.6117,3.6149,3.6538,3.6738,3.6768,3.7086,3.7233,3.7279,3.7632,3.7822,3.7822,3.7822,3.7822,3.7822,3.7822,3.7601,3.7205,3.6897,3.6753,3.6738,3.6753,3.6538,3.6117,3.6086,3.5879,3.5489,3.5489,3.5489,3.5489,3.5489,3.5489,3.5489,3.5489,3.5489,3.5489,3.5489,3.5489,3.5489,3.6432,3.7554,3.8811,3.8945,3.8945,3.896,3.923,3.9388,3.9388,3.9388,3.9388,3.9388,3.9388,3.9388,3.9388,3.9388,3.9574,3.9948,4.0531,4.1175,4.1886,4.2476,4.2985,4.3245,4.3305,4.3305,4.3305,4.3305,4.3305,4.3305,4.3305,4.3305,4.3305,4.3305,4.3305,4.3305,4.3305,4.3305,4.3305,4.3305,4.3305,4.3305,4.3305,4.3305,4.3305,4.3305,4.3409,4.3723,4.3529,4.3484,4.3574,4.3544,4.3319,4.3305,4.3305,4.3305,3.9388,3.9388,3.9388,3.9388,3.9409,3.9595,3.9717,3.9743,4.0449,3.9985,3.8747,3.7994,3.7434,3.7012,3.6723,3.6399,3.6148,3.66,3.6554,3.6116,3.66,3.6889,3.6934,3.7515,3.7822,3.7851,3.795,3.8035,3.8048,3.8234,3.8318,3.8334,3.8318,3.8253,3.8063,3.8063,3.7707,3.7048,3.7528,3.7653,3.7329,3.7297,3.7089,3.6669,3.6609,3.6445,3.6038,3.6037,3.5941,3.5765,3.575,3.5668,3.5504,3.5489,3.5489,3.5489,3.5489,3.5639,3.5968,3.6836,3.7953,3.9269,3.9388,3.9388,3.9388,3.9388,3.9388,3.9388,3.9388,3.9388,3.9388,3.9388,3.9388,3.9388,3.9388,3.9679,4.0322,4.098,4.1677,4.2321,4.2925,4.329,4.3305,4.3305,4.3305,4.3305,4.3305,4.3305,4.3305,4.3305,4.3305,4.3305,4.3305,4.3305,4.3305,4.3305,4.3305,4.3305,4.3305,4.3305,4.3305,4.3305,4.3305,4.3305,4.3305,4.3319,4.3305,4.3305,4.3305,4.3364,4.3319,4.3305,4.3305,4.3305,4.3305,3.9388,3.9388,3.9388,3.9388,3.9517,4.0239,4.0554,4.0613,4.0798,4.0482,3.9706,3.8918,3.856,3.8394,3.7201,3.6964,3.7501,3.7632,3.7632,3.756,3.7648,3.769,3.769,3.7777,3.7822,3.7921,3.8497,3.8799,3.8843,3.9489,3.9833,3.9876,3.9901,3.9471,3.8942,3.8832,3.8496,3.7814,3.7848,3.7209,3.589,3.5808,3.6083,3.6673,3.6704,3.6979,3.7406,3.7589,3.7249,3.6584,3.6492,3.6196,3.5651,3.5537,3.5489,3.5522,3.5537,3.5983,3.7075,3.7345,3.8057,3.9209,3.9445,3.9424,3.9388,3.9388,3.9388,3.946,3.9424,3.9388,3.9388,3.9388,3.9388,3.9388,3.9388,3.9679,4.0367,4.098,4.1677,4.2321,4.297,4.3305,4.3305,4.3305,4.3305,4.3305,4.3305,4.3305,4.3305,4.3305,4.3305,4.3305,4.3305,4.3305,4.3305,4.3305,4.3305,4.3305,4.3305,4.3305,4.3305,4.3305,4.3305,4.3305,4.3305,4.3305,4.3305,4.3305,4.3305,4.3305,4.3305,4.3305,4.3305,4.3305,4.3305,3.9388,3.9388,3.9388,3.9702,4.0205,4.0554,4.1013,4.1464,4.1605,4.1244,4.0499,3.9828,3.9055,3.8238,3.8017,3.7901,3.7851,3.8246,3.8189,3.7863,3.8234,3.8425,3.8497,3.8968,3.9172,3.9156,3.9463,3.9594,3.9662,3.9969,3.9893,3.9478,3.9445,3.9073,3.8413,3.8345,3.799,3.7286,3.7246,3.6693,3.5852,3.6497,3.687,3.6749,3.7129,3.7252,3.7226,3.7537,3.7632,3.7322,3.7308,3.716,3.689,3.686,3.686,3.6875,3.686,3.725,3.8093,3.8613,3.9234,4.0113,4.015,3.999,3.946,3.9388,3.9574,4.001,3.9702,3.9388,3.9424,3.9388,3.9388,3.9388,3.9388,3.9828,4.0876,4.122,4.1796,4.2746,4.3125,4.3305,4.3305,4.3305,4.3305,4.3305,4.3305,4.3305,4.3305,4.3305,4.3305,4.3305,4.3305,4.3305,4.3305,4.3305,4.3305,4.3305,4.3305,4.3305,4.3305,4.3305,4.3305,4.3305,4.3305,4.3305,4.3305,4.3305,4.3305,4.3305,4.3305,4.3305,4.3305,4.3305,4.3305,3.9388,3.946,3.9631,4.0115,4.0727,4.1009,4.1485,4.199,4.1976,4.1598,4.1022,4.0364,3.9506,3.8562,3.8772,3.869,3.8513,3.8978,3.8951,3.8513,3.8978,3.9236,3.9289,3.9808,4.0113,4.0113,4.007,4.007,4.0113,4.0113,3.974,3.9106,3.9191,3.8717,3.7719,3.777,3.7415,3.6552,3.6491,3.6163,3.5819,3.6681,3.7093,3.6813,3.7426,3.759,3.7113,3.7931,3.8221,3.7802,3.7979,3.8007,3.7822,3.7822,3.7822,3.7822,3.7822,3.8164,3.8952,3.9579,4.0245,4.0943,4.1046,4.0792,4.0274,4.013,4.0378,4.0878,4.0481,4.0095,3.9773,3.9553,3.9388,3.9388,3.9508,4.0172,4.1205,4.1542,4.2087,4.308,4.3275,4.3305,4.3305,4.3305,4.3305,4.3305,4.3305,4.3305,4.3305,4.3305,4.3305,4.3305,4.3305,4.3305,4.3305,4.3305,4.3305,4.3305,4.3305,4.3305,4.3305,4.3305,4.3305,4.3305,4.3305,4.3305,4.3305,4.3305,4.3305,4.3305,4.3305,4.3305,4.3305,4.3305,4.3305,3.9388,3.9538,4.0309,4.0644,4.0798,4.1652,4.2104,4.2124,4.1546,4.1227,4.11,4.0417,4.0054,3.9859,3.9262,3.9315,3.9901,3.9952,3.9927,3.985,3.9952,4.0045,4.0045,4.0096,4.0113,4.0113,4.0113,4.0113,4.0113,4.0096,3.9723,3.9056,3.9546,3.8911,3.7286,3.7483,3.7144,3.5887,3.5735,3.5667,3.5616,3.5701,3.614,3.6713,3.7496,3.7846,3.7922,3.921,3.9309,3.7857,3.8481,3.8553,3.795,3.7879,3.7908,3.7851,3.7863,3.8443,3.9615,3.9977,4.0555,4.1694,4.1917,4.1901,4.1658,4.1642,4.1739,4.1949,4.1707,4.1329,4.0706,3.999,3.9481,3.9454,3.9978,4.0606,4.1332,4.1931,4.2566,4.314,4.3305,4.3305,4.3305,4.3305,4.3305,4.3305,4.3305,4.3305,4.3305,4.3305,4.3305,4.3305,4.3305,4.3305,4.3305,4.3305,4.3305,4.3305,4.3305,4.3305,4.3305,4.3305,4.3305,4.3305,4.3305,4.3305,4.3305,4.3305,4.3305,4.3305,4.3305,4.3305,4.3305,4.3305,4.3305,3.9737,4.0209,4.0072,4.0635,4.162,4.1527,4.174,4.2177,4.1495,4.1204,4.1068,4.0409,4.0113,4.0096,3.9808,3.985,4.007,4.0113,4.0113,4.0113,4.0113,4.0113,4.0113,4.0113,4.0113,4.0113,4.0113,4.0113,4.0113,4.0113,3.974,3.9039,3.8768,3.8007,3.6981,3.6552,3.6107,3.5667,3.5616,3.5616,3.5616,3.5616,3.5735,3.6079,3.7263,3.7669,3.7195,3.9063,3.9615,3.8598,3.9293,3.9558,3.9322,3.9279,3.9038,3.8608,3.8995,3.9693,4.0623,4.1168,4.1811,4.2666,4.2847,4.2583,4.2125,4.2013,4.2221,4.2504,4.1723,4.1213,4.1379,4.0758,3.999,3.9592,4.0023,4.0681,4.1362,4.2006,4.2611,4.314,4.3305,4.3305,4.3305,4.3305,4.3305,4.3305,4.3305,4.3305,4.3305,4.3305,4.3305,4.3305,4.3305,4.3305,4.3305,4.3305,4.3305,4.3305,4.3305,4.3305,4.3305,4.3305,4.3305,4.3305,4.3305,4.3305,4.3305,4.3305,4.3305,4.3305,4.3305,4.3305,4.3305,4.3305,4.3305,3.9987,4.0575,3.9999,4.0512,4.17,4.1293,4.1398,4.1863,4.1153,4.0832,4.0747,4.0316,4.0113,4.0113,4.0113,4.0113,4.0113,4.0113,4.0113,4.0113,4.0113,4.0113,4.0113,4.0113,4.0113,4.0113,4.0113,4.0113,4.0113,4.0113,3.9706,3.8988,3.8481,3.7753,3.688,3.6248,3.591,3.5667,3.5616,3.5616,3.5616,3.5616,3.5616,3.5819,3.711,3.7432,3.6518,3.8792,3.9639,3.892,3.9571,4.0113,4.0113,4.0113,3.9859,3.9437,3.9799,4.0533,4.1443,4.2011,4.2711,4.3602,4.371,4.3426,4.2892,4.2814,4.3169,4.3259,4.2473,4.1756,4.1754,4.14,4.0666,4.0016,4.0337,4.0965,4.1677,4.2321,4.2836,4.3185,4.3305,4.3305,4.3305,4.3305,4.3305,4.3305,4.3305,4.3305,4.3305,4.3305,4.3305,4.3305,4.3305,4.3305,4.3305,4.3305,4.3305,4.3305,4.3305,4.3305,4.3305,4.3305,4.3305,4.3305,4.3305,4.3305,4.3305,4.3305,4.3305,4.3305,4.3305,4.3305,4.3305,4.3305,4.3305,4.016,4.0705,4.019,4.0367,4.1069,4.1087,4.1135,4.1068,4.046,4.0231,4.0231,4.0113,4.0113,4.0113,4.0113,4.0113,4.0113,4.0113,4.0113,4.0113,4.0113,4.0113,4.0113,4.0113,4.0113,4.0113,4.0113,4.0113,4.0113,4.0079,3.974,3.9123,3.8894,3.8058,3.6812,3.6643,3.6282,3.5752,3.5616,3.5616,3.5616,3.5616,3.5616,3.5752,3.711,3.7246,3.5836,3.8548,3.9486,3.8396,3.9343,4.0079,4.0113,4.0113,4.007,4.0037,4.0104,4.0849,4.2023,4.2327,4.3064,4.4136,4.4542,4.4412,4.4281,4.431,4.4355,4.4138,4.3486,4.2785,4.2013,4.1625,4.1173,4.0626,4.0935,4.1639,4.2276,4.291,4.329,4.3305,4.3305,4.3305,4.3305,4.3305,4.3305,4.3305,4.3305,4.3305,4.3305,4.3305,4.3305,4.3305,4.3305,4.3305,4.3305,4.3305,4.3305,4.3305,4.3305,4.3305,4.3305,4.3305,4.3305,4.3305,4.3305,4.3305,4.3305,4.3305,4.3305,4.3305,4.3305,4.3305,4.3305,4.3305,4.3305,4.0435,4.0203,3.9988,4.0369,4.1037,4.0653,4.0426,4.0409,4.018,4.0113,4.0113,4.0113,4.0113,4.0113,4.0113,4.0113,4.0113,4.0113,4.0113,4.0113,4.0113,4.0113,4.0113,4.0113,4.0113,4.0113,4.0113,4.0113,4.0113,4.0113,3.9723,3.9056,3.8497,3.7753,3.6829,3.6265,3.5785,3.565,3.5616,3.5616,3.5616,3.5616,3.5616,3.5769,3.7087,3.7415,3.662,3.8809,3.9571,3.8684,3.9588,4.0113,4.0113,4.0113,4.0113,4.0146,4.0595,4.1238,4.2168,4.2794,4.347,4.4361,4.4598,4.4598,4.4598,4.457,4.4327,4.3785,4.2909,4.2062,4.1305,4.0922,4.0749,4.0449,4.1384,4.2126,4.2455,4.294,4.3245,4.3305,4.3305,4.3305,4.3305,4.3305,4.3305,4.3305,4.3305,4.3305,4.3305,4.3305,4.3305,4.3305,4.3305,4.3305,4.3305,4.3305,4.3305,4.3305,4.3305,4.3305,4.3305,4.3305,4.3305,4.3305,4.3305,4.3305,4.3305,4.3305,4.3305,4.3305,4.3305,4.3305,4.3305,4.3305,4.3305,4.025,4.032,3.9769,3.9997,4.0721,4.0282,4.0113,4.0113,4.0113,4.0113,4.0113,4.0113,4.0113,4.0113,4.0113,4.0113,4.0113,4.0113,4.0113,4.0113,4.0113,4.0113,4.0113,4.0113,4.0113,4.0113,4.0113,4.0113,4.0113,4.0079,3.974,3.8988,3.8278,3.7533,3.6795,3.6028,3.5616,3.5616,3.5616,3.5616,3.5616,3.5616,3.5735,3.618,3.7263,3.7753,3.7743,3.9266,3.9774,3.9259,3.9723,4.0079,4.0113,4.0113,4.0113,4.0248,4.0781,4.1525,4.2236,4.298,4.3758,4.4401,4.4598,4.4598,4.4542,4.44,4.3814,4.329,4.2221,4.1406,4.1124,4.0906,4.089,4.113,4.1871,4.247,4.2686,4.3075,4.3275,4.3305,4.3305,4.3305,4.3305,4.3305,4.3305,4.3305,4.3305,4.3305,4.3305,4.3305,4.3305,4.3305,4.3305,4.3305,4.3305,4.3305,4.3305,4.3305,4.3305,4.3305,4.3305,4.3305,4.3305,4.3305,4.3305,4.3305,4.3305,4.3305,4.3305,4.3305,4.3305,4.3305,4.3305,4.3305,4.3305,3.9799,4.0826,3.9561,3.9487,4.0138,4.0113,4.0113,4.0113,4.0113,4.0113,4.0113,4.0113,4.0113,4.0113,4.0113,4.0113,4.0113,4.0113,4.0113,4.0113,4.0113,4.0113,4.0113,4.0113,4.0113,4.0113,4.0113,4.0113,4.0113,4.0096,3.9706,3.8853,3.8193,3.7533,3.6829,3.6028,3.5774,3.5808,3.5735,3.5735,3.565,3.5718,3.6011,3.6745,3.7567,3.8278,3.8819,3.9622,3.9808,3.9259,3.9774,4.0113,4.0113,4.0113,4.0113,4.0146,4.0815,4.1576,4.2286,4.3149,4.3859,4.4513,4.4598,4.4598,4.4514,4.408,4.3515,4.3078,4.1916,4.1168,4.1456,4.1501,4.1715,4.2306,4.25,4.2746,4.3185,4.3275,4.329,4.3305,4.3305,4.3305,4.3305,4.3305,4.3305,4.3305,4.3305,4.3305,4.3305,4.3305,4.3305,4.3305,4.3305,4.3305,4.3305,4.3305,4.3305,4.3305,4.3305,4.3305,4.3305,4.3305,4.3305,4.3305,4.3305,4.3305,4.3305,4.3305,4.3305,4.3305,4.3305,4.3305,4.3305,4.3305,4.3305,3.9671,3.9501,3.9677,3.9901,4.0096,4.0113,4.0113,4.0113,4.0113,4.0113,4.0113,4.0113,4.0113,4.0113,4.0113,4.0113,4.0113,4.0113,4.0113,4.0113,4.0113,4.0113,4.0113,4.0113,4.0113,4.0113,4.0113,4.0113,4.0113,4.0113,3.9469,3.8227,3.8041,3.7516,3.6846,3.6524,3.6524,3.6485,3.6468,3.6163,3.5802,3.6231,3.6575,3.6863,3.8024,3.8751,3.9056,3.9723,4.0045,3.9859,3.9977,4.0113,4.0113,4.013,4.018,4.035,4.1305,4.2066,4.2489,4.3548,4.4344,4.4547,4.4598,4.4598,4.4598,4.4384,4.3651,4.2805,4.2218,4.1856,4.1182,4.1618,4.2366,4.294,4.3015,4.309,4.3245,4.3305,4.3305,4.3305,4.3305,4.3305,4.3305,4.3305,4.3305,4.3305,4.3305,4.3305,4.3305,4.3305,4.3305,4.3305,4.3305,4.3305,4.3305,4.3305,4.3305,4.3305,4.3305,4.3305,4.3305,4.3305,4.3305,4.3305,4.3305,4.3305,4.3305,4.3305,4.3305,4.3305,4.3305,4.3305,4.3305,4.3305,4.3305,3.9221,3.9437,3.9927,4.0113,4.0113,4.0113,4.0113,4.0113,4.0113,4.0113,4.0113,4.0113,4.0113,4.0113,4.0113,4.0113,4.0113,4.0113,4.0113,4.0113,4.0113,4.0113,4.0113,4.0113,4.0113,4.0113,4.0113,4.0113,4.0113,4.0113,3.9276,3.8193,3.7898,3.7364,3.6299,3.6299,3.6485,3.6728,3.6812,3.6637,3.6637,3.7009,3.7432,3.776,3.8616,3.9089,3.9445,3.9893,4.0113,4.0096,4.0096,4.0113,4.013,4.0392,4.057,4.0629,4.1931,4.276,4.2963,4.391,4.4547,4.4598,4.4598,4.4598,4.4412,4.4035,4.2941,4.2671,4.2214,4.1709,4.1625,4.2177,4.2851,4.3185,4.3305,4.3305,4.3305,4.3305,4.3305,4.3305,4.3305,4.3305,4.3305,4.3305,4.3305,4.3305,4.3305,4.3305,4.3305,4.3305,4.3305,4.3305,4.3305,4.3305,4.3305,4.3305,4.3305,4.3305,4.3305,4.3305,4.3305,4.3305,4.3305,4.3305,4.3305,4.3305,4.3305,4.3305,4.3305,4.3305,4.3305,4.3305,4.3305,4.3305,4.3305,3.8778,4.0113,4.0113,4.0113,4.0113,4.0113,4.0113,4.0113,4.0113,4.0113,4.0113,4.0113,4.0113,4.0113,4.0113,4.0113,4.0113,4.0113,4.0113,4.0113,4.0113,4.0113,4.0113,4.0113,4.0113,4.0113,4.0113,4.0113,4.0113,4.0113,3.936,3.843,3.8108,3.729,3.6563,3.6174,3.6366,3.6907,3.7235,3.7364,3.7635,3.7872,3.8244,3.8684,3.9063,3.9503,3.9876,4.0113,4.0113,4.0113,4.0113,4.0163,4.0265,4.0882,4.1204,4.1491,4.2506,4.3318,4.3487,4.4079,4.4598,4.4598,4.4598,4.4682,4.4524,4.3627,4.2879,4.3101,4.1668,4.1773,4.2254,4.2985,4.3185,4.3305,4.3305,4.3305,4.3305,4.3305,4.3305,4.3305,4.3305,4.3305,4.3305,4.3305,4.3305,4.3305,4.3305,4.3305,4.3305,4.3305,4.3305,4.3305,4.3305,4.3305,4.3305,4.3305,4.3305,4.3305,4.3305,4.3305,4.3305,4.3305,4.3305,4.3305,4.3305,4.3305,4.3305,4.3305,4.3305,4.3305,4.3305,4.3305,4.3305,4.3305,4.3305,3.9236,4.0113,4.0113,4.0113,4.0113,4.0113,4.0113,4.0113,4.0113,4.0113,4.0113,4.0113,4.0113,4.0113,4.0113,4.0113,4.0113,4.0113,4.0113,4.0113,4.0113,4.0113,4.0113,4.0113,4.0113,4.0113,4.0113,4.0113,4.0113,4.0028,3.9631,3.8853,3.8599,3.8311,3.7516,3.7652,3.799,3.7872,3.8176,3.821,3.8125,3.8531,3.8836,3.9106,3.9529,3.9893,4.0045,4.0113,4.0113,4.0113,4.0197,4.0502,4.0832,4.1153,4.1559,4.2151,4.2861,4.3426,4.3555,4.413,4.4598,4.4598,4.4682,4.4852,4.5375,4.4376,4.3799,4.3805,4.3321,4.2841,4.3028,4.3185,4.329,4.3305,4.3305,4.3305,4.3305,4.3305,4.3305,4.3305,4.3305,4.3305,4.3305,4.3305,4.3305,4.3305,4.3305,4.3305,4.3305,4.3305,4.3305,4.3305,4.3305,4.3305,4.3305,4.3305,4.3305,4.3305,4.3305,4.3305,4.3305,4.3305,4.3305,4.3305,4.3305,4.3305,4.3305,4.3305,4.3305,4.3305,4.3305,4.3305,4.3305,4.3305,4.3424,3.9368,4.007,4.0113,4.0113,4.0113,4.0113,4.0113,4.0113,4.0113,4.0113,4.0113,4.0113,4.0113,4.0113,4.0113,4.0113,4.0113,4.0113,4.0113,4.0113,4.0113,4.0113,4.0113,4.0113,4.0113,4.0113,4.0113,4.0113,4.0113,4.0045,3.9723,3.9063,3.9005,3.8548,3.8024,3.8345,3.8396,3.8481,3.8768,3.892,3.9022,3.9276,3.952,3.9554,3.9893,4.0113,4.0113,4.0443,4.0603,4.0705,4.0942,4.1085,4.1339,4.1863,4.2395,4.2828,4.3538,4.3927,4.4113,4.4327,4.4598,4.4615,4.4902,4.4971,4.502,4.4485,4.4168,4.3857,4.3441,4.3084,4.3279,4.3305,4.3305,4.3305,4.3305,4.3305,4.3305,4.3305,4.3305,4.3305,4.3305,4.3305,4.3305,4.3305,4.3334,4.3349,4.3305,4.3305,4.3305,4.3305,4.3305,4.3305,4.3305,4.3305,4.3305,4.3305,4.3305,4.3305,4.3305,4.3305,4.3305,4.3305,4.3305,4.3305,4.3305,4.3305,4.3305,4.3305,4.3305,4.3305,4.3305,4.3305,4.3319,4.3334,4.3574,3.9489,4.0113,4.0113,4.0113,4.0113,4.0113,4.0113,4.0113,4.0113,4.0113,4.0113,4.0113,4.0113,4.0113,4.0113,4.0113,4.0113,4.0113,4.0113,4.0113,4.0113,4.0113,4.0113,4.0113,4.0113,4.0113,4.0113,4.0113,4.0113,4.0079,3.9825,3.9259,3.9191,3.8886,3.8294,3.8261,3.8582,3.8886,3.914,3.9469,3.9842,3.9994,4.0011,4.0028,4.0045,4.0113,4.0248,4.0679,4.1153,4.1255,4.2016,4.2049,4.2049,4.2574,4.3511,4.3555,4.4181,4.4384,4.4445,4.4564,4.4598,4.4649,4.5263,4.5278,4.4735,4.448,4.4281,4.3796,4.3351,4.2908,4.323,4.3305,4.3305,4.3305,4.3305,4.3305,4.3305,4.3305,4.3305,4.3305,4.3305,4.3305,4.3305,4.3305,4.3349,4.3379,4.3334,4.3334,4.3349,4.3305,4.3305,4.3305,4.3305,4.3305,4.3305,4.3305,4.3305,4.3305,4.3305,4.3305,4.3305,4.3305,4.3305,4.3305,4.3305,4.3305,4.3305,4.3305,4.3305,4.3305,4.3305,4.3305,4.3334,4.3379,4.3738,3.9995,4.0113,4.0113,4.0113,4.0113,4.0113,4.0113,4.0113,4.0113,4.0113,4.0113,4.0113,4.0113,4.0113,4.0113,4.0113,4.0113,4.0113,4.0113,4.0113,4.0113,4.0113,4.0113,4.0113,4.0113,4.0113,4.0113,4.0113,4.0113,4.0079,3.9977,3.991,3.9859,3.9462,3.9157,3.9334,3.9292,3.9225,3.9529,3.9926,4.0045,4.0113,4.0113,4.0113,4.0113,4.0146,4.0316,4.0798,4.1204,4.1339,4.2523,4.2987,4.3037,4.3318,4.3741,4.4198,4.4462,4.4598,4.4598,4.4598,4.4598,4.4767,4.5348,4.5567,4.5218,4.4995,4.4756,4.4264,4.3669,4.3234,4.3275,4.3305,4.3305,4.3305,4.3305,4.3305,4.3305,4.3305,4.3305,4.3305,4.3305,4.3305,4.3305,4.3334,4.3409,4.3439,4.3394,4.3514,4.3663,4.3484,4.3305,4.3305,4.3305,4.3305,4.3305,4.3305,4.3305,4.3305,4.3305,4.3305,4.3305,4.3305,4.3305,4.3305,4.3305,4.3305,4.3305,4.3305,4.3305,4.3305,4.3305,4.3305,4.3394,4.3514,4.4032,4.0113,4.0113,4.0113,4.0113,4.0113,4.0113,4.0113,4.0113,4.0113,4.0113,4.0113,4.0113,4.0113,4.0113,4.0113,4.0113,4.0113,4.0113,4.0113,4.0113,4.0113,4.0113,4.0113,4.0113,4.0113,4.0113,4.0113,4.0113,4.0113,4.0113,4.0113,4.0096,4.0113,3.991,3.969,3.9842,3.9893,3.969,3.991,4.0113,4.0113,4.0113,4.0113,4.0113,4.0163,4.0299,4.0764,4.1373,4.1965,4.2489,4.342,4.3893,4.3995,4.4045,4.4164,4.4513,4.4598,4.4598,4.4598,4.4615,4.4767,4.5213,4.5838,4.584,4.5571,4.5365,4.5131,4.4334,4.4373,4.3849,4.3369,4.3305,4.3305,4.3305,4.3305,4.3305,4.3305,4.3305,4.3305,4.3305,4.3305,4.3305,4.3305,4.3364,4.3469,4.3484,4.3469,4.3633,4.3873,4.3604,4.3305,4.3305,4.3305,4.3305,4.3305,4.3305,4.3305,4.3305,4.3305,4.3305,4.3305,4.3305,4.3305,4.3305,4.3305,4.3305,4.3305,4.3305,4.3305,4.3305,4.3305,4.3334,4.3469,4.3723,4.4317,4.0113,4.0113,4.0113,4.0113,4.0113,4.0113,4.0113,4.0113,4.0113,4.0113,4.0113,4.0113,4.0113,4.0113,4.0113,4.0113,4.0113,4.0113,4.0113,4.0113,4.0113,4.0113,4.0113,4.0113,4.0113,4.0113,4.0113,4.0113,4.0113,4.0113,4.0113,4.0113,4.0113,4.0113,4.0079,4.0062,4.0096,4.0113,4.0113,4.0113,4.0113,4.0113,4.0197,4.0316,4.0307,4.0705,4.1407,4.2117,4.2726,4.3318,4.4012,4.4564,4.4581,4.4598,4.4598,4.4598,4.4598,4.4598,4.4632,4.484,4.5128,4.5551,4.6304,4.6114,4.5731,4.5527,4.5222,4.409,4.3888,4.4066,4.3409,4.3305,4.3305,4.3305,4.3305,4.3305,4.3305,4.3305,4.3305,4.3305,4.3305,4.3305,4.3305,4.3364,4.3469,4.3688,4.3633,4.3648,4.3813,4.3529,4.3305,4.3305,4.3305,4.3305,4.3305,4.3305,4.3305,4.3305,4.3305,4.3305,4.3305,4.3305,4.3305,4.3305,4.3305,4.3305,4.3305,4.3305,4.3305,4.3305,4.3305,4.3454,4.3738,4.4257,4.484,4.0113,4.0113,4.0113,4.0113,4.0113,4.0113,4.0113,4.0113,4.0113,4.0113,4.0113,4.0113,4.0113,4.0113,4.0113,4.0113,4.0113,4.0113,4.0113,4.0113,4.0113,4.0113,4.0113,4.0113,4.0113,4.0113,4.0113,4.0113,4.0113,4.0113,4.0113,4.0113,4.0113,4.0113,4.0113,4.0113,4.0113,4.0113,4.013,4.018,4.0231,4.0248,4.0544,4.0899,4.1119,4.1407,4.2117,4.2794,4.3301,4.3521,4.4181,4.4564,4.4598,4.4598,4.4598,4.4598,4.4598,4.4598,4.4739,4.5128,4.5635,4.5946,4.641,4.6449,4.6222,4.5543,4.5116,4.4759,4.4105,4.363,4.3409,4.3305,4.3305,4.3305,4.3305,4.3305,4.3305,4.3305,4.3305,4.3305,4.3305,4.3305,4.3305,4.3379,4.3469,4.3663,4.3838,4.3783,4.3708,4.3439,4.3305,4.3305,4.3305,4.3305,4.3305,4.3305,4.3305,4.3305,4.3305,4.3305,4.3305,4.3305,4.3305,4.3305,4.3334,4.3424,4.3499,4.3484,4.3364,4.3409,4.3544,4.3853,4.4152,4.4736,4.5394,4.0113,4.0113,4.0113,4.0113,4.0113,4.0113,4.0113,4.0113,4.0113,4.0113,4.0113,4.0113,4.0113,4.0113,4.0113,4.0113,4.0113,4.0113,4.0113,4.0113,4.0113,4.0113,4.0113,4.0113,4.0113,4.0113,4.0113,4.0113,4.0113,4.0113,4.0113,4.0113,4.0113,4.0113,4.0113,4.0113,4.0113,4.0231,4.0519,4.0916,4.1221,4.1339,4.15,4.1813,4.1813,4.2236,4.2828,4.3166,4.369,4.3961,4.4513,4.4581,4.4598,4.4598,4.4598,4.4649,4.5026,4.5229,4.5297,4.5568,4.6109,4.679,4.7119,4.7243,4.6947,4.6175,4.5285,4.4812,4.4434,4.3927,4.3394,4.3305,4.3305,4.3319,4.3394,4.3379,4.3364,4.3305,4.3305,4.3305,4.3305,4.3305,4.3305,4.3334,4.3379,4.3454,4.3544,4.3529,4.3499,4.3379,4.3305,4.3305,4.3305,4.3305,4.3305,4.3305,4.3305,4.3305,4.3349,4.3334,4.3305,4.3305,4.3499,4.3604,4.3723,4.3768,4.3783,4.3693,4.3604,4.3723,4.3858,4.4302,4.4751,4.5409,4.6052,4.0113,4.0113,4.0113,4.0113,4.0113,4.0113,4.0113,4.0113,4.0113,4.0113,4.0113,4.0113,4.0113,4.0113,4.0113,4.0113,4.0113,4.0113,4.0113,4.0113,4.0113,4.0113,4.0113,4.0113,4.0113,4.0113,4.0113,4.0113,4.0113,4.0113,4.0113,4.0113,4.0113,4.0113,4.0113,4.013,4.018,4.0536,4.1136,4.1677,4.2066,4.2185,4.2354,4.2506,4.2658,4.2929,4.3572,4.3741,4.4113,4.4412,4.4564,4.4598,4.4598,4.4823,4.4942,4.5111,4.5585,4.6126,4.6261,4.6532,4.6921,4.7547,4.8064,4.7994,4.7441,4.673,4.6032,4.53,4.4434,4.395,4.3512,4.3305,4.3454,4.3529,4.3618,4.3559,4.3529,4.3589,4.3469,4.3305,4.3305,4.3305,4.3305,4.3305,4.3305,4.3305,4.3305,4.3305,4.3319,4.3334,4.3349,4.3364,4.3379,4.3379,4.3349,4.3349,4.3334,4.3439,4.3484,4.3559,4.3663,4.3873,4.4167,4.4227,4.4257,4.4392,4.4541,4.4227,4.3958,4.4287,4.4631,4.496,4.5424,4.6082,4.6561,4.0113,4.0113,4.0113,4.0113,4.0113,4.0113,4.0113,4.0113,4.0113,4.0113,4.0113,4.0113,4.0113,4.0113,4.0113,4.0113,4.0113,4.0113,4.0113,4.0113,4.0113,4.0113,4.0113,4.0113,4.0113,4.0113,4.0113,4.0113,4.0146,4.0265,4.018,4.0113,4.0163,4.013,4.0163,4.0248,4.0739,4.1221,4.1931,4.2269,4.2472,4.2574,4.2777,4.3234,4.3375,4.3707,4.4445,4.4429,4.4429,4.4598,4.4598,4.4598,4.4682,4.5145,4.5399,4.5585,4.6278,4.6887,4.7259,4.7398,4.7733,4.8071,4.8351,4.844,4.7638,4.673,4.6173,4.569,4.4495,4.3729,4.3374,4.3364,4.3678,4.4077,4.4212,4.4082,4.4092,4.4062,4.3858,4.3454,4.3305,4.3305,4.3305,4.3305,4.3305,4.3305,4.3305,4.3305,4.3379,4.3409,4.3424,4.3454,4.3484,4.3469,4.3439,4.3529,4.3843,4.4047,4.4107,4.4142,4.4231,4.4526,4.4721,4.49,4.496,4.511,4.5274,4.5214,4.5185,4.5185,4.5364,4.5618,4.6022,4.6606,4.6935,4.0113,4.0113,4.0113,4.0113,4.0113,4.0113,4.0113,4.0113,4.0113,4.0113,4.0113,4.0113,4.0113,4.0113,4.0113,4.0113,4.0113,4.0113,4.0113,4.0113,4.0113,4.0113,4.0113,4.0113,4.0113,4.0113,4.0113,4.0113,4.013,4.0485,4.073,4.0679,4.0417,4.0146,4.018,4.0722,4.1441,4.2286,4.2844,4.3149,4.3701,4.3718,4.3853,4.4062,4.413,4.4276,4.4547,4.4581,4.4598,4.4598,4.4615,4.4666,4.4818,4.5415,4.5788,4.5974,4.687,4.7551,4.7821,4.7973,4.8075,4.8578,4.8787,4.8625,4.7688,4.6747,4.5941,4.5138,4.4212,4.3534,4.3858,4.3973,4.4197,4.4676,4.4825,4.4661,4.4526,4.4436,4.4018,4.3439,4.3319,4.3305,4.3305,4.3305,4.3305,4.3305,4.3305,4.3364,4.3559,4.3723,4.3828,4.4003,4.4077,4.4201,4.4242,4.4377,4.4496,4.4571,4.4676,4.4825,4.493,4.4945,4.5155,4.5394,4.5678,4.5843,4.6052,4.6322,4.6307,4.6037,4.6037,4.6217,4.6666,4.71,4.7219,4.0113,4.0113,4.0113,4.0113,4.0113,4.0113,4.0113,4.0113,4.0113,4.0113,4.0113,4.0113,4.0113,4.0113,4.0113,4.0113,4.0113,4.0113,4.0113,4.0113,4.0113,4.0113,4.0113,4.0113,4.0113,4.0113,4.0113,4.0113,4.0146,4.0832,4.1052,4.1018,4.0933,4.0891,4.1027,4.1508,4.2405,4.3139,4.3741,4.3944,4.4547,4.453,4.4513,4.4547,4.453,4.453,4.4581,4.4598,4.4598,4.4699,4.4818,4.4953,4.5263,4.5686,4.6244,4.6769,4.7394,4.8159,4.824,4.8291,4.846,4.8849,4.8951,4.8497,4.7655,4.6763,4.5933,4.525,4.43,4.3783,4.4362,4.4451,4.4646,4.508,4.5125,4.499,4.4736,4.4556,4.3988,4.3394,4.3364,4.3319,4.3484,4.3544,4.3783,4.3783,4.3768,4.3947,4.4317,4.4466,4.4571,4.4706,4.4825,4.5035,4.5229,4.5095,4.4975,4.505,4.52,4.5499,4.5603,4.5633,4.5828,4.6217,4.6471,4.6591,4.6696,4.683,4.68,4.6681,4.6711,4.6726,4.689,4.7234,4.7249,4.0113,4.0113,4.0113,4.0113,4.0113,4.0113,4.0113,4.0113,4.0113,4.0113,4.0113,4.0113,4.0113,4.0113,4.0113,4.0113,4.0113,4.0113,4.0113,4.0113,4.0113,4.0113,4.0113,4.0113,4.0113,4.0113,4.0113,4.0113,4.0113,4.0832,4.1153,4.1593,4.1897,4.2185,4.2303,4.2963,4.3341,4.3538,4.4198,4.4479,4.4581,4.4598,4.4598,4.4598,4.4598,4.4598,4.4598,4.4784,4.4835,4.4886,4.5415,4.5652,4.5788,4.6904,4.7466,4.7686,4.8409,4.8866,4.8951,4.8951,4.8951,4.8984,4.9001,4.8465,4.7622,4.6793,4.5954,4.521,4.4664,4.4312,4.4571,4.4825,4.511,4.5244,4.5274,4.511,4.4825,4.4571,4.4003,4.3529,4.3409,4.3379,4.3604,4.3883,4.4216,4.4336,4.4317,4.4541,4.4915,4.517,4.5274,4.5439,4.5589,4.5798,4.5903,4.5589,4.5469,4.5544,4.5768,4.6127,4.6396,4.6531,4.677,4.7055,4.704,4.6965,4.71,4.7264,4.713,4.701,4.713,4.7174,4.7294,4.7309,4.7309,4.0113,4.0113,4.0113,4.0113,4.0113,4.0113,4.0113,4.0113,4.0113,4.0113,4.0113,4.0113,4.0113,4.0113,4.0113,4.0113,4.0113,4.0113,4.0113,4.0113,4.0113,4.0113,4.0113,4.0113,4.013,4.0113,4.0113,4.0163,4.0113,4.1001,4.1559,4.2016,4.298,4.3453,4.3217,4.3375,4.3561,4.4113,4.4479,4.4598,4.4598,4.4598,4.4615,4.4615,4.4632,4.4615,4.4699,4.4993,4.5213,4.5348,4.5974,4.6413,4.6549,4.7547,4.7936,4.8105,4.8595,4.8984,4.9018,4.8984,4.9001,4.9018,4.894,4.8289,4.69,4.6933,4.6112,4.5323,4.5016,4.484,4.508,4.5125,4.5274,4.5274,4.5214,4.4945,4.4676,4.4466,4.4107,4.3738,4.3529,4.4197,4.4556,4.4706,4.5005,4.5274,4.5289,4.5125,4.5364,4.5768,4.5992,4.6187,4.6367,4.6561,4.6591,4.6307,4.6262,4.6411,4.6606,4.689,4.713,4.716,4.7189,4.7189,4.7249,4.7309,4.7309,4.7309,4.7309,4.7294,4.7309,4.7309,4.7309,4.7309,4.7309,4.0113,4.0113,4.0113,4.0113,4.0113,4.0113,4.0113,4.0113,4.0113,4.0113,4.0113,4.0113,4.0113,4.0113,4.0113,4.0113,4.0113,4.0113,4.0113,4.0113,4.0113,4.0113,4.0113,4.0146,4.0333,4.035,4.0493,4.0578,4.1044,4.166,4.2422,4.325,4.4039,4.4124,4.3927,4.3944,4.4062,4.4462,4.4598,4.4598,4.4598,4.4632,4.4739,4.4823,4.4823,4.4688,4.5026,4.5382,4.5737,4.5991,4.6532,4.7141,4.7394,4.7784,4.824,4.8494,4.8663,4.9001,4.9018,4.9018,4.9018,4.9018,4.9018,4.8197,4.6966,4.6973,4.6389,4.5711,4.5323,4.5229,4.5274,4.5289,4.5155,4.514,4.484,4.4556,4.4556,4.4347,4.4317,4.3947,4.4272,4.4915,4.5499,4.5663,4.5843,4.6082,4.6292,4.6067,4.5873,4.6247,4.6576,4.6711,4.6845,4.695,4.7055,4.7055,4.7085,4.7264,4.7309,4.7309,4.7294,4.7249,4.7279,4.7309,4.7309,4.7309,4.7309,4.7309,4.7309,4.7309,4.7309,4.7309,4.7309,4.7309,4.7309,4.0113,4.0113,4.0113,4.0113,4.0113,4.0113,4.0113,4.0113,4.0113,4.0113,4.0113,4.0113,4.0113,4.0113,4.0113,4.0113,4.0113,4.0113,4.0113,4.0113,4.0113,4.0113,4.0113,4.013,4.0451,4.0899,4.1153,4.1288,4.2202,4.2692,4.347,4.4113,4.4378,4.4462,4.4418,4.4401,4.4479,4.4564,4.4598,4.4598,4.4598,4.4598,4.4942,4.5128,4.5128,4.5229,4.5568,4.5991,4.6024,4.643,4.7175,4.7699,4.8125,4.8612,4.8866,4.8984,4.8984,4.9001,4.9018,4.9018,4.9018,4.8987,4.8947,4.8266,4.7672,4.7308,4.6989,4.625,4.5738,4.5469,4.5319,4.5095,4.487,4.4631,4.4317,4.4257,4.4347,4.4347,4.4392,4.4511,4.499,4.5574,4.6157,4.6426,4.6456,4.6666,4.683,4.6845,4.6711,4.6785,4.704,4.707,4.7174,4.7234,4.7309,4.7309,4.7309,4.7309,4.7309,4.7309,4.7309,4.7309,4.7309,4.7309,4.7309,4.7309,4.7309,4.7309,4.7309,4.7309,4.7309,4.7309,4.7309,4.7309,4.7309,4.0113,4.0113,4.0113,4.0113,4.0113,4.0113,4.0113,4.0113,4.0113,4.0113,4.0113,4.0113,4.0113,4.0113,4.0113,4.0113,4.0113,4.0113,4.0113,4.0113,4.0113,4.0113,4.0113,4.0163,4.0561,4.1001,4.1339,4.1711,4.2354,4.3115,4.3504,4.3707,4.4395,4.4547,4.4598,4.4598,4.4598,4.4598,4.4598,4.4598,4.4632,4.4666,4.5128,4.5449,4.5568,4.5788,4.6329,4.6921,4.7073,4.7398,4.8156,4.8663,4.8748,4.89,4.9001,4.9001,4.9001,4.9018,4.9018,4.9018,4.9018,4.8964,4.8868,4.8194,4.7777,4.7755,4.7746,4.6905,4.6079,4.5729,4.5225,4.4858,4.4609,4.4258,4.4043,4.4037,4.4242,4.4616,4.4706,4.5289,4.5768,4.6157,4.6756,4.6905,4.695,4.7189,4.7309,4.7309,4.7309,4.7309,4.7309,4.7309,4.7309,4.7309,4.7309,4.7309,4.7309,4.7309,4.7309,4.7309,4.7309,4.7309,4.7309,4.7309,4.7309,4.7309,4.7309,4.7309,4.7309,4.7309,4.7309,4.7309,4.7309,4.7309,4.7309,4.0113,4.0113,4.0113,4.0113,4.0113,4.0113,4.0113,4.0113,4.0113,4.0113,4.0113,4.0113,4.0113,4.0113,4.0113,4.0113,4.0113,4.0113,4.0113,4.0113,4.0113,4.0113,4.0113,4.0197,4.0781,4.1238,4.1796,4.2303,4.2963,4.3504,4.3927,4.4012,4.4462,4.453,4.4598,4.4598,4.4598,4.4598,4.4598,4.4598,4.4666,4.484,4.5466,4.594,4.6075,4.6532,4.7141,4.78,4.7872,4.8007,4.8629,4.8984,4.9001,4.9001,4.9018,4.9018,4.9018,4.9018,4.9018,4.9018,4.9018,4.8935,4.8745,4.8391,4.8194,4.8191,4.7807,4.7221,4.6483,4.5829,4.5198,4.4625,4.4276,4.3964,4.3922,4.3928,4.4362,4.4855,4.5409,4.6037,4.6471,4.683,4.7115,4.7249,4.7309,4.7309,4.7309,4.7309,4.7309,4.7309,4.7309,4.7309,4.7309,4.7309,4.7309,4.7309,4.7309,4.7309,4.7309,4.7309,4.7309,4.7309,4.7309,4.7309,4.7309,4.7309,4.7309,4.7309,4.7309,4.7309,4.7309,4.7309,4.7309,4.7309,4.7309,4.0113,4.0113,4.0113,4.0113,4.0113,4.0113,4.0113,4.0113,4.0113,4.0113,4.0113,4.0113,4.0113,4.0113,4.0113,4.0113,4.0113,4.0113,4.0113,4.0113,4.0113,4.0113,4.0113,4.018,4.0764,4.1694,4.2422,4.276,4.4073,4.4462,4.4384,4.4598,4.4581,4.4598,4.4598,4.4598,4.4598,4.4598,4.4598,4.4598,4.4767,4.5229,4.5991,4.6583,4.6819,4.7107,4.775,4.799,4.7973,4.8257,4.8545,4.8984,4.9018,4.9018,4.9018,4.9018,4.9018,4.9018,4.9018,4.9018,4.9018,4.8923,4.8712,4.8662,4.8613,4.8377,4.7937,4.719,4.6407,4.5914,4.5375,4.4467,4.3856,4.4137,4.4361,4.4554,4.5005,4.5574,4.6247,4.6726,4.6875,4.7189,4.7204,4.7309,4.7309,4.7309,4.7309,4.7309,4.7309,4.7309,4.7309,4.7309,4.7309,4.7309,4.7309,4.7309,4.7309,4.7309,4.7309,4.7309,4.7309,4.7309,4.7309,4.7309,4.7309,4.7309,4.7309,4.7324,4.7324,4.7309,4.7309,4.7309,4.7324,4.7384,4.7309,4.0113,4.0113,4.0113,4.0113,4.0113,4.0113,4.0113,4.0113,4.0113,4.0113,4.0113,4.0113,4.0113,4.0113,4.0113,4.0113,4.0113,4.0113,4.0113,4.0113,4.0113,4.0113,4.0113,4.0146,4.0705,4.1356,4.2134,4.3115,4.4276,4.4598,4.4598,4.4598,4.4598,4.4598,4.4598,4.4598,4.4598,4.4598,4.4733,4.4733,4.4818,4.4936,4.5376,4.6329,4.6921,4.7597,4.8223,4.8697,4.8714,4.8849,4.8883,4.9001,4.9018,4.9018,4.9018,4.9018,4.9018,4.9018,4.9018,4.9001,4.894,4.8602,4.8448,4.8829,4.8856,4.8472,4.7893,4.7074,4.647,4.6074,4.5472,4.451,4.3874,4.4443,4.4853,4.5257,4.5633,4.6352,4.7055,4.7189,4.7294,4.7309,4.7309,4.7309,4.7309,4.7309,4.7309,4.7309,4.7309,4.7309,4.7309,4.7309,4.7309,4.7309,4.7309,4.7309,4.7309,4.7309,4.7309,4.7309,4.7339,4.7578,4.7758,4.7429,4.7309,4.7563,4.7638,4.7369,4.7369,4.7549,4.7623,4.7758,4.7623,4.7623,4.7444,4.0113,4.0113,4.0113,4.0113,4.0113,4.0113,4.0113,4.0113,4.0113,4.0113,4.0113,4.0113,4.0113,4.0113,4.0113,4.0113,4.0113,4.0113,4.0113,4.0113,4.0113,4.0113,4.0113,4.0163,4.0637,4.1255,4.2371,4.3436,4.4429,4.4598,4.4598,4.4598,4.4598,4.4598,4.4598,4.4598,4.4598,4.4615,4.484,4.5026,4.5111,4.5432,4.5805,4.6718,4.7496,4.8173,4.8528,4.9018,4.9001,4.9001,4.9001,4.9001,4.9018,4.9018,4.9018,4.9018,4.9018,4.9018,4.9018,4.897,4.8829,4.8361,4.7968,4.8283,4.8133,4.7807,4.7887,4.7196,4.7161,4.6779,4.6298,4.5437,4.5379,4.5737,4.5501,4.5447,4.6127,4.689,4.7219,4.7249,4.7309,4.7309,4.7309,4.7309,4.7309,4.7309,4.7309,4.7309,4.7309,4.7309,4.7309,4.7309,4.7309,4.7309,4.7309,4.7309,4.7309,4.7309,4.7414,4.7578,4.7788,4.8087,4.8207,4.8072,4.8072,4.8297,4.8252,4.7997,4.8117,4.8446,4.8401,4.8312,4.8132,4.8027,4.8132,4.0113,4.0113,4.0113,4.0113,4.0113,4.0113,4.0113,4.0113,4.0113,4.0113,4.0113,4.0113,4.0113,4.0113,4.0113,4.0113,4.0113,4.0113,4.0113,4.0113,4.0113,4.0113,4.0163,4.0282,4.095,4.1779,4.2811,4.3673,4.4564,4.4598,4.4598,4.4598,4.4598,4.4598,4.4598,4.4598,4.4598,4.4801,4.5077,4.5551,4.5957,4.6413,4.6718,4.7344,4.8071,4.8832,4.8951,4.9018,4.9018,4.9018,4.9018,4.9018,4.9018,4.9018,4.9018,4.9018,4.9018,4.9018,4.9018,4.9001,4.8576,4.8113,4.777,4.7605,4.7539,4.7519,4.761,4.7747,4.7704,4.7321,4.6811,4.639,4.6448,4.668,4.622,4.5843,4.6636,4.7279,4.7294,4.7309,4.7309,4.7309,4.7309,4.7309,4.7309,4.7309,4.7309,4.7309,4.7309,4.7309,4.7309,4.7309,4.7309,4.7309,4.7309,4.7504,4.7578,4.7743,4.7908,4.8042,4.8237,4.8551,4.885,4.903,4.909,4.8985,4.9045,4.8835,4.9105,4.9194,4.9,4.8805,4.885,4.8775,4.9075,4.0113,4.0113,4.0113,4.0113,4.0113,4.0113,4.0113,4.0113,4.0113,4.0113,4.0113,4.0113,4.0113,4.0113,4.0113,4.0113,4.0113,4.0113,4.0113,4.0113,4.0113,4.0113,4.035,4.0815,4.1813,4.2608,4.3267,4.3809,4.4496,4.4598,4.4598,4.4598,4.4598,4.4598,4.4598,4.4598,4.4666,4.4936,4.5382,4.5855,4.6075,4.6532,4.7141,4.7597,4.7922,4.8494,4.8798,4.8984,4.9018,4.9018,4.9018,4.9018,4.9018,4.9018,4.9018,4.9018,4.9018,4.9018,4.9018,4.9018,4.8608,4.8401,4.8161,4.8015,4.7885,4.7721,4.7902,4.8247,4.8048,4.7422,4.6874,4.6312,4.6197,4.6943,4.7002,4.6852,4.716,4.7294,4.7309,4.7309,4.7309,4.7309,4.7309,4.7309,4.7309,4.7309,4.7309,4.7309,4.7324,4.7324,4.7369,4.7429,4.7459,4.7309,4.7324,4.7863,4.8042,4.8222,4.8476,4.876,4.897,4.909,4.9329,4.9643,4.9569,4.9404,4.9434,4.9673,4.9569,4.9553,4.9359,4.9224,4.9359,4.9554,4.9793]}]]